Time,TemperatureF,DewpointF,PressureIn,WindDirection,WindDirectionDegrees,WindSpeedMPH,WindSpeedGustMPH,Humidity,HourlyPrecipIn,Conditions,Clouds,dailyrainin,SoftwareType,DateUTC
2013-05-21 00:00:00,78.0,71.7,29.89,South,180,8.0,12.0,81,0.00,,---,0.00,VWS V14.00,2013-05-21 05:00:00,
2013-05-21 00:01:00,79.0,72.7,29.89,SSE,158,9.0,11.0,81,0.00,,---,0.00,VWS V14.00,2013-05-21 05:01:00,
2013-05-21 00:02:00,79.0,72.7,29.89,SSE,158,13.0,16.0,81,0.00,,---,0.00,VWS V14.00,2013-05-21 05:02:00,
2013-05-21 00:03:00,79.0,72.7,29.89,SSE,158,8.0,14.0,81,0.00,,---,0.00,VWS V14.00,2013-05-21 05:03:00,
2013-05-21 00:04:00,79.0,72.7,29.88,SSE,158,9.0,14.0,81,0.00,,---,0.00,VWS V14.00,2013-05-21 05:04:00,
2013-05-21 00:05:00,79.0,72.7,29.89,SSE,158,12.0,14.0,81,0.00,,---,0.00,VWS V14.00,2013-05-21 05:05:00,
2013-05-21 00:06:00,79.0,72.7,29.89,SSE,158,8.0,15.0,81,0.00,,---,0.00,VWS V14.00,2013-05-21 05:06:00,
2013-05-21 00:07:00,78.0,71.7,29.89,SE,135,10.0,11.0,81,0.00,,---,0.00,VWS V14.00,2013-05-21 05:07:00,
2013-05-21 00:08:00,78.0,72.1,29.89,SSE,158,11.0,11.0,82,0.00,,---,0.00,VWS V14.00,2013-05-21 05:08:00,
2013-05-21 00:09:00,78.0,72.1,29.89,SSE,158,10.0,12.0,82,0.00,,---,0.00,VWS V14.00,2013-05-21 05:09:00,
2013-05-21 00:10:00,78.0,72.1,29.89,SSE,158,15.0,15.0,82,0.00,,---,0.00,VWS V14.00,2013-05-21 05:10:00,
2013-05-21 00:11:00,78.0,72.1,29.89,SSE,158,11.0,15.0,82,0.00,,---,0.00,VWS V14.00,2013-05-21 05:11:00,
2013-05-21 00:12:00,78.0,72.1,29.89,SSE,158,9.0,11.0,82,0.00,,---,0.00,VWS V14.00,2013-05-21 05:12:00,
2013-05-21 00:13:00,78.0,72.1,29.89,SE,135,10.0,15.0,82,0.00,,---,0.00,VWS V14.00,2013-05-21 05:13:00,
2013-05-21 00:14:00,78.0,72.1,29.88,SSE,158,11.0,13.0,82,0.00,,---,0.00,VWS V14.00,2013-05-21 05:14:00,
2013-05-21 00:15:00,78.0,72.1,29.89,SSE,158,8.0,9.0,82,0.00,,---,0.00,VWS V14.00,2013-05-21 05:15:00,
2013-05-21 00:16:00,78.0,72.1,29.89,SSE,158,12.0,14.0,82,0.00,,---,0.00,VWS V14.00,2013-05-21 05:16:00,
2013-05-21 00:17:00,78.0,72.1,29.89,SSE,158,11.0,14.0,82,0.00,,---,0.00,VWS V14.00,2013-05-21 05:17:00,
2013-05-21 00:18:00,78.0,72.1,29.89,SSE,158,11.0,13.0,82,0.00,,---,0.00,VWS V14.00,2013-05-21 05:18:00,
2013-05-21 00:19:00,78.0,72.1,29.89,SSE,158,10.0,13.0,82,0.00,,---,0.00,VWS V14.00,2013-05-21 05:19:00,
2013-05-21 00:20:00,78.0,72.1,29.89,SSE,158,12.0,14.0,82,0.00,,---,0.00,VWS V14.00,2013-05-21 05:20:00,
2013-05-21 00:21:00,78.0,72.1,29.89,SSE,158,9.0,14.0,82,0.00,,---,0.00,VWS V14.00,2013-05-21 05:21:00,
2013-05-21 00:22:00,78.0,72.1,29.89,SE,135,13.0,13.0,82,0.00,,---,0.00,VWS V14.00,2013-05-21 05:22:00,
2013-05-21 00:23:00,78.0,72.1,29.89,SSE,158,9.0,13.0,82,0.00,,---,0.00,VWS V14.00,2013-05-21 05:23:00,
2013-05-21 00:24:00,78.0,72.1,29.89,SSE,158,12.0,14.0,82,0.00,,---,0.00,VWS V14.00,2013-05-21 05:24:00,
2013-05-21 00:25:00,78.0,72.1,29.89,SSE,158,6.0,13.0,82,0.00,,---,0.00,VWS V14.00,2013-05-21 05:25:00,
2013-05-21 00:26:00,78.0,72.1,29.89,SSE,158,11.0,12.0,82,0.00,,---,0.00,VWS V14.00,2013-05-21 05:26:00,
2013-05-21 00:27:00,78.0,72.1,29.89,SE,135,12.0,12.0,82,0.00,,---,0.00,VWS V14.00,2013-05-21 05:27:00,
2013-05-21 00:28:00,78.0,72.1,29.89,SSE,158,13.0,14.0,82,0.00,,---,0.00,VWS V14.00,2013-05-21 05:28:00,
2013-05-21 00:29:00,78.0,72.1,29.89,SSE,158,13.0,14.0,82,0.00,,---,0.00,VWS V14.00,2013-05-21 05:29:00,
2013-05-21 00:30:00,78.0,72.1,29.89,SSE,158,11.0,13.0,82,0.00,,---,0.00,VWS V14.00,2013-05-21 05:30:00,
2013-05-21 00:31:00,78.0,72.1,29.89,SSE,158,11.0,14.0,82,0.00,,---,0.00,VWS V14.00,2013-05-21 05:31:00,
2013-05-21 00:32:00,78.0,72.1,29.89,SSE,158,10.0,13.0,82,0.00,,---,0.00,VWS V14.00,2013-05-21 05:32:00,
2013-05-21 00:33:00,78.0,72.1,29.89,SSE,158,8.0,14.0,82,0.00,,---,0.00,VWS V14.00,2013-05-21 05:33:00,
2013-05-21 00:34:00,78.0,72.1,29.89,SE,135,9.0,13.0,82,0.00,,---,0.00,VWS V14.00,2013-05-21 05:34:00,
2013-05-21 00:35:00,78.0,72.1,29.89,SSE,158,11.0,14.0,82,0.00,,---,0.00,VWS V14.00,2013-05-21 05:35:00,
2013-05-21 00:36:00,78.0,72.1,29.89,SSE,158,10.0,14.0,82,0.00,,---,0.00,VWS V14.00,2013-05-21 05:36:00,
2013-05-21 00:37:00,78.0,72.1,29.89,SSE,158,11.0,11.0,82,0.00,,---,0.00,VWS V14.00,2013-05-21 05:37:00,
2013-05-21 00:38:00,78.0,72.1,29.89,SSE,158,12.0,13.0,82,0.00,,---,0.00,VWS V14.00,2013-05-21 05:38:00,
2013-05-21 00:39:00,78.0,72.1,29.89,SE,135,10.0,16.0,82,0.00,,---,0.00,VWS V14.00,2013-05-21 05:39:00,
2013-05-21 00:40:00,78.0,72.1,29.88,SSE,158,9.0,11.0,82,0.00,,---,0.00,VWS V14.00,2013-05-21 05:40:00,
2013-05-21 00:41:00,78.0,72.1,29.88,SSE,158,13.0,16.0,82,0.00,,---,0.00,VWS V14.00,2013-05-21 05:41:00,
2013-05-21 00:42:00,78.0,72.1,29.88,SE,135,11.0,11.0,82,0.00,,---,0.00,VWS V14.00,2013-05-21 05:42:00,
2013-05-21 00:43:00,78.0,72.1,29.88,SSE,158,16.0,16.0,82,0.00,,---,0.00,VWS V14.00,2013-05-21 05:43:00,
2013-05-21 00:44:00,78.0,72.1,29.88,SE,135,11.0,17.0,82,0.00,,---,0.00,VWS V14.00,2013-05-21 05:44:00,
2013-05-21 00:45:00,78.0,72.1,29.88,SSE,158,11.0,16.0,82,0.00,,---,0.00,VWS V14.00,2013-05-21 05:45:00,
2013-05-21 00:46:00,78.0,72.1,29.88,SSE,158,12.0,14.0,82,0.00,,---,0.00,VWS V14.00,2013-05-21 05:46:00,
2013-05-21 00:47:00,78.0,72.1,29.88,SSE,158,10.0,11.0,82,0.00,,---,0.00,VWS V14.00,2013-05-21 05:47:00,
2013-05-21 00:48:00,78.0,72.1,29.88,SSE,158,11.0,11.0,82,0.00,,---,0.00,VWS V14.00,2013-05-21 05:48:00,
2013-05-21 00:49:00,78.0,72.1,29.88,SSE,158,13.0,16.0,82,0.00,,---,0.00,VWS V14.00,2013-05-21 05:49:00,
2013-05-21 00:50:00,78.0,72.1,29.88,SSE,158,11.0,13.0,82,0.00,,---,0.00,VWS V14.00,2013-05-21 05:50:00,
2013-05-21 00:51:00,78.0,72.1,29.88,SSE,158,11.0,16.0,82,0.00,,---,0.00,VWS V14.00,2013-05-21 05:51:00,
2013-05-21 00:52:00,78.0,72.1,29.88,SSE,158,12.0,13.0,82,0.00,,---,0.00,VWS V14.00,2013-05-21 05:52:00,
2013-05-21 00:53:00,78.0,72.1,29.88,South,180,10.0,10.0,82,0.00,,---,0.00,VWS V14.00,2013-05-21 05:53:00,
2013-05-21 00:54:00,78.0,72.1,29.88,SE,135,11.0,13.0,82,0.00,,---,0.00,VWS V14.00,2013-05-21 05:54:00,
2013-05-21 00:55:00,78.0,72.1,29.88,SSE,158,13.0,17.0,82,0.00,,---,0.00,VWS V14.00,2013-05-21 05:55:00,
2013-05-21 00:56:00,78.0,72.1,29.88,SSE,158,13.0,13.0,82,0.00,,---,0.00,VWS V14.00,2013-05-21 05:56:00,
2013-05-21 00:57:00,78.0,72.1,29.88,SSE,158,9.0,14.0,82,0.00,,---,0.00,VWS V14.00,2013-05-21 05:57:00,
2013-05-21 00:58:00,78.0,72.1,29.88,SSE,158,11.0,11.0,82,0.00,,---,0.00,VWS V14.00,2013-05-21 05:58:00,
2013-05-21 00:59:00,78.0,72.1,29.88,SSE,158,10.0,14.0,82,0.00,,---,0.00,VWS V14.00,2013-05-21 05:59:00,
2013-05-21 01:00:00,78.0,72.1,29.88,SSE,158,10.0,13.0,82,0.00,,---,0.00,VWS V14.00,2013-05-21 06:00:00,
2013-05-21 01:01:00,78.0,72.1,29.88,SSE,158,9.0,13.0,82,0.00,,---,0.00,VWS V14.00,2013-05-21 06:01:00,
2013-05-21 01:02:00,78.0,72.1,29.88,SSE,158,11.0,15.0,82,0.00,,---,0.00,VWS V14.00,2013-05-21 06:02:00,
2013-05-21 01:03:00,78.0,72.1,29.88,SSE,158,12.0,14.0,82,0.00,,---,0.00,VWS V14.00,2013-05-21 06:03:00,
2013-05-21 01:04:00,78.0,72.1,29.88,SSE,158,8.0,14.0,82,0.00,,---,0.00,VWS V14.00,2013-05-21 06:04:00,
2013-05-21 01:05:00,78.0,72.1,29.88,SSE,158,9.0,11.0,82,0.00,,---,0.00,VWS V14.00,2013-05-21 06:05:00,
2013-05-21 01:06:00,78.0,72.1,29.87,SSE,158,10.0,12.0,82,0.00,,---,0.00,VWS V14.00,2013-05-21 06:06:00,
2013-05-21 01:07:00,78.0,72.1,29.87,SSE,158,10.0,10.0,82,0.00,,---,0.00,VWS V14.00,2013-05-21 06:07:00,
2013-05-21 01:08:00,78.0,72.1,29.87,SSE,158,13.0,17.0,82,0.00,,---,0.00,VWS V14.00,2013-05-21 06:08:00,
2013-05-21 01:09:00,78.0,72.1,29.87,SSE,158,10.0,14.0,82,0.00,,---,0.00,VWS V14.00,2013-05-21 06:09:00,
2013-05-21 01:10:00,78.0,72.1,29.87,SSE,158,10.0,13.0,82,0.00,,---,0.00,VWS V14.00,2013-05-21 06:10:00,
2013-05-21 01:11:00,78.0,72.1,29.87,South,180,11.0,13.0,82,0.00,,---,0.00,VWS V14.00,2013-05-21 06:11:00,
2013-05-21 01:12:00,78.0,72.1,29.87,SSE,158,11.0,14.0,82,0.00,,---,0.00,VWS V14.00,2013-05-21 06:12:00,
2013-05-21 01:13:00,78.0,72.1,29.87,SSE,158,13.0,14.0,82,0.00,,---,0.00,VWS V14.00,2013-05-21 06:13:00,
2013-05-21 01:14:00,78.0,72.1,29.87,SSE,158,8.0,16.0,82,0.00,,---,0.00,VWS V14.00,2013-05-21 06:14:00,
2013-05-21 01:15:00,78.0,72.1,29.87,South,180,13.0,16.0,82,0.00,,---,0.00,VWS V14.00,2013-05-21 06:15:00,
2013-05-21 01:16:00,78.0,72.1,29.87,SE,135,10.0,14.0,82,0.00,,---,0.00,VWS V14.00,2013-05-21 06:16:00,
2013-05-21 01:17:00,78.0,72.1,29.87,South,180,13.0,17.0,82,0.00,,---,0.00,VWS V14.00,2013-05-21 06:17:00,
2013-05-21 01:18:00,78.0,72.1,29.87,SSE,158,8.0,10.0,82,0.00,,---,0.00,VWS V14.00,2013-05-21 06:18:00,
2013-05-21 01:19:00,78.0,72.1,29.87,South,180,8.0,11.0,82,0.00,,---,0.00,VWS V14.00,2013-05-21 06:19:00,
2013-05-21 01:20:00,78.0,72.1,29.87,SSE,158,11.0,14.0,82,0.00,,---,0.00,VWS V14.00,2013-05-21 06:20:00,
2013-05-21 01:21:00,78.0,72.1,29.87,South,180,17.0,17.0,82,0.00,,---,0.00,VWS V14.00,2013-05-21 06:21:00,
2013-05-21 01:22:00,78.0,72.1,29.87,SSE,158,14.0,15.0,82,0.00,,---,0.00,VWS V14.00,2013-05-21 06:22:00,
2013-05-21 01:23:00,78.0,72.1,29.87,South,180,11.0,15.0,82,0.00,,---,0.00,VWS V14.00,2013-05-21 06:23:00,
2013-05-21 01:24:00,78.0,72.1,29.87,SSE,158,16.0,16.0,82,0.00,,---,0.00,VWS V14.00,2013-05-21 06:24:00,
2013-05-21 01:25:00,78.0,72.1,29.87,SSE,158,12.0,18.0,82,0.00,,---,0.00,VWS V14.00,2013-05-21 06:25:00,
2013-05-21 01:26:00,78.0,72.1,29.86,SSE,158,10.0,16.0,82,0.00,,---,0.00,VWS V14.00,2013-05-21 06:26:00,
2013-05-21 01:27:00,78.0,72.1,29.86,SSE,158,11.0,13.0,82,0.00,,---,0.00,VWS V14.00,2013-05-21 06:27:00,
2013-05-21 01:28:00,78.0,72.1,29.86,SSE,158,10.0,10.0,82,0.00,,---,0.00,VWS V14.00,2013-05-21 06:28:00,
2013-05-21 01:29:00,78.0,72.1,29.86,SSE,158,13.0,16.0,82,0.00,,---,0.00,VWS V14.00,2013-05-21 06:29:00,
2013-05-21 01:30:00,78.0,72.1,29.86,SSE,158,13.0,19.0,82,0.00,,---,0.00,VWS V14.00,2013-05-21 06:30:00,
2013-05-21 01:31:00,78.0,72.1,29.86,SSE,158,16.0,16.0,82,0.00,,---,0.00,VWS V14.00,2013-05-21 06:31:00,
2013-05-21 01:32:00,78.0,72.1,29.86,SSE,158,17.0,18.0,82,0.00,,---,0.00,VWS V14.00,2013-05-21 06:32:00,
2013-05-21 01:33:00,78.0,71.7,29.86,SSE,158,13.0,18.0,81,0.00,,---,0.00,VWS V14.00,2013-05-21 06:33:00,
2013-05-21 01:34:00,78.0,71.7,29.86,SSE,158,16.0,22.0,81,0.00,,---,0.00,VWS V14.00,2013-05-21 06:34:00,
2013-05-21 01:35:00,78.0,71.7,29.86,SSE,158,11.0,16.0,81,0.00,,---,0.00,VWS V14.00,2013-05-21 06:35:00,
2013-05-21 01:36:00,78.0,71.7,29.86,South,180,14.0,15.0,81,0.00,,---,0.00,VWS V14.00,2013-05-21 06:36:00,
2013-05-21 01:37:00,78.0,71.7,29.86,South,180,10.0,14.0,81,0.00,,---,0.00,VWS V14.00,2013-05-21 06:37:00,
2013-05-21 01:38:00,78.0,72.1,29.86,SSE,158,11.0,14.0,82,0.00,,---,0.00,VWS V14.00,2013-05-21 06:38:00,
2013-05-21 01:39:00,78.0,72.1,29.86,SSE,158,11.0,18.0,82,0.00,,---,0.00,VWS V14.00,2013-05-21 06:39:00,
2013-05-21 01:40:00,78.0,71.7,29.85,SSE,158,10.0,20.0,81,0.00,,---,0.00,VWS V14.00,2013-05-21 06:40:00,
2013-05-21 01:41:00,78.0,71.7,29.85,SSE,158,16.0,17.0,81,0.00,,---,0.00,VWS V14.00,2013-05-21 06:41:00,
2013-05-21 01:42:00,78.0,72.1,29.85,SSE,158,11.0,17.0,82,0.00,,---,0.00,VWS V14.00,2013-05-21 06:42:00,
2013-05-21 01:43:00,78.0,72.1,29.85,SSE,158,12.0,12.0,82,0.00,,---,0.00,VWS V14.00,2013-05-21 06:43:00,
2013-05-21 01:44:00,78.0,72.1,29.85,South,180,13.0,18.0,82,0.00,,---,0.00,VWS V14.00,2013-05-21 06:44:00,
2013-05-21 01:45:00,78.0,72.1,29.85,SSE,158,12.0,18.0,82,0.00,,---,0.00,VWS V14.00,2013-05-21 06:45:00,
2013-05-21 01:46:00,78.0,72.1,29.85,SE,135,17.0,19.0,82,0.00,,---,0.00,VWS V14.00,2013-05-21 06:46:00,
2013-05-21 01:47:00,78.0,72.1,29.85,SSE,158,13.0,19.0,82,0.00,,---,0.00,VWS V14.00,2013-05-21 06:47:00,
2013-05-21 01:48:00,78.0,72.1,29.85,SSE,158,11.0,19.0,82,0.00,,---,0.00,VWS V14.00,2013-05-21 06:48:00,
2013-05-21 01:49:00,78.0,71.7,29.85,SSE,158,14.0,14.0,81,0.00,,---,0.00,VWS V14.00,2013-05-21 06:49:00,
2013-05-21 01:50:00,78.0,71.7,29.85,SSE,158,15.0,17.0,81,0.00,,---,0.00,VWS V14.00,2013-05-21 06:50:00,
2013-05-21 01:51:00,78.0,71.7,29.84,SSE,158,12.0,21.0,81,0.00,,---,0.00,VWS V14.00,2013-05-21 06:51:00,
2013-05-21 01:52:00,78.0,72.1,29.84,SSE,158,16.0,20.0,82,0.00,,---,0.00,VWS V14.00,2013-05-21 06:52:00,
2013-05-21 01:53:00,78.0,71.7,29.84,SSE,158,17.0,20.0,81,0.00,,---,0.00,VWS V14.00,2013-05-21 06:53:00,
2013-05-21 01:54:00,78.0,71.7,29.84,South,180,14.0,19.0,81,0.00,,---,0.00,VWS V14.00,2013-05-21 06:54:00,
2013-05-21 01:55:00,78.0,71.7,29.84,SSE,158,11.0,18.0,81,0.00,,---,0.00,VWS V14.00,2013-05-21 06:55:00,
2013-05-21 01:56:00,78.0,72.1,29.84,SSE,158,11.0,16.0,82,0.00,,---,0.00,VWS V14.00,2013-05-21 06:56:00,
2013-05-21 01:57:00,78.0,72.1,29.84,SSE,158,14.0,17.0,82,0.00,,---,0.00,VWS V14.00,2013-05-21 06:57:00,
2013-05-21 01:58:00,78.0,72.1,29.84,SSE,158,15.0,18.0,82,0.00,,---,0.00,VWS V14.00,2013-05-21 06:58:00,
2013-05-21 01:59:00,78.0,72.1,29.84,South,180,11.0,21.0,82,0.00,,---,0.00,VWS V14.00,2013-05-21 06:59:00,
2013-05-21 02:00:00,78.0,72.1,29.84,SSE,158,13.0,16.0,82,0.00,,---,0.00,VWS V14.00,2013-05-21 07:00:00,
2013-05-21 02:01:00,78.0,72.1,29.84,SE,135,12.0,12.0,82,0.00,,---,0.00,VWS V14.00,2013-05-21 07:01:00,
2013-05-21 02:02:00,78.0,72.1,29.84,SSE,158,16.0,19.0,82,0.00,,---,0.00,VWS V14.00,2013-05-21 07:02:00,
2013-05-21 02:03:00,78.0,72.1,29.84,SSE,158,11.0,17.0,82,0.00,,---,0.00,VWS V14.00,2013-05-21 07:03:00,
2013-05-21 02:04:00,78.0,72.1,29.83,SSE,158,13.0,20.0,82,0.00,,---,0.00,VWS V14.00,2013-05-21 07:04:00,
2013-05-21 02:05:00,78.0,72.1,29.83,SE,135,11.0,16.0,82,0.00,,---,0.00,VWS V14.00,2013-05-21 07:05:00,
2013-05-21 02:06:00,78.0,72.1,29.83,SSE,158,14.0,18.0,82,0.00,,---,0.00,VWS V14.00,2013-05-21 07:06:00,
2013-05-21 02:07:00,78.0,72.1,29.84,SE,135,14.0,16.0,82,0.00,,---,0.00,VWS V14.00,2013-05-21 07:07:00,
2013-05-21 02:08:00,78.0,72.1,29.84,SSE,158,13.0,17.0,82,0.00,,---,0.00,VWS V14.00,2013-05-21 07:08:00,
2013-05-21 02:09:00,78.0,72.1,29.84,SE,135,13.0,15.0,82,0.00,,---,0.00,VWS V14.00,2013-05-21 07:09:00,
2013-05-21 02:10:00,78.0,72.1,29.84,SSE,158,10.0,16.0,82,0.00,,---,0.00,VWS V14.00,2013-05-21 07:10:00,
2013-05-21 02:11:00,78.0,72.1,29.84,SSE,158,12.0,12.0,82,0.00,,---,0.00,VWS V14.00,2013-05-21 07:11:00,
2013-05-21 02:12:00,78.0,72.1,29.84,SSE,158,8.0,18.0,82,0.00,,---,0.00,VWS V14.00,2013-05-21 07:12:00,
2013-05-21 02:13:00,78.0,71.7,29.84,SSE,158,16.0,20.0,81,0.00,,---,0.00,VWS V14.00,2013-05-21 07:13:00,
2013-05-21 02:14:00,78.0,71.7,29.84,SSE,158,15.0,21.0,81,0.00,,---,0.00,VWS V14.00,2013-05-21 07:14:00,
2013-05-21 02:15:00,78.0,71.7,29.84,SSE,158,10.0,15.0,81,0.00,,---,0.00,VWS V14.00,2013-05-21 07:15:00,
2013-05-21 02:16:00,78.0,71.7,29.84,SSE,158,14.0,14.0,81,0.00,,---,0.00,VWS V14.00,2013-05-21 07:16:00,
2013-05-21 02:17:00,78.0,71.7,29.84,SSE,158,11.0,16.0,81,0.00,,---,0.00,VWS V14.00,2013-05-21 07:17:00,
2013-05-21 02:18:00,78.0,71.7,29.84,SSE,158,12.0,16.0,81,0.00,,---,0.00,VWS V14.00,2013-05-21 07:18:00,
2013-05-21 02:19:00,78.0,71.7,29.84,SSE,158,11.0,14.0,81,0.00,,---,0.00,VWS V14.00,2013-05-21 07:19:00,
2013-05-21 02:20:00,78.0,71.7,29.85,South,180,14.0,16.0,81,0.00,,---,0.00,VWS V14.00,2013-05-21 07:20:00,
2013-05-21 02:21:00,78.0,71.7,29.86,South,180,10.0,18.0,81,0.00,,---,0.00,VWS V14.00,2013-05-21 07:21:00,
2013-05-21 02:22:00,78.0,71.7,29.88,West,270,14.0,14.0,81,0.00,,---,0.00,VWS V14.00,2013-05-21 07:22:00,
2013-05-21 02:23:00,78.0,71.7,29.90,West,270,22.0,24.0,81,0.00,,---,0.00,VWS V14.00,2013-05-21 07:23:00,
2013-05-21 02:24:00,76.0,67.5,29.89,West,270,31.0,32.0,75,0.00,,---,0.00,VWS V14.00,2013-05-21 07:24:00,
2013-05-21 02:25:00,75.0,65.4,29.90,WNW,292,26.0,37.0,72,0.00,,---,0.00,VWS V14.00,2013-05-21 07:25:00,
2013-05-21 02:26:00,73.0,63.8,29.90,WNW,292,26.0,33.0,73,0.00,,---,0.00,VWS V14.00,2013-05-21 07:26:00,
2013-05-21 02:27:00,72.0,64.0,29.90,WSW,248,27.0,27.0,76,0.00,,---,0.00,VWS V14.00,2013-05-21 07:27:00,
2013-05-21 02:28:00,71.0,64.5,29.90,West,270,22.0,34.0,80,0.01,,---,0.01,VWS V14.00,2013-05-21 07:28:00,
2013-05-21 02:29:00,70.0,64.6,29.91,West,270,18.0,30.0,83,0.01,,---,0.01,VWS V14.00,2013-05-21 07:29:00,
2013-05-21 02:30:00,69.0,64.3,29.91,WNW,292,21.0,22.0,85,0.02,,---,0.02,VWS V14.00,2013-05-21 07:30:00,
2013-05-21 02:31:00,69.0,65.0,29.92,WSW,248,11.0,22.0,87,0.02,,---,0.02,VWS V14.00,2013-05-21 07:31:00,
2013-05-21 02:32:00,69.0,65.3,29.91,West,270,16.0,23.0,88,0.02,,---,0.02,VWS V14.00,2013-05-21 07:32:00,
2013-05-21 02:33:00,69.0,65.6,29.91,West,270,18.0,21.0,89,0.03,,---,0.03,VWS V14.00,2013-05-21 07:33:00,
2013-05-21 02:34:00,68.0,65.0,29.92,West,270,21.0,29.0,90,0.04,,---,0.04,VWS V14.00,2013-05-21 07:34:00,
2013-05-21 02:35:00,68.0,65.3,29.92,West,270,18.0,28.0,91,0.05,,---,0.05,VWS V14.00,2013-05-21 07:35:00,
2013-05-21 02:36:00,68.0,65.6,29.93,West,270,17.0,23.0,92,0.05,,---,0.05,VWS V14.00,2013-05-21 07:36:00,
2013-05-21 02:37:00,68.0,65.6,29.93,WSW,248,19.0,29.0,92,0.05,,---,0.05,VWS V14.00,2013-05-21 07:37:00,
2013-05-21 02:38:00,68.0,65.9,29.94,West,270,21.0,29.0,93,0.05,,---,0.05,VWS V14.00,2013-05-21 07:38:00,
2013-05-21 02:39:00,68.0,65.9,29.94,West,270,20.0,24.0,93,0.05,,---,0.05,VWS V14.00,2013-05-21 07:39:00,
2013-05-21 02:40:00,68.0,66.2,29.94,WSW,248,20.0,23.0,94,0.05,,---,0.05,VWS V14.00,2013-05-21 07:40:00,
2013-05-21 02:41:00,67.0,65.2,29.95,WSW,248,17.0,20.0,94,0.06,,---,0.06,VWS V14.00,2013-05-21 07:41:00,
2013-05-21 02:42:00,67.0,65.5,29.95,WSW,248,12.0,17.0,95,0.06,,---,0.06,VWS V14.00,2013-05-21 07:42:00,
2013-05-21 02:43:00,67.0,65.5,29.94,SW,225,20.0,24.0,95,0.06,,---,0.06,VWS V14.00,2013-05-21 07:43:00,
2013-05-21 02:44:00,67.0,65.5,29.94,WSW,248,16.0,23.0,95,0.06,,---,0.06,VWS V14.00,2013-05-21 07:44:00,
2013-05-21 02:45:00,67.0,65.5,29.94,West,270,21.0,21.0,95,0.06,,---,0.06,VWS V14.00,2013-05-21 07:45:00,
2013-05-21 02:46:00,67.0,65.5,29.94,WSW,248,13.0,21.0,95,0.06,,---,0.06,VWS V14.00,2013-05-21 07:46:00,
2013-05-21 02:47:00,67.0,65.5,29.93,West,270,11.0,14.0,95,0.06,,---,0.06,VWS V14.00,2013-05-21 07:47:00,
2013-05-21 02:48:00,67.0,65.5,29.92,WNW,292,14.0,19.0,95,0.06,,---,0.06,VWS V14.00,2013-05-21 07:48:00,
2013-05-21 02:49:00,67.0,65.5,29.92,WSW,248,11.0,17.0,95,0.06,,---,0.06,VWS V14.00,2013-05-21 07:49:00,
2013-05-21 02:50:00,67.0,65.5,29.92,West,270,12.0,16.0,95,0.06,,---,0.06,VWS V14.00,2013-05-21 07:50:00,
2013-05-21 02:51:00,67.0,65.5,29.92,West,270,14.0,15.0,95,0.06,,---,0.06,VWS V14.00,2013-05-21 07:51:00,
2013-05-21 02:52:00,67.0,65.5,29.92,West,270,11.0,11.0,95,0.06,,---,0.06,VWS V14.00,2013-05-21 07:52:00,
2013-05-21 02:53:00,67.0,65.5,29.92,West,270,12.0,17.0,95,0.06,,---,0.06,VWS V14.00,2013-05-21 07:53:00,
2013-05-21 02:54:00,67.0,65.5,29.92,WNW,292,12.0,15.0,95,0.06,,---,0.06,VWS V14.00,2013-05-21 07:54:00,
2013-05-21 02:55:00,67.0,65.5,29.92,West,270,12.0,16.0,95,0.06,,---,0.06,VWS V14.00,2013-05-21 07:55:00,
2013-05-21 02:56:00,67.0,65.5,29.92,West,270,12.0,12.0,95,0.06,,---,0.06,VWS V14.00,2013-05-21 07:56:00,
2013-05-21 02:57:00,67.0,65.5,29.93,West,270,10.0,14.0,95,0.06,,---,0.06,VWS V14.00,2013-05-21 07:57:00,
2013-05-21 02:58:00,67.0,65.5,29.93,West,270,11.0,11.0,95,0.06,,---,0.06,VWS V14.00,2013-05-21 07:58:00,
2013-05-21 02:59:00,67.0,65.5,29.93,WNW,292,9.0,12.0,95,0.06,,---,0.06,VWS V14.00,2013-05-21 07:59:00,
2013-05-21 03:00:00,67.0,65.5,29.93,WSW,248,11.0,13.0,95,0.06,,---,0.06,VWS V14.00,2013-05-21 08:00:00,
2013-05-21 03:01:00,67.0,65.5,29.93,WNW,292,11.0,15.0,95,0.06,,---,0.06,VWS V14.00,2013-05-21 08:01:00,
2013-05-21 03:02:00,67.0,65.5,29.93,West,270,9.0,13.0,95,0.06,,---,0.06,VWS V14.00,2013-05-21 08:02:00,
2013-05-21 03:03:00,67.0,65.5,29.93,WNW,292,7.0,12.0,95,0.06,,---,0.06,VWS V14.00,2013-05-21 08:03:00,
2013-05-21 03:04:00,67.0,65.5,29.93,West,270,8.0,11.0,95,0.06,,---,0.06,VWS V14.00,2013-05-21 08:04:00,
2013-05-21 03:05:00,67.0,65.5,29.93,WNW,292,11.0,11.0,95,0.06,,---,0.06,VWS V14.00,2013-05-21 08:05:00,
2013-05-21 03:06:00,67.0,65.5,29.93,West,270,8.0,11.0,95,0.06,,---,0.06,VWS V14.00,2013-05-21 08:06:00,
2013-05-21 03:07:00,67.0,65.5,29.93,WNW,292,8.0,8.0,95,0.06,,---,0.06,VWS V14.00,2013-05-21 08:07:00,
2013-05-21 03:08:00,67.0,65.5,29.93,West,270,8.0,11.0,95,0.06,,---,0.06,VWS V14.00,2013-05-21 08:08:00,
2013-05-21 03:09:00,67.0,65.5,29.93,WNW,292,8.0,9.0,95,0.06,,---,0.06,VWS V14.00,2013-05-21 08:09:00,
2013-05-21 03:10:00,67.0,65.5,29.92,WNW,292,7.0,9.0,95,0.06,,---,0.06,VWS V14.00,2013-05-21 08:10:00,
2013-05-21 03:11:00,67.0,65.8,29.93,WNW,292,7.0,8.0,96,0.06,,---,0.06,VWS V14.00,2013-05-21 08:11:00,
2013-05-21 03:12:00,67.0,65.8,29.93,West,270,7.0,7.0,96,0.06,,---,0.06,VWS V14.00,2013-05-21 08:12:00,
2013-05-21 03:13:00,67.0,65.8,29.93,West,270,6.0,8.0,96,0.06,,---,0.06,VWS V14.00,2013-05-21 08:13:00,
2013-05-21 03:14:00,67.0,65.8,29.93,West,270,7.0,10.0,96,0.06,,---,0.06,VWS V14.00,2013-05-21 08:14:00,
2013-05-21 03:15:00,67.0,65.8,29.92,WSW,248,7.0,8.0,96,0.06,,---,0.06,VWS V14.00,2013-05-21 08:15:00,
2013-05-21 03:16:00,67.0,65.8,29.92,West,270,8.0,10.0,96,0.06,,---,0.06,VWS V14.00,2013-05-21 08:16:00,
2013-05-21 03:17:00,67.0,65.8,29.92,WNW,292,6.0,9.0,96,0.06,,---,0.06,VWS V14.00,2013-05-21 08:17:00,
2013-05-21 03:18:00,67.0,65.8,29.92,West,270,5.0,8.0,96,0.06,,---,0.06,VWS V14.00,2013-05-21 08:18:00,
2013-05-21 03:19:00,67.0,65.8,29.92,West,270,5.0,6.0,96,0.06,,---,0.06,VWS V14.00,2013-05-21 08:19:00,
2013-05-21 03:20:00,67.0,65.8,29.92,WNW,292,6.0,6.0,96,0.06,,---,0.06,VWS V14.00,2013-05-21 08:20:00,
2013-05-21 03:21:00,67.0,65.8,29.91,WNW,292,4.0,6.0,96,0.06,,---,0.06,VWS V14.00,2013-05-21 08:21:00,
2013-05-21 03:22:00,67.0,65.8,29.91,WNW,292,3.0,3.0,96,0.06,,---,0.06,VWS V14.00,2013-05-21 08:22:00,
2013-05-21 03:23:00,67.0,65.8,29.91,WNW,292,3.0,4.0,96,0.07,,---,0.07,VWS V14.00,2013-05-21 08:23:00,
2013-05-21 03:24:00,67.0,65.8,29.91,NW,315,3.0,5.0,96,0.07,,---,0.07,VWS V14.00,2013-05-21 08:24:00,
2013-05-21 03:25:00,67.0,65.8,29.90,NW,315,3.0,4.0,96,0.07,,---,0.07,VWS V14.00,2013-05-21 08:25:00,
2013-05-21 03:26:00,67.0,65.8,29.90,North,0,2.0,3.0,96,0.07,,---,0.07,VWS V14.00,2013-05-21 08:26:00,
2013-05-21 03:27:00,67.0,65.8,29.90,North,0,1.0,3.0,96,0.07,,---,0.07,VWS V14.00,2013-05-21 08:27:00,
2013-05-21 03:28:00,67.0,65.8,29.91,North,0,1.0,2.0,96,0.06,,---,0.07,VWS V14.00,2013-05-21 08:28:00,
2013-05-21 03:29:00,67.0,65.8,29.91,North,0,3.0,3.0,96,0.06,,---,0.07,VWS V14.00,2013-05-21 08:29:00,
2013-05-21 03:30:00,67.0,65.8,29.91,North,0,3.0,3.0,96,0.06,,---,0.07,VWS V14.00,2013-05-21 08:30:00,
2013-05-21 03:31:00,67.0,65.8,29.91,North,0,4.0,4.0,96,0.05,,---,0.07,VWS V14.00,2013-05-21 08:31:00,
2013-05-21 03:32:00,67.0,65.8,29.91,North,0,3.0,3.0,96,0.05,,---,0.07,VWS V14.00,2013-05-21 08:32:00,
2013-05-21 03:33:00,67.0,65.8,29.91,North,0,3.0,4.0,96,0.05,,---,0.07,VWS V14.00,2013-05-21 08:33:00,
2013-05-21 03:34:00,67.0,65.8,29.92,North,0,3.0,4.0,96,0.04,,---,0.07,VWS V14.00,2013-05-21 08:34:00,
2013-05-21 03:35:00,67.0,65.8,29.92,SSW,202,4.0,5.0,96,0.03,,---,0.07,VWS V14.00,2013-05-21 08:35:00,
2013-05-21 03:36:00,67.0,65.8,29.92,SSW,202,4.0,5.0,96,0.03,,---,0.08,VWS V14.00,2013-05-21 08:36:00,
2013-05-21 03:37:00,67.0,65.8,29.91,WSW,248,4.0,4.0,96,0.03,,---,0.08,VWS V14.00,2013-05-21 08:37:00,
2013-05-21 03:38:00,67.0,65.8,29.91,SW,225,3.0,4.0,96,0.03,,---,0.08,VWS V14.00,2013-05-21 08:38:00,
2013-05-21 03:39:00,67.0,66.1,29.91,SW,225,3.0,3.0,97,0.03,,---,0.08,VWS V14.00,2013-05-21 08:39:00,
2013-05-21 03:40:00,67.0,66.1,29.91,SW,225,2.0,3.0,97,0.03,,---,0.08,VWS V14.00,2013-05-21 08:40:00,
2013-05-21 03:41:00,67.0,66.1,29.90,WSW,248,1.0,2.0,97,0.04,,---,0.09,VWS V14.00,2013-05-21 08:41:00,
2013-05-21 03:42:00,67.0,66.1,29.90,WSW,248,1.0,1.0,97,0.03,,---,0.09,VWS V14.00,2013-05-21 08:42:00,
2013-05-21 03:43:00,67.0,66.1,29.90,WSW,248,2.0,3.0,97,0.03,,---,0.09,VWS V14.00,2013-05-21 08:43:00,
2013-05-21 03:44:00,67.0,66.1,29.90,WSW,248,3.0,3.0,97,0.03,,---,0.09,VWS V14.00,2013-05-21 08:44:00,
2013-05-21 03:45:00,67.0,66.1,29.90,WSW,248,3.0,3.0,97,0.03,,---,0.09,VWS V14.00,2013-05-21 08:45:00,
2013-05-21 03:46:00,67.0,66.1,29.90,WSW,248,3.0,3.0,97,0.03,,---,0.09,VWS V14.00,2013-05-21 08:46:00,
2013-05-21 03:47:00,67.0,66.1,29.90,WSW,248,2.0,3.0,97,0.03,,---,0.09,VWS V14.00,2013-05-21 08:47:00,
2013-05-21 03:48:00,67.0,66.1,29.90,SW,225,2.0,3.0,97,0.03,,---,0.09,VWS V14.00,2013-05-21 08:48:00,
2013-05-21 03:49:00,67.0,66.1,29.90,SSW,202,4.0,5.0,97,0.04,,---,0.10,VWS V14.00,2013-05-21 08:49:00,
2013-05-21 03:50:00,67.0,66.1,29.90,SE,135,3.0,5.0,97,0.04,,---,0.10,VWS V14.00,2013-05-21 08:50:00,
2013-05-21 03:51:00,66.0,65.1,29.90,SE,135,4.0,4.0,97,0.04,,---,0.10,VWS V14.00,2013-05-21 08:51:00,
2013-05-21 03:52:00,66.0,65.1,29.90,SE,135,3.0,5.0,97,0.04,,---,0.10,VWS V14.00,2013-05-21 08:52:00,
2013-05-21 03:53:00,66.0,65.1,29.89,SSE,158,3.0,4.0,97,0.05,,---,0.11,VWS V14.00,2013-05-21 08:53:00,
2013-05-21 03:54:00,66.0,65.1,29.89,SE,135,6.0,6.0,97,0.05,,---,0.11,VWS V14.00,2013-05-21 08:54:00,
2013-05-21 03:55:00,66.0,65.1,29.89,SE,135,8.0,8.0,97,0.05,,---,0.11,VWS V14.00,2013-05-21 08:55:00,
2013-05-21 03:56:00,66.0,65.1,29.89,SE,135,8.0,9.0,97,0.06,,---,0.12,VWS V14.00,2013-05-21 08:56:00,
2013-05-21 03:57:00,66.0,65.1,29.89,SSE,158,8.0,9.0,97,0.06,,---,0.12,VWS V14.00,2013-05-21 08:57:00,
2013-05-21 03:58:00,66.0,65.1,29.89,SE,135,9.0,10.0,97,0.06,,---,0.12,VWS V14.00,2013-05-21 08:58:00,
2013-05-21 03:59:00,66.0,65.4,29.89,SE,135,8.0,9.0,98,0.07,,---,0.13,VWS V14.00,2013-05-21 08:59:00,
2013-05-21 04:00:00,66.0,65.4,29.89,SE,135,8.0,10.0,98,0.07,,---,0.13,VWS V14.00,2013-05-21 09:00:00,
2013-05-21 04:01:00,66.0,65.4,29.88,SE,135,8.0,10.0,98,0.07,,---,0.13,VWS V14.00,2013-05-21 09:01:00,
2013-05-21 04:02:00,66.0,65.4,29.88,SE,135,6.0,10.0,98,0.07,,---,0.13,VWS V14.00,2013-05-21 09:02:00,
2013-05-21 04:03:00,66.0,65.4,29.88,SE,135,6.0,8.0,98,0.07,,---,0.13,VWS V14.00,2013-05-21 09:03:00,
2013-05-21 04:04:00,66.0,65.4,29.88,ESE,112,6.0,8.0,98,0.07,,---,0.13,VWS V14.00,2013-05-21 09:04:00,
2013-05-21 04:05:00,66.0,65.4,29.88,SSE,158,4.0,7.0,98,0.07,,---,0.13,VWS V14.00,2013-05-21 09:05:00,
2013-05-21 04:06:00,66.0,65.4,29.87,ESE,112,6.0,6.0,98,0.08,,---,0.14,VWS V14.00,2013-05-21 09:06:00,
2013-05-21 04:07:00,66.0,65.4,29.88,ESE,112,6.0,8.0,98,0.08,,---,0.14,VWS V14.00,2013-05-21 09:07:00,
2013-05-21 04:08:00,66.0,65.4,29.88,ESE,112,5.0,6.0,98,0.08,,---,0.14,VWS V14.00,2013-05-21 09:08:00,
2013-05-21 04:09:00,66.0,65.4,29.88,SE,135,3.0,7.0,98,0.08,,---,0.14,VWS V14.00,2013-05-21 09:09:00,
2013-05-21 04:10:00,66.0,65.4,29.87,East,90,3.0,7.0,98,0.08,,---,0.14,VWS V14.00,2013-05-21 09:10:00,
2013-05-21 04:11:00,66.0,65.4,29.87,ESE,112,6.0,8.0,98,0.08,,---,0.14,VWS V14.00,2013-05-21 09:11:00,
2013-05-21 04:12:00,66.0,65.4,29.87,East,90,6.0,9.0,98,0.08,,---,0.14,VWS V14.00,2013-05-21 09:12:00,
2013-05-21 04:13:00,66.0,65.4,29.87,ESE,112,7.0,10.0,98,0.08,,---,0.14,VWS V14.00,2013-05-21 09:13:00,
2013-05-21 04:14:00,66.0,65.4,29.87,SE,135,7.0,10.0,98,0.08,,---,0.14,VWS V14.00,2013-05-21 09:14:00,
2013-05-21 04:15:00,66.0,65.4,29.87,ESE,112,6.0,9.0,98,0.08,,---,0.14,VWS V14.00,2013-05-21 09:15:00,
2013-05-21 04:16:00,66.0,65.4,29.86,SE,135,6.0,6.0,98,0.08,,---,0.14,VWS V14.00,2013-05-21 09:16:00,
2013-05-21 04:17:00,66.0,65.4,29.86,East,90,5.0,8.0,98,0.08,,---,0.14,VWS V14.00,2013-05-21 09:17:00,
2013-05-21 04:18:00,66.0,65.4,29.85,East,90,8.0,11.0,98,0.08,,---,0.14,VWS V14.00,2013-05-21 09:18:00,
2013-05-21 04:19:00,66.0,65.4,29.85,East,90,8.0,10.0,98,0.08,,---,0.14,VWS V14.00,2013-05-21 09:19:00,
2013-05-21 04:20:00,66.0,65.4,29.85,ESE,112,9.0,11.0,98,0.09,,---,0.15,VWS V14.00,2013-05-21 09:20:00,
2013-05-21 04:21:00,66.0,65.7,29.85,ESE,112,7.0,10.0,99,0.09,,---,0.15,VWS V14.00,2013-05-21 09:21:00,
2013-05-21 04:22:00,66.0,65.7,29.85,East,90,6.0,10.0,99,0.09,,---,0.15,VWS V14.00,2013-05-21 09:22:00,
2013-05-21 04:23:00,66.0,65.7,29.86,ESE,112,4.0,7.0,99,0.09,,---,0.15,VWS V14.00,2013-05-21 09:23:00,
2013-05-21 04:24:00,66.0,65.7,29.86,ESE,112,6.0,8.0,99,0.08,,---,0.15,VWS V14.00,2013-05-21 09:24:00,
2013-05-21 04:25:00,66.0,65.7,29.86,East,90,7.0,8.0,99,0.08,,---,0.15,VWS V14.00,2013-05-21 09:25:00,
2013-05-21 04:26:00,66.0,65.7,29.86,ESE,112,2.0,7.0,99,0.08,,---,0.15,VWS V14.00,2013-05-21 09:26:00,
2013-05-21 04:27:00,66.0,65.7,29.86,SE,135,3.0,5.0,99,0.08,,---,0.15,VWS V14.00,2013-05-21 09:27:00,
2013-05-21 04:28:00,66.0,65.7,29.86,ESE,112,1.0,3.0,99,0.08,,---,0.15,VWS V14.00,2013-05-21 09:28:00,
2013-05-21 04:29:00,66.0,65.7,29.86,SSE,158,2.0,3.0,99,0.08,,---,0.15,VWS V14.00,2013-05-21 09:29:00,
2013-05-21 04:30:00,66.0,65.7,29.86,SSE,158,1.0,3.0,99,0.08,,---,0.15,VWS V14.00,2013-05-21 09:30:00,
2013-05-21 04:31:00,66.0,65.7,29.86,WSW,248,0.0,1.0,99,0.08,,---,0.15,VWS V14.00,2013-05-21 09:31:00,
2013-05-21 04:32:00,66.0,65.7,29.86,NW,315,2.0,2.0,99,0.08,,---,0.15,VWS V14.00,2013-05-21 09:32:00,
2013-05-21 04:33:00,66.0,65.7,29.86,NW,315,1.0,3.0,99,0.08,,---,0.15,VWS V14.00,2013-05-21 09:33:00,
2013-05-21 04:34:00,66.0,65.7,29.85,WNW,292,1.0,2.0,99,0.08,,---,0.15,VWS V14.00,2013-05-21 09:34:00,
2013-05-21 04:35:00,66.0,65.7,29.86,West,270,1.0,2.0,99,0.08,,---,0.15,VWS V14.00,2013-05-21 09:35:00,
2013-05-21 04:36:00,66.0,65.7,29.86,WNW,292,3.0,3.0,99,0.08,,---,0.15,VWS V14.00,2013-05-21 09:36:00,
2013-05-21 04:37:00,66.0,65.7,29.86,WNW,292,3.0,3.0,99,0.07,,---,0.15,VWS V14.00,2013-05-21 09:37:00,
2013-05-21 04:38:00,66.0,65.7,29.86,WNW,292,2.0,4.0,99,0.07,,---,0.15,VWS V14.00,2013-05-21 09:38:00,
2013-05-21 04:39:00,66.0,65.7,29.87,WNW,292,3.0,3.0,99,0.07,,---,0.15,VWS V14.00,2013-05-21 09:39:00,
2013-05-21 04:40:00,66.0,65.7,29.87,West,270,2.0,3.0,99,0.07,,---,0.15,VWS V14.00,2013-05-21 09:40:00,
2013-05-21 04:41:00,66.0,65.7,29.87,SW,225,2.0,2.0,99,0.07,,---,0.15,VWS V14.00,2013-05-21 09:41:00,
2013-05-21 04:42:00,66.0,65.7,29.87,SSW,202,3.0,3.0,99,0.06,,---,0.15,VWS V14.00,2013-05-21 09:42:00,
2013-05-21 04:43:00,66.0,65.7,29.87,SSW,202,4.0,5.0,99,0.06,,---,0.15,VWS V14.00,2013-05-21 09:43:00,
2013-05-21 04:44:00,66.0,65.7,29.88,South,180,6.0,6.0,99,0.06,,---,0.15,VWS V14.00,2013-05-21 09:44:00,
2013-05-21 04:45:00,66.0,66.0,29.88,South,180,7.0,7.0,100,0.06,,---,0.15,VWS V14.00,2013-05-21 09:45:00,
2013-05-21 04:46:00,66.0,66.0,29.88,South,180,8.0,9.0,100,0.06,,---,0.15,VWS V14.00,2013-05-21 09:46:00,
2013-05-21 04:47:00,66.0,66.0,29.88,SSE,158,9.0,10.0,100,0.06,,---,0.15,VWS V14.00,2013-05-21 09:47:00,
2013-05-21 04:48:00,66.0,66.0,29.89,SSE,158,10.0,10.0,100,0.06,,---,0.15,VWS V14.00,2013-05-21 09:48:00,
2013-05-21 04:49:00,66.0,66.0,29.89,SSE,158,10.0,10.0,100,0.06,,---,0.15,VWS V14.00,2013-05-21 09:49:00,
2013-05-21 04:50:00,66.0,66.0,29.88,SSE,158,6.0,10.0,100,0.05,,---,0.15,VWS V14.00,2013-05-21 09:50:00,
2013-05-21 04:51:00,66.0,66.0,29.88,SE,135,8.0,10.0,100,0.05,,---,0.15,VWS V14.00,2013-05-21 09:51:00,
2013-05-21 04:52:00,66.0,66.0,29.88,SSE,158,9.0,10.0,100,0.05,,---,0.15,VWS V14.00,2013-05-21 09:52:00,
2013-05-21 04:53:00,66.0,66.0,29.88,SSE,158,12.0,12.0,100,0.05,,---,0.15,VWS V14.00,2013-05-21 09:53:00,
2013-05-21 04:54:00,66.0,66.0,29.89,SE,135,11.0,13.0,100,0.04,,---,0.15,VWS V14.00,2013-05-21 09:54:00,
2013-05-21 04:55:00,66.0,66.0,29.89,SSE,158,12.0,14.0,100,0.04,,---,0.15,VWS V14.00,2013-05-21 09:55:00,
2013-05-21 04:56:00,66.0,66.0,29.90,SE,135,14.0,17.0,100,0.04,,---,0.15,VWS V14.00,2013-05-21 09:56:00,
2013-05-21 04:57:00,66.0,66.0,29.90,SE,135,13.0,18.0,100,0.03,,---,0.15,VWS V14.00,2013-05-21 09:57:00,
2013-05-21 04:58:00,66.0,66.0,29.90,SSE,158,14.0,19.0,100,0.03,,---,0.15,VWS V14.00,2013-05-21 09:58:00,
2013-05-21 04:59:00,66.0,66.0,29.90,South,180,13.0,17.0,100,0.03,,---,0.15,VWS V14.00,2013-05-21 09:59:00,
2013-05-21 05:00:00,66.0,66.0,29.90,SSE,158,11.0,13.0,100,0.02,,---,0.15,VWS V14.00,2013-05-21 10:00:00,
2013-05-21 05:01:00,66.0,66.0,29.89,SSE,158,16.0,16.0,100,0.02,,---,0.15,VWS V14.00,2013-05-21 10:01:00,
2013-05-21 05:02:00,66.0,66.0,29.89,SE,135,10.0,10.0,100,0.02,,---,0.15,VWS V14.00,2013-05-21 10:02:00,
2013-05-21 05:03:00,66.0,66.0,29.90,SSE,158,12.0,13.0,100,0.02,,---,0.15,VWS V14.00,2013-05-21 10:03:00,
2013-05-21 05:04:00,66.0,66.0,29.90,SSE,158,14.0,17.0,100,0.02,,---,0.15,VWS V14.00,2013-05-21 10:04:00,
2013-05-21 05:05:00,66.0,66.0,29.90,SSE,158,10.0,16.0,100,0.02,,---,0.15,VWS V14.00,2013-05-21 10:05:00,
2013-05-21 05:06:00,66.0,66.0,29.90,SE,135,14.0,14.0,100,0.02,,---,0.15,VWS V14.00,2013-05-21 10:06:00,
2013-05-21 05:07:00,66.0,66.0,29.90,SSE,158,11.0,15.0,100,0.01,,---,0.15,VWS V14.00,2013-05-21 10:07:00,
2013-05-21 05:08:00,66.0,66.0,29.90,SSE,158,17.0,18.0,100,0.01,,---,0.15,VWS V14.00,2013-05-21 10:08:00,
2013-05-21 05:09:00,66.0,66.0,29.91,SSE,158,13.0,18.0,100,0.01,,---,0.15,VWS V14.00,2013-05-21 10:09:00,
2013-05-21 05:10:00,66.0,66.0,29.91,SSE,158,18.0,20.0,100,0.01,,---,0.15,VWS V14.00,2013-05-21 10:10:00,
2013-05-21 05:11:00,66.0,66.0,29.91,SSE,158,18.0,20.0,100,0.01,,---,0.15,VWS V14.00,2013-05-21 10:11:00,
2013-05-21 05:12:00,66.0,66.0,29.91,SSE,158,16.0,19.0,100,0.01,,---,0.15,VWS V14.00,2013-05-21 10:12:00,
2013-05-21 05:13:00,66.0,66.0,29.91,SE,135,18.0,20.0,100,0.01,,---,0.15,VWS V14.00,2013-05-21 10:13:00,
2013-05-21 05:14:00,66.0,66.0,29.91,SSE,158,13.0,22.0,100,0.01,,---,0.15,VWS V14.00,2013-05-21 10:14:00,
2013-05-21 05:15:00,66.0,66.0,29.91,SE,135,17.0,21.0,100,0.01,,---,0.15,VWS V14.00,2013-05-21 10:15:00,
2013-05-21 05:16:00,66.0,66.0,29.91,SE,135,18.0,21.0,100,0.01,,---,0.15,VWS V14.00,2013-05-21 10:16:00,
2013-05-21 05:17:00,66.0,66.0,29.91,SSE,158,13.0,23.0,100,0.01,,---,0.15,VWS V14.00,2013-05-21 10:17:00,
2013-05-21 05:18:00,66.0,66.0,29.91,SE,135,18.0,22.0,100,0.01,,---,0.15,VWS V14.00,2013-05-21 10:18:00,
2013-05-21 05:19:00,66.0,66.0,29.91,SSE,158,16.0,18.0,100,0.01,,---,0.15,VWS V14.00,2013-05-21 10:19:00,
2013-05-21 05:20:00,66.0,66.0,29.91,SSE,158,16.0,24.0,100,0.01,,---,0.15,VWS V14.00,2013-05-21 10:20:00,
2013-05-21 05:21:00,66.0,66.0,29.92,SSE,158,17.0,26.0,100,0.00,,---,0.15,VWS V14.00,2013-05-21 10:21:00,
2013-05-21 05:22:00,66.0,66.0,29.92,SE,135,12.0,22.0,100,0.00,,---,0.15,VWS V14.00,2013-05-21 10:22:00,
2013-05-21 05:23:00,66.0,66.0,29.92,SSE,158,19.0,21.0,100,0.00,,---,0.15,VWS V14.00,2013-05-21 10:23:00,
2013-05-21 05:24:00,66.0,66.0,29.92,SSE,158,12.0,13.0,100,0.00,,---,0.15,VWS V14.00,2013-05-21 10:24:00,
2013-05-21 05:25:00,66.0,66.0,29.92,SSE,158,21.0,23.0,100,0.00,,---,0.15,VWS V14.00,2013-05-21 10:25:00,
2013-05-21 05:26:00,66.0,66.0,29.92,SE,135,18.0,24.0,100,0.00,,---,0.15,VWS V14.00,2013-05-21 10:26:00,
2013-05-21 05:27:00,66.0,66.0,29.92,SSE,158,18.0,21.0,100,0.00,,---,0.15,VWS V14.00,2013-05-21 10:27:00,
2013-05-21 05:28:00,66.0,66.0,29.92,SSE,158,14.0,19.0,100,0.00,,---,0.15,VWS V14.00,2013-05-21 10:28:00,
2013-05-21 05:29:00,66.0,66.0,29.92,SSE,158,18.0,19.0,100,0.00,,---,0.15,VWS V14.00,2013-05-21 10:29:00,
2013-05-21 05:30:00,66.0,66.0,29.92,SE,135,18.0,20.0,100,0.00,,---,0.15,VWS V14.00,2013-05-21 10:30:00,
2013-05-21 05:31:00,66.0,66.0,29.92,SSE,158,14.0,20.0,100,0.00,,---,0.15,VWS V14.00,2013-05-21 10:31:00,
2013-05-21 05:32:00,66.0,66.0,29.92,SSE,158,14.0,20.0,100,0.00,,---,0.15,VWS V14.00,2013-05-21 10:32:00,
2013-05-21 05:33:00,66.0,66.0,29.92,SE,135,18.0,21.0,100,0.00,,---,0.15,VWS V14.00,2013-05-21 10:33:00,
2013-05-21 05:34:00,66.0,66.0,29.93,SSE,158,14.0,18.0,100,0.00,,---,0.15,VWS V14.00,2013-05-21 10:34:00,
2013-05-21 05:35:00,66.0,66.0,29.93,SSE,158,14.0,18.0,100,0.00,,---,0.15,VWS V14.00,2013-05-21 10:35:00,
2013-05-21 05:36:00,66.0,66.0,29.93,ESE,112,11.0,16.0,100,0.00,,---,0.15,VWS V14.00,2013-05-21 10:36:00,
2013-05-21 05:37:00,66.0,66.0,29.93,SE,135,11.0,15.0,100,0.00,,---,0.15,VWS V14.00,2013-05-21 10:37:00,
2013-05-21 05:38:00,66.0,66.0,29.93,SE,135,14.0,21.0,100,0.00,,---,0.15,VWS V14.00,2013-05-21 10:38:00,
2013-05-21 05:39:00,66.0,66.0,29.93,SE,135,14.0,19.0,100,0.00,,---,0.15,VWS V14.00,2013-05-21 10:39:00,
2013-05-21 05:40:00,66.0,65.7,29.93,SE,135,12.0,15.0,99,0.00,,---,0.15,VWS V14.00,2013-05-21 10:40:00,
2013-05-21 05:41:00,66.0,65.7,29.93,SSE,158,13.0,16.0,99,0.00,,---,0.15,VWS V14.00,2013-05-21 10:41:00,
2013-05-21 05:42:00,66.0,65.7,29.93,SSE,158,13.0,15.0,99,0.00,,---,0.15,VWS V14.00,2013-05-21 10:42:00,
2013-05-21 05:43:00,67.0,66.7,29.93,SSE,158,10.0,16.0,99,0.00,,---,0.15,VWS V14.00,2013-05-21 10:43:00,
2013-05-21 05:44:00,67.0,66.7,29.93,SE,135,11.0,14.0,99,0.00,,---,0.15,VWS V14.00,2013-05-21 10:44:00,
2013-05-21 05:45:00,66.0,65.7,29.93,SSE,158,13.0,16.0,99,0.00,,---,0.15,VWS V14.00,2013-05-21 10:45:00,
2013-05-21 05:46:00,66.0,65.7,29.93,SE,135,11.0,17.0,99,0.00,,---,0.15,VWS V14.00,2013-05-21 10:46:00,
2013-05-21 05:47:00,67.0,66.7,29.93,SE,135,13.0,16.0,99,0.00,,---,0.15,VWS V14.00,2013-05-21 10:47:00,
2013-05-21 05:48:00,67.0,66.7,29.94,SSE,158,12.0,18.0,99,0.00,,---,0.15,VWS V14.00,2013-05-21 10:48:00,
2013-05-21 05:49:00,67.0,66.7,29.93,SE,135,13.0,14.0,99,0.00,,---,0.15,VWS V14.00,2013-05-21 10:49:00,
2013-05-21 05:50:00,66.0,65.7,29.93,SSE,158,10.0,17.0,99,0.00,,---,0.15,VWS V14.00,2013-05-21 10:50:00,
2013-05-21 05:51:00,67.0,66.7,29.93,SSE,158,8.0,13.0,99,0.00,,---,0.15,VWS V14.00,2013-05-21 10:51:00,
2013-05-21 05:52:00,67.0,66.7,29.93,SSE,158,8.0,16.0,99,0.00,,---,0.15,VWS V14.00,2013-05-21 10:52:00,
2013-05-21 05:53:00,67.0,66.7,29.93,South,180,14.0,14.0,99,0.00,,---,0.15,VWS V14.00,2013-05-21 10:53:00,
2013-05-21 05:54:00,67.0,66.7,29.94,SE,135,13.0,14.0,99,0.00,,---,0.15,VWS V14.00,2013-05-21 10:54:00,
2013-05-21 05:55:00,67.0,66.7,29.94,SSE,158,11.0,14.0,99,0.00,,---,0.15,VWS V14.00,2013-05-21 10:55:00,
2013-05-21 05:56:00,67.0,66.7,29.94,SSE,158,11.0,11.0,99,0.00,,---,0.15,VWS V14.00,2013-05-21 10:56:00,
2013-05-21 05:57:00,67.0,66.7,29.94,SSE,158,8.0,12.0,99,0.00,,---,0.15,VWS V14.00,2013-05-21 10:57:00,
2013-05-21 05:58:00,67.0,66.7,29.94,SSE,158,11.0,12.0,99,0.00,,---,0.15,VWS V14.00,2013-05-21 10:58:00,
2013-05-21 05:59:00,67.0,66.7,29.94,SSE,158,9.0,14.0,99,0.00,,---,0.15,VWS V14.00,2013-05-21 10:59:00,
2013-05-21 06:00:00,67.0,66.7,29.94,SSE,158,9.0,12.0,99,0.00,,---,0.15,VWS V14.00,2013-05-21 11:00:00,
2013-05-21 06:01:00,67.0,66.7,29.94,SSE,158,11.0,11.0,99,0.00,,---,0.15,VWS V14.00,2013-05-21 11:01:00,
2013-05-21 06:02:00,67.0,66.7,29.94,SSE,158,10.0,14.0,99,0.00,,---,0.15,VWS V14.00,2013-05-21 11:02:00,
2013-05-21 06:03:00,67.0,66.7,29.94,SE,135,10.0,11.0,99,0.00,,---,0.15,VWS V14.00,2013-05-21 11:03:00,
2013-05-21 06:04:00,67.0,66.7,29.94,SE,135,10.0,14.0,99,0.00,,---,0.15,VWS V14.00,2013-05-21 11:04:00,
2013-05-21 06:05:00,67.0,66.7,29.94,SSE,158,11.0,12.0,99,0.00,,---,0.15,VWS V14.00,2013-05-21 11:05:00,
2013-05-21 06:06:00,67.0,66.7,29.94,South,180,7.0,11.0,99,0.00,,---,0.15,VWS V14.00,2013-05-21 11:06:00,
2013-05-21 06:07:00,67.0,66.7,29.94,SSE,158,9.0,10.0,99,0.00,,---,0.15,VWS V14.00,2013-05-21 11:07:00,
2013-05-21 06:08:00,67.0,66.7,29.94,SE,135,5.0,9.0,99,0.00,,---,0.15,VWS V14.00,2013-05-21 11:08:00,
2013-05-21 06:09:00,67.0,66.7,29.94,SSE,158,5.0,7.0,99,0.00,,---,0.15,VWS V14.00,2013-05-21 11:09:00,
2013-05-21 06:10:00,67.0,66.4,29.94,South,180,5.0,8.0,98,0.00,,---,0.15,VWS V14.00,2013-05-21 11:10:00,
2013-05-21 06:11:00,67.0,66.4,29.93,South,180,5.0,6.0,98,0.00,,---,0.15,VWS V14.00,2013-05-21 11:11:00,
2013-05-21 06:12:00,67.0,66.7,29.93,SSE,158,6.0,6.0,99,0.00,,---,0.15,VWS V14.00,2013-05-21 11:12:00,
2013-05-21 06:13:00,67.0,66.4,29.93,SE,135,6.0,7.0,98,0.00,,---,0.15,VWS V14.00,2013-05-21 11:13:00,
2013-05-21 06:14:00,67.0,66.4,29.93,SSE,158,7.0,8.0,98,0.00,,---,0.15,VWS V14.00,2013-05-21 11:14:00,
2013-05-21 06:15:00,67.0,66.7,29.93,SE,135,6.0,8.0,99,0.00,,---,0.15,VWS V14.00,2013-05-21 11:15:00,
2013-05-21 06:16:00,67.0,66.7,29.93,SE,135,7.0,9.0,99,0.00,,---,0.15,VWS V14.00,2013-05-21 11:16:00,
2013-05-21 06:17:00,67.0,66.7,29.93,SE,135,6.0,9.0,99,0.00,,---,0.15,VWS V14.00,2013-05-21 11:17:00,
2013-05-21 06:18:00,67.0,66.7,29.93,SSE,158,6.0,8.0,99,0.00,,---,0.15,VWS V14.00,2013-05-21 11:18:00,
2013-05-21 06:19:00,67.0,66.7,29.93,SSE,158,7.0,8.0,99,0.00,,---,0.15,VWS V14.00,2013-05-21 11:19:00,
2013-05-21 06:20:00,67.0,66.4,29.93,SE,135,8.0,11.0,98,0.00,,---,0.15,VWS V14.00,2013-05-21 11:20:00,
2013-05-21 06:21:00,67.0,66.4,29.93,SSE,158,5.0,10.0,98,0.00,,---,0.15,VWS V14.00,2013-05-21 11:21:00,
2013-05-21 06:22:00,67.0,66.4,29.93,SE,135,6.0,9.0,98,0.00,,---,0.15,VWS V14.00,2013-05-21 11:22:00,
2013-05-21 06:23:00,67.0,66.4,29.93,SE,135,6.0,8.0,98,0.00,,---,0.15,VWS V14.00,2013-05-21 11:23:00,
2013-05-21 06:24:00,67.0,66.4,29.93,SSE,158,9.0,11.0,98,0.00,,---,0.15,VWS V14.00,2013-05-21 11:24:00,
2013-05-21 06:25:00,67.0,66.4,29.93,SE,135,6.0,10.0,98,0.00,,---,0.15,VWS V14.00,2013-05-21 11:25:00,
2013-05-21 06:26:00,67.0,66.4,29.92,SE,135,7.0,8.0,98,0.00,,---,0.15,VWS V14.00,2013-05-21 11:26:00,
2013-05-21 06:27:00,67.0,66.4,29.92,SSE,158,10.0,13.0,98,0.00,,---,0.15,VWS V14.00,2013-05-21 11:27:00,
2013-05-21 06:28:00,67.0,66.4,29.92,SSE,158,7.0,10.0,98,0.00,,---,0.15,VWS V14.00,2013-05-21 11:28:00,
2013-05-21 06:29:00,67.0,66.4,29.92,SE,135,8.0,8.0,98,0.00,,---,0.15,VWS V14.00,2013-05-21 11:29:00,
2013-05-21 06:30:00,67.0,66.4,29.92,SE,135,8.0,9.0,98,0.00,,---,0.15,VWS V14.00,2013-05-21 11:30:00,
2013-05-21 06:31:00,67.0,66.4,29.92,SE,135,10.0,13.0,98,0.00,,---,0.15,VWS V14.00,2013-05-21 11:31:00,
2013-05-21 06:32:00,67.0,66.4,29.92,SE,135,8.0,11.0,98,0.00,,---,0.15,VWS V14.00,2013-05-21 11:32:00,
2013-05-21 06:33:00,67.0,66.4,29.92,SE,135,7.0,11.0,98,0.00,,---,0.15,VWS V14.00,2013-05-21 11:33:00,
2013-05-21 06:34:00,67.0,66.4,29.92,SSE,158,7.0,12.0,98,0.00,,---,0.15,VWS V14.00,2013-05-21 11:34:00,
2013-05-21 06:35:00,67.0,66.1,29.92,SE,135,7.0,11.0,97,0.00,,---,0.15,VWS V14.00,2013-05-21 11:35:00,
2013-05-21 06:36:00,67.0,66.1,29.91,SE,135,9.0,9.0,97,0.00,,---,0.15,VWS V14.00,2013-05-21 11:36:00,
2013-05-21 06:37:00,67.0,66.1,29.91,SSE,158,6.0,10.0,97,0.00,,---,0.15,VWS V14.00,2013-05-21 11:37:00,
2013-05-21 06:38:00,67.0,66.1,29.91,ESE,112,11.0,11.0,97,0.00,,---,0.15,VWS V14.00,2013-05-21 11:38:00,
2013-05-21 06:39:00,68.0,67.1,29.91,SSE,158,6.0,11.0,97,0.00,,---,0.15,VWS V14.00,2013-05-21 11:39:00,
2013-05-21 06:40:00,68.0,67.1,29.91,SE,135,8.0,10.0,97,0.00,,---,0.15,VWS V14.00,2013-05-21 11:40:00,
2013-05-21 06:41:00,68.0,66.8,29.91,ESE,112,7.0,11.0,96,0.00,,---,0.15,VWS V14.00,2013-05-21 11:41:00,
2013-05-21 06:42:00,68.0,66.8,29.91,ESE,112,8.0,11.0,96,0.00,,---,0.15,VWS V14.00,2013-05-21 11:42:00,
2013-05-21 06:43:00,68.0,66.8,29.90,ESE,112,8.0,10.0,96,0.00,,---,0.15,VWS V14.00,2013-05-21 11:43:00,
2013-05-21 06:44:00,68.0,66.8,29.90,ESE,112,6.0,8.0,96,0.00,,---,0.15,VWS V14.00,2013-05-21 11:44:00,
2013-05-21 06:45:00,68.0,66.5,29.90,ESE,112,5.0,7.0,95,0.00,,---,0.15,VWS V14.00,2013-05-21 11:45:00,
2013-05-21 06:46:00,68.0,66.5,29.90,ESE,112,8.0,8.0,95,0.00,,---,0.15,VWS V14.00,2013-05-21 11:46:00,
2013-05-21 06:47:00,68.0,66.5,29.91,East,90,3.0,10.0,95,0.00,,---,0.15,VWS V14.00,2013-05-21 11:47:00,
2013-05-21 06:48:00,68.0,66.5,29.91,ESE,112,6.0,7.0,95,0.00,,---,0.15,VWS V14.00,2013-05-21 11:48:00,
2013-05-21 06:49:00,68.0,66.5,29.90,SSE,158,5.0,9.0,95,0.00,,---,0.15,VWS V14.00,2013-05-21 11:49:00,
2013-05-21 06:50:00,68.0,66.5,29.91,SE,135,6.0,7.0,95,0.00,,---,0.15,VWS V14.00,2013-05-21 11:50:00,
2013-05-21 06:51:00,68.0,66.5,29.90,ESE,112,7.0,8.0,95,0.00,,---,0.15,VWS V14.00,2013-05-21 11:51:00,
2013-05-21 06:52:00,68.0,66.5,29.90,ESE,112,7.0,8.0,95,0.00,,---,0.15,VWS V14.00,2013-05-21 11:52:00,
2013-05-21 06:53:00,68.0,66.5,29.90,ESE,112,5.0,7.0,95,0.00,,---,0.15,VWS V14.00,2013-05-21 11:53:00,
2013-05-21 06:54:00,68.0,66.5,29.89,ESE,112,7.0,9.0,95,0.00,,---,0.15,VWS V14.00,2013-05-21 11:54:00,
2013-05-21 06:55:00,68.0,66.5,29.89,SE,135,8.0,11.0,95,0.00,,---,0.15,VWS V14.00,2013-05-21 11:55:00,
2013-05-21 06:56:00,68.0,66.5,29.89,East,90,5.0,10.0,95,0.00,,---,0.15,VWS V14.00,2013-05-21 11:56:00,
2013-05-21 06:57:00,68.0,66.5,29.89,East,90,7.0,8.0,95,0.00,,---,0.15,VWS V14.00,2013-05-21 11:57:00,
2013-05-21 06:58:00,68.0,66.5,29.89,SE,135,8.0,9.0,95,0.00,,---,0.15,VWS V14.00,2013-05-21 11:58:00,
2013-05-21 06:59:00,68.0,66.5,29.88,SE,135,10.0,10.0,95,0.00,,---,0.15,VWS V14.00,2013-05-21 11:59:00,
2013-05-21 07:00:00,68.0,66.5,29.87,ESE,112,10.0,13.0,95,0.00,,---,0.15,VWS V14.00,2013-05-21 12:00:00,
2013-05-21 07:01:00,68.0,66.5,29.87,SE,135,11.0,15.0,95,0.00,,---,0.15,VWS V14.00,2013-05-21 12:01:00,
2013-05-21 07:02:00,68.0,66.5,29.86,SE,135,8.0,13.0,95,0.00,,---,0.15,VWS V14.00,2013-05-21 12:02:00,
2013-05-21 07:03:00,68.0,66.5,29.86,SE,135,9.0,15.0,95,0.00,,---,0.15,VWS V14.00,2013-05-21 12:03:00,
2013-05-21 07:04:00,68.0,66.5,29.86,SSE,158,10.0,14.0,95,0.00,,---,0.15,VWS V14.00,2013-05-21 12:04:00,
2013-05-21 07:05:00,68.0,66.5,29.86,SE,135,13.0,14.0,95,0.00,,---,0.15,VWS V14.00,2013-05-21 12:05:00,
2013-05-21 07:06:00,68.0,66.5,29.86,South,180,10.0,16.0,95,0.00,,---,0.15,VWS V14.00,2013-05-21 12:06:00,
2013-05-21 07:07:00,68.0,66.2,29.87,South,180,9.0,15.0,94,0.00,,---,0.15,VWS V14.00,2013-05-21 12:07:00,
2013-05-21 07:08:00,68.0,65.9,29.86,SSE,158,14.0,14.0,93,0.00,,---,0.15,VWS V14.00,2013-05-21 12:08:00,
2013-05-21 07:09:00,68.0,65.9,29.86,SE,135,10.0,17.0,93,0.00,,---,0.15,VWS V14.00,2013-05-21 12:09:00,
2013-05-21 07:10:00,69.0,66.6,29.85,ESE,112,13.0,16.0,92,0.00,,---,0.15,VWS V14.00,2013-05-21 12:10:00,
2013-05-21 07:11:00,69.0,66.3,29.86,SSE,158,11.0,18.0,91,0.00,,---,0.15,VWS V14.00,2013-05-21 12:11:00,
2013-05-21 07:12:00,69.0,66.3,29.86,SE,135,9.0,16.0,91,0.00,,---,0.15,VWS V14.00,2013-05-21 12:12:00,
2013-05-21 07:13:00,69.0,65.9,29.88,SSW,202,10.0,12.0,90,0.00,,---,0.15,VWS V14.00,2013-05-21 12:13:00,
2013-05-21 07:14:00,69.0,65.9,29.89,WSW,248,11.0,13.0,90,0.00,,---,0.15,VWS V14.00,2013-05-21 12:14:00,
2013-05-21 07:15:00,69.0,65.9,29.89,South,180,10.0,18.0,90,0.00,,---,0.15,VWS V14.00,2013-05-21 12:15:00,
2013-05-21 07:16:00,69.0,65.9,29.88,SSW,202,5.0,10.0,90,0.00,,---,0.15,VWS V14.00,2013-05-21 12:16:00,
2013-05-21 07:17:00,69.0,65.9,29.87,SSE,158,8.0,11.0,90,0.00,,---,0.15,VWS V14.00,2013-05-21 12:17:00,
2013-05-21 07:18:00,69.0,65.9,29.87,ESE,112,18.0,18.0,90,0.00,,---,0.15,VWS V14.00,2013-05-21 12:18:00,
2013-05-21 07:19:00,69.0,65.6,29.86,SE,135,14.0,21.0,89,0.00,,---,0.15,VWS V14.00,2013-05-21 12:19:00,
2013-05-21 07:20:00,69.0,65.6,29.87,SSE,158,9.0,16.0,89,0.00,,---,0.15,VWS V14.00,2013-05-21 12:20:00,
2013-05-21 07:21:00,69.0,65.6,29.88,South,180,10.0,13.0,89,0.00,,---,0.15,VWS V14.00,2013-05-21 12:21:00,
2013-05-21 07:22:00,69.0,65.6,29.88,SSE,158,11.0,14.0,89,0.00,,---,0.15,VWS V14.00,2013-05-21 12:22:00,
2013-05-21 07:23:00,69.0,65.6,29.87,South,180,8.0,11.0,89,0.00,,---,0.15,VWS V14.00,2013-05-21 12:23:00,
2013-05-21 07:24:00,69.0,65.6,29.87,SE,135,8.0,10.0,89,0.00,,---,0.15,VWS V14.00,2013-05-21 12:24:00,
2013-05-21 07:25:00,69.0,65.6,29.87,SE,135,11.0,13.0,89,0.00,,---,0.15,VWS V14.00,2013-05-21 12:25:00,
2013-05-21 07:26:00,69.0,65.6,29.87,SSE,158,10.0,14.0,89,0.00,,---,0.15,VWS V14.00,2013-05-21 12:26:00,
2013-05-21 07:27:00,69.0,65.6,29.87,SSE,158,8.0,11.0,89,0.00,,---,0.15,VWS V14.00,2013-05-21 12:27:00,
2013-05-21 07:28:00,70.0,66.6,29.87,SE,135,10.0,11.0,89,0.00,,---,0.15,VWS V14.00,2013-05-21 12:28:00,
2013-05-21 07:29:00,70.0,66.3,29.87,SE,135,11.0,13.0,88,0.00,,---,0.15,VWS V14.00,2013-05-21 12:29:00,
2013-05-21 07:30:00,70.0,66.3,29.87,SSE,158,9.0,11.0,88,0.00,,---,0.15,VWS V14.00,2013-05-21 12:30:00,
2013-05-21 07:31:00,70.0,66.0,29.87,SSE,158,10.0,14.0,87,0.00,,---,0.15,VWS V14.00,2013-05-21 12:31:00,
2013-05-21 07:32:00,70.0,66.0,29.88,South,180,6.0,10.0,87,0.00,,---,0.15,VWS V14.00,2013-05-21 12:32:00,
2013-05-21 07:33:00,70.0,66.0,29.88,SSE,158,9.0,10.0,87,0.00,,---,0.15,VWS V14.00,2013-05-21 12:33:00,
2013-05-21 07:34:00,70.0,66.0,29.88,SSE,158,5.0,11.0,87,0.00,,---,0.15,VWS V14.00,2013-05-21 12:34:00,
2013-05-21 07:35:00,70.0,66.0,29.88,SSE,158,8.0,11.0,87,0.00,,---,0.15,VWS V14.00,2013-05-21 12:35:00,
2013-05-21 07:36:00,70.0,66.0,29.88,SSE,158,8.0,8.0,87,0.00,,---,0.15,VWS V14.00,2013-05-21 12:36:00,
2013-05-21 07:37:00,70.0,66.0,29.88,SSE,158,7.0,8.0,87,0.00,,---,0.15,VWS V14.00,2013-05-21 12:37:00,
2013-05-21 07:38:00,70.0,66.0,29.88,South,180,6.0,9.0,87,0.00,,---,0.15,VWS V14.00,2013-05-21 12:38:00,
2013-05-21 07:39:00,70.0,65.6,29.88,South,180,6.0,10.0,86,0.00,,---,0.15,VWS V14.00,2013-05-21 12:39:00,
2013-05-21 07:40:00,70.0,65.6,29.88,SSW,202,8.0,14.0,86,0.00,,---,0.15,VWS V14.00,2013-05-21 12:40:00,
2013-05-21 07:41:00,70.0,65.6,29.89,SSW,202,8.0,11.0,86,0.00,,---,0.15,VWS V14.00,2013-05-21 12:41:00,
2013-05-21 07:42:00,71.0,66.6,29.90,SSW,202,10.0,10.0,86,0.00,,---,0.15,VWS V14.00,2013-05-21 12:42:00,
2013-05-21 07:43:00,71.0,66.3,29.90,SSW,202,8.0,11.0,85,0.00,,---,0.15,VWS V14.00,2013-05-21 12:43:00,
2013-05-21 07:44:00,71.0,66.3,29.90,West,270,7.0,10.0,85,0.00,,---,0.15,VWS V14.00,2013-05-21 12:44:00,
2013-05-21 07:45:00,71.0,66.3,29.91,SW,225,8.0,11.0,85,0.00,,---,0.15,VWS V14.00,2013-05-21 12:45:00,
2013-05-21 07:46:00,71.0,66.3,29.91,WSW,248,8.0,10.0,85,0.00,,---,0.15,VWS V14.00,2013-05-21 12:46:00,
2013-05-21 07:47:00,71.0,66.3,29.91,West,270,10.0,11.0,85,0.00,,---,0.15,VWS V14.00,2013-05-21 12:47:00,
2013-05-21 07:48:00,71.0,66.3,29.92,WNW,292,8.0,11.0,85,0.00,,---,0.15,VWS V14.00,2013-05-21 12:48:00,
2013-05-21 07:49:00,71.0,66.3,29.92,West,270,11.0,13.0,85,0.00,,---,0.15,VWS V14.00,2013-05-21 12:49:00,
2013-05-21 07:50:00,71.0,66.3,29.92,WNW,292,14.0,14.0,85,0.00,,---,0.15,VWS V14.00,2013-05-21 12:50:00,
2013-05-21 07:51:00,71.0,66.3,29.93,WSW,248,10.0,17.0,85,0.00,,---,0.15,VWS V14.00,2013-05-21 12:51:00,
2013-05-21 07:52:00,71.0,66.6,29.93,WSW,248,11.0,14.0,86,0.00,,---,0.15,VWS V14.00,2013-05-21 12:52:00,
2013-05-21 07:53:00,71.0,66.3,29.93,West,270,11.0,14.0,85,0.00,,---,0.15,VWS V14.00,2013-05-21 12:53:00,
2013-05-21 07:54:00,71.0,66.3,29.92,West,270,8.0,13.0,85,0.00,,---,0.15,VWS V14.00,2013-05-21 12:54:00,
2013-05-21 07:55:00,71.0,66.6,29.93,WSW,248,5.0,9.0,86,0.00,,---,0.15,VWS V14.00,2013-05-21 12:55:00,
2013-05-21 07:56:00,71.0,66.6,29.93,West,270,6.0,8.0,86,0.00,,---,0.15,VWS V14.00,2013-05-21 12:56:00,
2013-05-21 07:57:00,71.0,66.6,29.93,WSW,248,8.0,9.0,86,0.00,,---,0.15,VWS V14.00,2013-05-21 12:57:00,
2013-05-21 07:58:00,71.0,66.6,29.93,West,270,9.0,10.0,86,0.00,,---,0.15,VWS V14.00,2013-05-21 12:58:00,
2013-05-21 07:59:00,71.0,66.9,29.94,WSW,248,10.0,11.0,87,0.00,,---,0.15,VWS V14.00,2013-05-21 12:59:00,
2013-05-21 08:00:00,71.0,66.6,29.94,West,270,7.0,12.0,86,0.00,,---,0.15,VWS V14.00,2013-05-21 13:00:00,
2013-05-21 08:01:00,71.0,66.6,29.93,SW,225,7.0,11.0,86,0.00,,---,0.15,VWS V14.00,2013-05-21 13:01:00,
2013-05-21 08:02:00,71.0,66.3,29.93,WSW,248,10.0,10.0,85,0.00,,---,0.15,VWS V14.00,2013-05-21 13:02:00,
2013-05-21 08:03:00,71.0,66.3,29.93,SW,225,5.0,10.0,85,0.00,,---,0.15,VWS V14.00,2013-05-21 13:03:00,
2013-05-21 08:04:00,71.0,66.3,29.93,SW,225,8.0,10.0,85,0.00,,---,0.15,VWS V14.00,2013-05-21 13:04:00,
2013-05-21 08:05:00,71.0,65.9,29.93,SW,225,9.0,12.0,84,0.00,,---,0.15,VWS V14.00,2013-05-21 13:05:00,
2013-05-21 08:06:00,71.0,66.3,29.93,WSW,248,10.0,10.0,85,0.00,,---,0.15,VWS V14.00,2013-05-21 13:06:00,
2013-05-21 08:07:00,72.0,67.2,29.93,SW,225,7.0,10.0,85,0.00,,---,0.15,VWS V14.00,2013-05-21 13:07:00,
2013-05-21 08:08:00,71.0,66.3,29.93,WSW,248,9.0,11.0,85,0.00,,---,0.15,VWS V14.00,2013-05-21 13:08:00,
2013-05-21 08:09:00,72.0,66.9,29.93,West,270,9.0,10.0,84,0.00,,---,0.15,VWS V14.00,2013-05-21 13:09:00,
2013-05-21 08:10:00,71.0,65.9,29.93,WSW,248,9.0,11.0,84,0.00,,---,0.15,VWS V14.00,2013-05-21 13:10:00,
2013-05-21 08:11:00,72.0,66.9,29.93,WSW,248,9.0,10.0,84,0.00,,---,0.15,VWS V14.00,2013-05-21 13:11:00,
2013-05-21 08:12:00,71.0,65.9,29.93,SW,225,10.0,12.0,84,0.00,,---,0.15,VWS V14.00,2013-05-21 13:12:00,
2013-05-21 08:13:00,72.0,66.9,29.93,WSW,248,9.0,11.0,84,0.00,,---,0.15,VWS V14.00,2013-05-21 13:13:00,
2013-05-21 08:14:00,72.0,67.2,29.94,WSW,248,11.0,11.0,85,0.00,,---,0.15,VWS V14.00,2013-05-21 13:14:00,
2013-05-21 08:15:00,72.0,67.2,29.94,WSW,248,8.0,11.0,85,0.00,,---,0.15,VWS V14.00,2013-05-21 13:15:00,
2013-05-21 08:16:00,72.0,67.2,29.94,SW,225,10.0,11.0,85,0.00,,---,0.15,VWS V14.00,2013-05-21 13:16:00,
2013-05-21 08:17:00,72.0,67.2,29.94,SW,225,7.0,12.0,85,0.00,,---,0.15,VWS V14.00,2013-05-21 13:17:00,
2013-05-21 08:18:00,72.0,67.2,29.94,WSW,248,10.0,12.0,85,0.00,,---,0.15,VWS V14.00,2013-05-21 13:18:00,
2013-05-21 08:19:00,72.0,66.9,29.94,SW,225,12.0,13.0,84,0.00,,---,0.15,VWS V14.00,2013-05-21 13:19:00,
2013-05-21 08:20:00,72.0,67.2,29.95,SW,225,10.0,14.0,85,0.00,,---,0.15,VWS V14.00,2013-05-21 13:20:00,
2013-05-21 08:21:00,72.0,67.2,29.95,SW,225,11.0,13.0,85,0.00,,---,0.15,VWS V14.00,2013-05-21 13:21:00,
2013-05-21 08:22:00,72.0,67.6,29.95,SW,225,11.0,14.0,86,0.00,,---,0.15,VWS V14.00,2013-05-21 13:22:00,
2013-05-21 08:23:00,72.0,67.2,29.95,SW,225,13.0,15.0,85,0.00,,---,0.15,VWS V14.00,2013-05-21 13:23:00,
2013-05-21 08:24:00,73.0,68.2,29.95,SW,225,13.0,16.0,85,0.00,,---,0.15,VWS V14.00,2013-05-21 13:24:00,
2013-05-21 08:25:00,73.0,67.9,29.95,WSW,248,11.0,16.0,84,0.00,,---,0.15,VWS V14.00,2013-05-21 13:25:00,
2013-05-21 08:26:00,73.0,67.9,29.95,SW,225,11.0,14.0,84,0.00,,---,0.15,VWS V14.00,2013-05-21 13:26:00,
2013-05-21 08:27:00,73.0,67.9,29.95,SW,225,13.0,16.0,84,0.00,,---,0.15,VWS V14.00,2013-05-21 13:27:00,
2013-05-21 08:28:00,73.0,67.5,29.95,SW,225,14.0,16.0,83,0.00,,---,0.15,VWS V14.00,2013-05-21 13:28:00,
2013-05-21 08:29:00,73.0,67.5,29.95,SW,225,14.0,16.0,83,0.00,,---,0.15,VWS V14.00,2013-05-21 13:29:00,
2013-05-21 08:30:00,73.0,67.5,29.95,SW,225,13.0,14.0,83,0.00,,---,0.15,VWS V14.00,2013-05-21 13:30:00,
2013-05-21 08:31:00,73.0,67.2,29.95,SW,225,15.0,18.0,82,0.00,,---,0.15,VWS V14.00,2013-05-21 13:31:00,
2013-05-21 08:32:00,73.0,67.5,29.95,SW,225,14.0,20.0,83,0.00,,---,0.15,VWS V14.00,2013-05-21 13:32:00,
2013-05-21 08:33:00,73.0,67.2,29.95,WSW,248,16.0,19.0,82,0.00,,---,0.15,VWS V14.00,2013-05-21 13:33:00,
2013-05-21 08:34:00,73.0,67.5,29.95,SW,225,13.0,17.0,83,0.00,,---,0.15,VWS V14.00,2013-05-21 13:34:00,
2013-05-21 08:35:00,73.0,67.5,29.95,SW,225,14.0,16.0,83,0.00,,---,0.15,VWS V14.00,2013-05-21 13:35:00,
2013-05-21 08:36:00,73.0,67.5,29.95,WSW,248,10.0,17.0,83,0.00,,---,0.15,VWS V14.00,2013-05-21 13:36:00,
2013-05-21 08:37:00,73.0,67.9,29.95,SW,225,9.0,14.0,84,0.00,,---,0.15,VWS V14.00,2013-05-21 13:37:00,
2013-05-21 08:38:00,73.0,67.9,29.94,SSW,202,8.0,13.0,84,0.00,,---,0.15,VWS V14.00,2013-05-21 13:38:00,
2013-05-21 08:39:00,73.0,67.9,29.94,WSW,248,13.0,14.0,84,0.00,,---,0.15,VWS V14.00,2013-05-21 13:39:00,
2013-05-21 08:40:00,73.0,67.5,29.94,WSW,248,14.0,18.0,83,0.00,,---,0.15,VWS V14.00,2013-05-21 13:40:00,
2013-05-21 08:41:00,73.0,67.5,29.94,SW,225,13.0,15.0,83,0.00,,---,0.15,VWS V14.00,2013-05-21 13:41:00,
2013-05-21 08:42:00,73.0,67.5,29.94,WSW,248,14.0,19.0,83,0.00,,---,0.15,VWS V14.00,2013-05-21 13:42:00,
2013-05-21 08:43:00,73.0,67.5,29.94,WSW,248,16.0,19.0,83,0.00,,---,0.15,VWS V14.00,2013-05-21 13:43:00,
2013-05-21 08:44:00,73.0,67.5,29.94,SW,225,12.0,19.0,83,0.00,,---,0.15,VWS V14.00,2013-05-21 13:44:00,
2013-05-21 08:45:00,74.0,68.5,29.95,SW,225,13.0,17.0,83,0.00,,---,0.15,VWS V14.00,2013-05-21 13:45:00,
2013-05-21 08:46:00,73.0,67.2,29.94,SW,225,18.0,25.0,82,0.00,,---,0.15,VWS V14.00,2013-05-21 13:46:00,
2013-05-21 08:47:00,73.0,66.8,29.93,WSW,248,16.0,16.0,81,0.00,,---,0.15,VWS V14.00,2013-05-21 13:47:00,
2013-05-21 08:48:00,73.0,66.8,29.93,SW,225,14.0,17.0,81,0.00,,---,0.15,VWS V14.00,2013-05-21 13:48:00,
2013-05-21 08:49:00,74.0,68.5,29.93,WSW,248,11.0,18.0,83,0.00,,---,0.15,VWS V14.00,2013-05-21 13:49:00,
2013-05-21 08:50:00,74.0,68.2,29.93,WSW,248,15.0,18.0,82,0.00,,---,0.15,VWS V14.00,2013-05-21 13:50:00,
2013-05-21 08:51:00,74.0,68.2,29.93,SW,225,16.0,22.0,82,0.00,,---,0.15,VWS V14.00,2013-05-21 13:51:00,
2013-05-21 08:52:00,74.0,68.2,29.93,SW,225,14.0,19.0,82,0.00,,---,0.15,VWS V14.00,2013-05-21 13:52:00,
2013-05-21 08:53:00,74.0,68.2,29.93,SSW,202,17.0,18.0,82,0.00,,---,0.15,VWS V14.00,2013-05-21 13:53:00,
2013-05-21 08:54:00,74.0,67.8,29.93,SSW,202,16.0,18.0,81,0.00,,---,0.15,VWS V14.00,2013-05-21 13:54:00,
2013-05-21 08:55:00,74.0,68.2,29.93,SSW,202,11.0,19.0,82,0.00,,---,0.15,VWS V14.00,2013-05-21 13:55:00,
2013-05-21 08:56:00,74.0,68.2,29.93,SSW,202,10.0,14.0,82,0.00,,---,0.15,VWS V14.00,2013-05-21 13:56:00,
2013-05-21 08:57:00,74.0,67.8,29.93,SSW,202,13.0,16.0,81,0.00,,---,0.15,VWS V14.00,2013-05-21 13:57:00,
2013-05-21 08:58:00,74.0,67.8,29.94,South,180,19.0,27.0,81,0.00,,---,0.15,VWS V14.00,2013-05-21 13:58:00,
2013-05-21 08:59:00,73.0,66.1,29.94,SSW,202,21.0,27.0,79,0.00,,---,0.15,VWS V14.00,2013-05-21 13:59:00,
2013-05-21 09:00:00,73.0,66.5,29.92,SSW,202,14.0,25.0,80,0.00,,---,0.15,VWS V14.00,2013-05-21 14:00:00,
2013-05-21 09:01:00,73.0,66.8,29.92,SSW,202,19.0,19.0,81,0.00,,---,0.15,VWS V14.00,2013-05-21 14:01:00,
2013-05-21 09:02:00,73.0,66.8,29.92,SSW,202,19.0,23.0,81,0.00,,---,0.15,VWS V14.00,2013-05-21 14:02:00,
2013-05-21 09:03:00,73.0,66.8,29.92,SSW,202,14.0,19.0,81,0.00,,---,0.15,VWS V14.00,2013-05-21 14:03:00,
2013-05-21 09:04:00,73.0,67.2,29.93,South,180,9.0,19.0,82,0.00,,---,0.15,VWS V14.00,2013-05-21 14:04:00,
2013-05-21 09:05:00,73.0,67.2,29.93,SSW,202,14.0,17.0,82,0.00,,---,0.15,VWS V14.00,2013-05-21 14:05:00,
2013-05-21 09:06:00,73.0,67.2,29.93,South,180,10.0,16.0,82,0.00,,---,0.15,VWS V14.00,2013-05-21 14:06:00,
2013-05-21 09:07:00,73.0,67.5,29.92,SSW,202,14.0,18.0,83,0.00,,---,0.15,VWS V14.00,2013-05-21 14:07:00,
2013-05-21 09:08:00,73.0,67.2,29.92,SSW,202,9.0,14.0,82,0.00,,---,0.15,VWS V14.00,2013-05-21 14:08:00,
2013-05-21 09:09:00,73.0,66.8,29.92,South,180,19.0,20.0,81,0.00,,---,0.15,VWS V14.00,2013-05-21 14:09:00,
2013-05-21 09:10:00,73.0,67.5,29.93,South,180,23.0,24.0,83,0.00,,---,0.15,VWS V14.00,2013-05-21 14:10:00,
2013-05-21 09:11:00,73.0,67.2,29.92,SSE,158,14.0,24.0,82,0.00,,---,0.15,VWS V14.00,2013-05-21 14:11:00,
2013-05-21 09:12:00,72.0,66.2,29.92,SSW,202,17.0,22.0,82,0.00,,---,0.15,VWS V14.00,2013-05-21 14:12:00,
2013-05-21 09:13:00,72.0,66.2,29.92,South,180,13.0,21.0,82,0.00,,---,0.15,VWS V14.00,2013-05-21 14:13:00,
2013-05-21 09:14:00,73.0,67.5,29.92,South,180,14.0,15.0,83,0.00,,---,0.15,VWS V14.00,2013-05-21 14:14:00,
2013-05-21 09:15:00,72.0,66.6,29.92,SSW,202,11.0,15.0,83,0.00,,---,0.15,VWS V14.00,2013-05-21 14:15:00,
2013-05-21 09:16:00,73.0,67.9,29.93,SSW,202,13.0,13.0,84,0.00,,---,0.15,VWS V14.00,2013-05-21 14:16:00,
2013-05-21 09:17:00,72.0,66.6,29.93,SSW,202,13.0,14.0,83,0.00,,---,0.15,VWS V14.00,2013-05-21 14:17:00,
2013-05-21 09:18:00,72.0,66.6,29.93,SSW,202,11.0,15.0,83,0.00,,---,0.15,VWS V14.00,2013-05-21 14:18:00,
2013-05-21 09:19:00,72.0,66.9,29.93,SW,225,14.0,17.0,84,0.00,,---,0.15,VWS V14.00,2013-05-21 14:19:00,
2013-05-21 09:20:00,72.0,66.6,29.93,SSW,202,19.0,26.0,83,0.00,,---,0.15,VWS V14.00,2013-05-21 14:20:00,
2013-05-21 09:21:00,72.0,66.9,29.93,South,180,13.0,23.0,84,0.00,,---,0.15,VWS V14.00,2013-05-21 14:21:00,
2013-05-21 09:22:00,72.0,66.9,29.93,SSW,202,10.0,22.0,84,0.00,,---,0.15,VWS V14.00,2013-05-21 14:22:00,
2013-05-21 09:23:00,72.0,66.9,29.93,SSW,202,9.0,17.0,84,0.00,,---,0.15,VWS V14.00,2013-05-21 14:23:00,
2013-05-21 09:24:00,71.0,66.3,29.93,SW,225,21.0,21.0,85,0.00,,---,0.15,VWS V14.00,2013-05-21 14:24:00,
2013-05-21 09:25:00,71.0,65.9,29.93,SW,225,18.0,21.0,84,0.00,,---,0.15,VWS V14.00,2013-05-21 14:25:00,
2013-05-21 09:26:00,71.0,66.3,29.93,SSW,202,11.0,18.0,85,0.00,,---,0.15,VWS V14.00,2013-05-21 14:26:00,
2013-05-21 09:27:00,71.0,66.6,29.93,SSW,202,11.0,13.0,86,0.00,,---,0.15,VWS V14.00,2013-05-21 14:27:00,
2013-05-21 09:28:00,71.0,66.6,29.93,SSW,202,11.0,11.0,86,0.00,,---,0.15,VWS V14.00,2013-05-21 14:28:00,
2013-05-21 09:29:00,71.0,66.6,29.93,SSE,158,10.0,14.0,86,0.00,,---,0.15,VWS V14.00,2013-05-21 14:29:00,
2013-05-21 09:30:00,71.0,66.6,29.93,South,180,18.0,21.0,86,0.00,,---,0.15,VWS V14.00,2013-05-21 14:30:00,
2013-05-21 09:31:00,71.0,66.6,29.93,SW,225,9.0,23.0,86,0.00,,---,0.15,VWS V14.00,2013-05-21 14:31:00,
2013-05-21 09:32:00,71.0,66.6,29.93,SSW,202,14.0,19.0,86,0.00,,---,0.15,VWS V14.00,2013-05-21 14:32:00,
2013-05-21 09:33:00,71.0,66.6,29.93,SSW,202,16.0,21.0,86,0.00,,---,0.15,VWS V14.00,2013-05-21 14:33:00,
2013-05-21 09:34:00,71.0,66.9,29.93,South,180,13.0,16.0,87,0.00,,---,0.15,VWS V14.00,2013-05-21 14:34:00,
2013-05-21 09:35:00,71.0,66.9,29.93,South,180,18.0,18.0,87,0.00,,---,0.15,VWS V14.00,2013-05-21 14:35:00,
2013-05-21 09:36:00,71.0,66.9,29.93,SSW,202,14.0,18.0,87,0.00,,---,0.15,VWS V14.00,2013-05-21 14:36:00,
2013-05-21 09:37:00,70.0,66.0,29.93,South,180,14.0,16.0,87,0.00,,---,0.15,VWS V14.00,2013-05-21 14:37:00,
2013-05-21 09:38:00,70.0,66.0,29.92,SSW,202,13.0,19.0,87,0.00,,---,0.15,VWS V14.00,2013-05-21 14:38:00,
2013-05-21 09:39:00,70.0,66.0,29.93,SSE,158,16.0,20.0,87,0.00,,---,0.15,VWS V14.00,2013-05-21 14:39:00,
2013-05-21 09:40:00,70.0,66.0,29.93,SSW,202,18.0,21.0,87,0.00,,---,0.15,VWS V14.00,2013-05-21 14:40:00,
2013-05-21 09:41:00,70.0,66.0,29.93,SSW,202,13.0,23.0,87,0.00,,---,0.15,VWS V14.00,2013-05-21 14:41:00,
2013-05-21 09:42:00,70.0,66.0,29.93,SSW,202,15.0,23.0,87,0.00,,---,0.15,VWS V14.00,2013-05-21 14:42:00,
2013-05-21 09:43:00,70.0,66.0,29.93,SSW,202,18.0,20.0,87,0.00,,---,0.15,VWS V14.00,2013-05-21 14:43:00,
2013-05-21 09:44:00,70.0,66.0,29.93,South,180,8.0,18.0,87,0.00,,---,0.15,VWS V14.00,2013-05-21 14:44:00,
2013-05-21 09:45:00,70.0,66.0,29.93,SSW,202,10.0,16.0,87,0.00,,---,0.15,VWS V14.00,2013-05-21 14:45:00,
2013-05-21 09:46:00,70.0,66.0,29.92,South,180,7.0,14.0,87,0.00,,---,0.15,VWS V14.00,2013-05-21 14:46:00,
2013-05-21 09:47:00,70.0,66.0,29.92,South,180,10.0,15.0,87,0.00,,---,0.15,VWS V14.00,2013-05-21 14:47:00,
2013-05-21 09:48:00,70.0,66.0,29.92,South,180,17.0,18.0,87,0.00,,---,0.15,VWS V14.00,2013-05-21 14:48:00,
2013-05-21 09:49:00,70.0,66.0,29.92,South,180,12.0,18.0,87,0.00,,---,0.15,VWS V14.00,2013-05-21 14:49:00,
2013-05-21 09:50:00,70.0,66.0,29.92,South,180,11.0,17.0,87,0.00,,---,0.15,VWS V14.00,2013-05-21 14:50:00,
2013-05-21 09:51:00,70.0,66.3,29.92,SSE,158,6.0,13.0,88,0.00,,---,0.15,VWS V14.00,2013-05-21 14:51:00,
2013-05-21 09:52:00,70.0,66.3,29.92,SSE,158,11.0,14.0,88,0.00,,---,0.15,VWS V14.00,2013-05-21 14:52:00,
2013-05-21 09:53:00,70.0,66.3,29.92,South,180,6.0,13.0,88,0.00,,---,0.15,VWS V14.00,2013-05-21 14:53:00,
2013-05-21 09:54:00,70.0,66.3,29.92,SSW,202,10.0,13.0,88,0.00,,---,0.15,VWS V14.00,2013-05-21 14:54:00,
2013-05-21 09:55:00,70.0,66.3,29.92,South,180,10.0,11.0,88,0.00,,---,0.15,VWS V14.00,2013-05-21 14:55:00,
2013-05-21 09:56:00,70.0,66.6,29.92,South,180,14.0,14.0,89,0.00,,---,0.15,VWS V14.00,2013-05-21 14:56:00,
2013-05-21 09:57:00,70.0,66.6,29.91,SSE,158,7.0,14.0,89,0.00,,---,0.15,VWS V14.00,2013-05-21 14:57:00,
2013-05-21 09:58:00,70.0,66.6,29.91,South,180,9.0,11.0,89,0.00,,---,0.15,VWS V14.00,2013-05-21 14:58:00,
2013-05-21 09:59:00,70.0,66.6,29.91,South,180,9.0,10.0,89,0.00,,---,0.15,VWS V14.00,2013-05-21 14:59:00,
2013-05-21 10:00:00,70.0,66.6,29.91,SSE,158,10.0,11.0,89,0.00,,---,0.15,VWS V14.00,2013-05-21 15:00:00,
2013-05-21 10:01:00,70.0,66.6,29.91,SSE,158,10.0,13.0,89,0.00,,---,0.15,VWS V14.00,2013-05-21 15:01:00,
2013-05-21 10:02:00,70.0,66.6,29.91,SSE,158,8.0,11.0,89,0.00,,---,0.15,VWS V14.00,2013-05-21 15:02:00,
2013-05-21 10:03:00,70.0,66.6,29.91,SE,135,9.0,14.0,89,0.00,,---,0.15,VWS V14.00,2013-05-21 15:03:00,
2013-05-21 10:04:00,70.0,66.6,29.91,South,180,6.0,8.0,89,0.00,,---,0.15,VWS V14.00,2013-05-21 15:04:00,
2013-05-21 10:05:00,70.0,66.6,29.91,South,180,8.0,9.0,89,0.00,,---,0.15,VWS V14.00,2013-05-21 15:05:00,
2013-05-21 10:06:00,70.0,66.6,29.90,SE,135,11.0,11.0,89,0.00,,---,0.15,VWS V14.00,2013-05-21 15:06:00,
2013-05-21 10:07:00,70.0,66.6,29.91,ESE,112,9.0,11.0,89,0.00,,---,0.15,VWS V14.00,2013-05-21 15:07:00,
2013-05-21 10:08:00,70.0,66.6,29.90,SE,135,9.0,11.0,89,0.00,,---,0.15,VWS V14.00,2013-05-21 15:08:00,
2013-05-21 10:09:00,70.0,66.6,29.90,SE,135,14.0,15.0,89,0.00,,---,0.15,VWS V14.00,2013-05-21 15:09:00,
2013-05-21 10:10:00,70.0,66.6,29.90,SE,135,9.0,16.0,89,0.00,,---,0.15,VWS V14.00,2013-05-21 15:10:00,
2013-05-21 10:11:00,70.0,66.6,29.90,SE,135,10.0,13.0,89,0.00,,---,0.15,VWS V14.00,2013-05-21 15:11:00,
2013-05-21 10:12:00,70.0,66.9,29.90,SSE,158,8.0,13.0,90,0.00,,---,0.15,VWS V14.00,2013-05-21 15:12:00,
2013-05-21 10:13:00,70.0,66.9,29.90,SSE,158,11.0,13.0,90,0.00,,---,0.15,VWS V14.00,2013-05-21 15:13:00,
2013-05-21 10:14:00,70.0,66.9,29.90,ESE,112,8.0,13.0,90,0.00,,---,0.15,VWS V14.00,2013-05-21 15:14:00,
2013-05-21 10:15:00,70.0,66.9,29.90,SSE,158,13.0,13.0,90,0.00,,---,0.15,VWS V14.00,2013-05-21 15:15:00,
2013-05-21 10:16:00,70.0,66.9,29.90,ESE,112,12.0,14.0,90,0.00,,---,0.15,VWS V14.00,2013-05-21 15:16:00,
2013-05-21 10:17:00,70.0,66.9,29.90,SSE,158,13.0,13.0,90,0.00,,---,0.15,VWS V14.00,2013-05-21 15:17:00,
2013-05-21 10:18:00,70.0,66.9,29.90,SE,135,13.0,14.0,90,0.00,,---,0.15,VWS V14.00,2013-05-21 15:18:00,
2013-05-21 10:19:00,70.0,66.9,29.91,SSE,158,10.0,16.0,90,0.00,,---,0.15,VWS V14.00,2013-05-21 15:19:00,
2013-05-21 10:20:00,70.0,66.9,29.90,SSE,158,11.0,14.0,90,0.00,,---,0.15,VWS V14.00,2013-05-21 15:20:00,
2013-05-21 10:21:00,69.0,65.9,29.90,SE,135,14.0,18.0,90,0.00,,---,0.15,VWS V14.00,2013-05-21 15:21:00,
2013-05-21 10:22:00,69.0,65.9,29.90,SSE,158,18.0,20.0,90,0.00,,---,0.15,VWS V14.00,2013-05-21 15:22:00,
2013-05-21 10:23:00,69.0,65.9,29.89,SSE,158,18.0,24.0,90,0.00,,---,0.15,VWS V14.00,2013-05-21 15:23:00,
2013-05-21 10:24:00,69.0,65.9,29.89,SE,135,14.0,20.0,90,0.00,,---,0.15,VWS V14.00,2013-05-21 15:24:00,
2013-05-21 10:25:00,69.0,65.9,29.88,ESE,112,13.0,21.0,90,0.00,,---,0.15,VWS V14.00,2013-05-21 15:25:00,
2013-05-21 10:26:00,69.0,66.3,29.89,SSE,158,12.0,17.0,91,0.00,,---,0.15,VWS V14.00,2013-05-21 15:26:00,
2013-05-21 10:27:00,69.0,66.3,29.89,SE,135,17.0,24.0,91,0.00,,---,0.15,VWS V14.00,2013-05-21 15:27:00,
2013-05-21 10:28:00,69.0,66.3,29.90,SE,135,18.0,24.0,91,0.00,,---,0.15,VWS V14.00,2013-05-21 15:28:00,
2013-05-21 10:29:00,69.0,66.3,29.90,SSE,158,19.0,25.0,91,0.00,,---,0.15,VWS V14.00,2013-05-21 15:29:00,
2013-05-21 10:30:00,69.0,66.3,29.90,SSE,158,18.0,26.0,91,0.00,,---,0.15,VWS V14.00,2013-05-21 15:30:00,
2013-05-21 10:31:00,69.0,66.3,29.89,SSE,158,17.0,24.0,91,0.00,,---,0.15,VWS V14.00,2013-05-21 15:31:00,
2013-05-21 10:32:00,69.0,66.6,29.89,SSE,158,20.0,24.0,92,0.00,,---,0.15,VWS V14.00,2013-05-21 15:32:00,
2013-05-21 10:33:00,69.0,66.6,29.90,SSE,158,23.0,23.0,92,0.00,,---,0.15,VWS V14.00,2013-05-21 15:33:00,
2013-05-21 10:34:00,69.0,66.6,29.90,South,180,25.0,31.0,92,0.00,,---,0.15,VWS V14.00,2013-05-21 15:34:00,
2013-05-21 10:35:00,69.0,66.6,29.90,SSE,158,32.0,32.0,92,0.00,,---,0.15,VWS V14.00,2013-05-21 15:35:00,
2013-05-21 10:36:00,69.0,66.6,29.90,SSE,158,14.0,32.0,92,0.00,,---,0.15,VWS V14.00,2013-05-21 15:36:00,
2013-05-21 10:37:00,69.0,66.6,29.90,SSE,158,16.0,18.0,92,0.00,,---,0.15,VWS V14.00,2013-05-21 15:37:00,
2013-05-21 10:38:00,69.0,66.6,29.90,SE,135,20.0,25.0,92,0.00,,---,0.15,VWS V14.00,2013-05-21 15:38:00,
2013-05-21 10:39:00,69.0,66.6,29.91,SSE,158,17.0,25.0,92,0.00,,---,0.15,VWS V14.00,2013-05-21 15:39:00,
2013-05-21 10:40:00,69.0,66.6,29.91,SSE,158,15.0,23.0,92,0.00,,---,0.15,VWS V14.00,2013-05-21 15:40:00,
2013-05-21 10:41:00,69.0,66.6,29.91,SSE,158,14.0,20.0,92,0.00,,---,0.15,VWS V14.00,2013-05-21 15:41:00,
2013-05-21 10:42:00,69.0,66.6,29.91,SSE,158,11.0,21.0,92,0.00,,---,0.15,VWS V14.00,2013-05-21 15:42:00,
2013-05-21 10:43:00,69.0,66.6,29.91,SSE,158,13.0,19.0,92,0.00,,---,0.15,VWS V14.00,2013-05-21 15:43:00,
2013-05-21 10:44:00,69.0,66.6,29.91,SE,135,15.0,21.0,92,0.00,,---,0.15,VWS V14.00,2013-05-21 15:44:00,
2013-05-21 10:45:00,69.0,66.6,29.91,SSE,158,15.0,20.0,92,0.00,,---,0.15,VWS V14.00,2013-05-21 15:45:00,
2013-05-21 10:46:00,69.0,66.6,29.91,SSE,158,15.0,19.0,92,0.00,,---,0.15,VWS V14.00,2013-05-21 15:46:00,
2013-05-21 10:47:00,69.0,66.6,29.91,SE,135,13.0,23.0,92,0.00,,---,0.15,VWS V14.00,2013-05-21 15:47:00,
2013-05-21 10:48:00,69.0,66.9,29.91,South,180,13.0,19.0,93,0.00,,---,0.15,VWS V14.00,2013-05-21 15:48:00,
2013-05-21 10:49:00,69.0,66.9,29.91,SSE,158,11.0,14.0,93,0.00,,---,0.15,VWS V14.00,2013-05-21 15:49:00,
2013-05-21 10:50:00,69.0,66.9,29.91,SSE,158,15.0,18.0,93,0.00,,---,0.15,VWS V14.00,2013-05-21 15:50:00,
2013-05-21 10:51:00,69.0,66.6,29.91,SE,135,18.0,20.0,92,0.00,,---,0.15,VWS V14.00,2013-05-21 15:51:00,
2013-05-21 10:52:00,69.0,66.6,29.91,SE,135,16.0,19.0,92,0.00,,---,0.15,VWS V14.00,2013-05-21 15:52:00,
2013-05-21 10:53:00,69.0,66.9,29.91,SSE,158,14.0,15.0,93,0.00,,---,0.15,VWS V14.00,2013-05-21 15:53:00,
2013-05-21 10:54:00,69.0,66.6,29.90,SSE,158,17.0,21.0,92,0.00,,---,0.15,VWS V14.00,2013-05-21 15:54:00,
2013-05-21 10:55:00,69.0,66.9,29.91,SSE,158,15.0,19.0,93,0.00,,---,0.15,VWS V14.00,2013-05-21 15:55:00,
2013-05-21 10:56:00,69.0,66.6,29.91,SSE,158,11.0,14.0,92,0.00,,---,0.15,VWS V14.00,2013-05-21 15:56:00,
2013-05-21 10:57:00,69.0,66.6,29.91,SSE,158,11.0,14.0,92,0.00,,---,0.15,VWS V14.00,2013-05-21 15:57:00,
2013-05-21 10:58:00,69.0,66.6,29.91,SSE,158,11.0,19.0,92,0.00,,---,0.15,VWS V14.00,2013-05-21 15:58:00,
2013-05-21 10:59:00,69.0,66.6,29.91,SSE,158,12.0,16.0,92,0.00,,---,0.15,VWS V14.00,2013-05-21 15:59:00,
2013-05-21 11:00:00,69.0,66.6,29.91,SSE,158,14.0,18.0,92,0.00,,---,0.15,VWS V14.00,2013-05-21 16:00:00,
2013-05-21 11:01:00,69.0,66.6,29.91,SSE,158,12.0,14.0,92,0.00,,---,0.15,VWS V14.00,2013-05-21 16:01:00,
2013-05-21 11:02:00,69.0,66.6,29.91,SSE,158,9.0,14.0,92,0.00,,---,0.15,VWS V14.00,2013-05-21 16:02:00,
2013-05-21 11:03:00,69.0,66.6,29.91,SSE,158,14.0,15.0,92,0.00,,---,0.15,VWS V14.00,2013-05-21 16:03:00,
2013-05-21 11:04:00,69.0,66.6,29.91,South,180,9.0,14.0,92,0.00,,---,0.15,VWS V14.00,2013-05-21 16:04:00,
2013-05-21 11:05:00,69.0,66.6,29.91,South,180,10.0,14.0,92,0.00,,---,0.15,VWS V14.00,2013-05-21 16:05:00,
2013-05-21 11:06:00,69.0,66.6,29.91,South,180,8.0,13.0,92,0.00,,---,0.15,VWS V14.00,2013-05-21 16:06:00,
2013-05-21 11:07:00,69.0,66.6,29.91,SSW,202,10.0,10.0,92,0.00,,---,0.15,VWS V14.00,2013-05-21 16:07:00,
2013-05-21 11:08:00,69.0,66.3,29.91,SE,135,11.0,11.0,91,0.00,,---,0.15,VWS V14.00,2013-05-21 16:08:00,
2013-05-21 11:09:00,69.0,66.3,29.91,South,180,13.0,13.0,91,0.00,,---,0.15,VWS V14.00,2013-05-21 16:09:00,
2013-05-21 11:10:00,69.0,66.3,29.91,South,180,8.0,14.0,91,0.00,,---,0.15,VWS V14.00,2013-05-21 16:10:00,
2013-05-21 11:11:00,69.0,66.3,29.91,SSW,202,13.0,15.0,91,0.00,,---,0.15,VWS V14.00,2013-05-21 16:11:00,
2013-05-21 11:12:00,70.0,67.3,29.91,South,180,8.0,14.0,91,0.00,,---,0.15,VWS V14.00,2013-05-21 16:12:00,
2013-05-21 11:13:00,69.0,65.9,29.91,South,180,11.0,17.0,90,0.00,,---,0.15,VWS V14.00,2013-05-21 16:13:00,
2013-05-21 11:14:00,70.0,66.9,29.91,SSE,158,10.0,14.0,90,0.00,,---,0.15,VWS V14.00,2013-05-21 16:14:00,
2013-05-21 11:15:00,70.0,67.3,29.91,SSW,202,8.0,13.0,91,0.00,,---,0.15,VWS V14.00,2013-05-21 16:15:00,
2013-05-21 11:16:00,70.0,66.9,29.91,SSE,158,10.0,15.0,90,0.00,,---,0.15,VWS V14.00,2013-05-21 16:16:00,
2013-05-21 11:17:00,70.0,66.9,29.91,SSW,202,10.0,13.0,90,0.00,,---,0.15,VWS V14.00,2013-05-21 16:17:00,
2013-05-21 11:18:00,70.0,66.9,29.91,South,180,8.0,10.0,90,0.00,,---,0.15,VWS V14.00,2013-05-21 16:18:00,
2013-05-21 11:19:00,70.0,66.9,29.91,South,180,13.0,13.0,90,0.00,,---,0.15,VWS V14.00,2013-05-21 16:19:00,
2013-05-21 11:20:00,70.0,66.9,29.91,South,180,10.0,13.0,90,0.00,,---,0.15,VWS V14.00,2013-05-21 16:20:00,
2013-05-21 11:21:00,70.0,66.6,29.91,SSE,158,10.0,12.0,89,0.00,,---,0.15,VWS V14.00,2013-05-21 16:21:00,
2013-05-21 11:22:00,70.0,66.6,29.91,SSE,158,10.0,13.0,89,0.00,,---,0.15,VWS V14.00,2013-05-21 16:22:00,
2013-05-21 11:23:00,70.0,66.6,29.91,SSE,158,8.0,11.0,89,0.00,,---,0.15,VWS V14.00,2013-05-21 16:23:00,
2013-05-21 11:24:00,70.0,66.3,29.91,SSE,158,6.0,11.0,88,0.00,,---,0.15,VWS V14.00,2013-05-21 16:24:00,
2013-05-21 11:25:00,70.0,66.6,29.91,SSE,158,11.0,12.0,89,0.00,,---,0.15,VWS V14.00,2013-05-21 16:25:00,
2013-05-21 11:26:00,70.0,66.3,29.91,SE,135,7.0,11.0,88,0.00,,---,0.15,VWS V14.00,2013-05-21 16:26:00,
2013-05-21 11:27:00,70.0,66.3,29.91,SSE,158,8.0,11.0,88,0.00,,---,0.15,VWS V14.00,2013-05-21 16:27:00,
2013-05-21 11:28:00,70.0,66.3,29.91,SSW,202,10.0,10.0,88,0.00,,---,0.15,VWS V14.00,2013-05-21 16:28:00,
2013-05-21 11:29:00,70.0,66.3,29.91,South,180,8.0,10.0,88,0.00,,---,0.15,VWS V14.00,2013-05-21 16:29:00,
2013-05-21 11:30:00,70.0,66.0,29.91,South,180,10.0,11.0,87,0.00,,---,0.15,VWS V14.00,2013-05-21 16:30:00,
2013-05-21 11:31:00,70.0,66.3,29.91,South,180,7.0,10.0,88,0.00,,---,0.15,VWS V14.00,2013-05-21 16:31:00,
2013-05-21 11:32:00,70.0,66.0,29.91,South,180,10.0,13.0,87,0.00,,---,0.15,VWS V14.00,2013-05-21 16:32:00,
2013-05-21 11:33:00,71.0,66.9,29.91,SSE,158,10.0,11.0,87,0.00,,---,0.15,VWS V14.00,2013-05-21 16:33:00,
2013-05-21 11:34:00,71.0,66.6,29.91,SSE,158,11.0,14.0,86,0.00,,---,0.15,VWS V14.00,2013-05-21 16:34:00,
2013-05-21 11:35:00,71.0,66.6,29.91,South,180,10.0,14.0,86,0.00,,---,0.15,VWS V14.00,2013-05-21 16:35:00,
2013-05-21 11:36:00,71.0,66.6,29.91,SSW,202,8.0,13.0,86,0.00,,---,0.15,VWS V14.00,2013-05-21 16:36:00,
2013-05-21 11:37:00,71.0,66.6,29.91,South,180,5.0,9.0,86,0.00,,---,0.15,VWS V14.00,2013-05-21 16:37:00,
2013-05-21 11:38:00,71.0,66.3,29.91,South,180,10.0,10.0,85,0.00,,---,0.15,VWS V14.00,2013-05-21 16:38:00,
2013-05-21 11:39:00,71.0,66.3,29.91,SSE,158,10.0,14.0,85,0.00,,---,0.15,VWS V14.00,2013-05-21 16:39:00,
2013-05-21 11:40:00,71.0,65.9,29.91,SSW,202,10.0,13.0,84,0.00,,---,0.15,VWS V14.00,2013-05-21 16:40:00,
2013-05-21 11:41:00,71.0,65.9,29.91,SSW,202,11.0,12.0,84,0.00,,---,0.15,VWS V14.00,2013-05-21 16:41:00,
2013-05-21 11:42:00,71.0,65.9,29.91,SSW,202,10.0,11.0,84,0.00,,---,0.15,VWS V14.00,2013-05-21 16:42:00,
2013-05-21 11:43:00,72.0,67.2,29.91,SSE,158,8.0,11.0,85,0.00,,---,0.15,VWS V14.00,2013-05-21 16:43:00,
2013-05-21 11:44:00,71.0,65.6,29.91,South,180,8.0,13.0,83,0.00,,---,0.15,VWS V14.00,2013-05-21 16:44:00,
2013-05-21 11:45:00,71.0,65.6,29.91,SSW,202,13.0,15.0,83,0.00,,---,0.15,VWS V14.00,2013-05-21 16:45:00,
2013-05-21 11:46:00,72.0,66.6,29.91,SSW,202,10.0,13.0,83,0.00,,---,0.15,VWS V14.00,2013-05-21 16:46:00,
2013-05-21 11:47:00,72.0,66.9,29.91,South,180,8.0,11.0,84,0.00,,---,0.15,VWS V14.00,2013-05-21 16:47:00,
2013-05-21 11:48:00,72.0,66.6,29.91,SSW,202,9.0,10.0,83,0.00,,---,0.15,VWS V14.00,2013-05-21 16:48:00,
2013-05-21 11:49:00,72.0,66.6,29.91,South,180,13.0,14.0,83,0.00,,---,0.15,VWS V14.00,2013-05-21 16:49:00,
2013-05-21 11:50:00,72.0,66.2,29.91,SSW,202,9.0,14.0,82,0.00,,---,0.15,VWS V14.00,2013-05-21 16:50:00,
2013-05-21 11:51:00,72.0,66.2,29.91,SSE,158,6.0,12.0,82,0.00,,---,0.15,VWS V14.00,2013-05-21 16:51:00,
2013-05-21 11:52:00,72.0,66.6,29.91,SSE,158,7.0,8.0,83,0.00,,---,0.15,VWS V14.00,2013-05-21 16:52:00,
2013-05-21 11:53:00,72.0,65.9,29.91,SSW,202,6.0,13.0,81,0.00,,---,0.15,VWS V14.00,2013-05-21 16:53:00,
2013-05-21 11:54:00,72.0,66.2,29.91,SSE,158,6.0,12.0,82,0.00,,---,0.15,VWS V14.00,2013-05-21 16:54:00,
2013-05-21 11:55:00,72.0,65.9,29.91,South,180,10.0,12.0,81,0.00,,---,0.15,VWS V14.00,2013-05-21 16:55:00,
2013-05-21 11:56:00,72.0,66.2,29.91,South,180,9.0,11.0,82,0.00,,---,0.15,VWS V14.00,2013-05-21 16:56:00,
2013-05-21 11:57:00,72.0,65.9,29.91,SSE,158,8.0,11.0,81,0.00,,---,0.15,VWS V14.00,2013-05-21 16:57:00,
2013-05-21 11:58:00,72.0,65.9,29.91,South,180,9.0,11.0,81,0.00,,---,0.15,VWS V14.00,2013-05-21 16:58:00,
2013-05-21 11:59:00,72.0,66.2,29.91,SSW,202,7.0,9.0,82,0.00,,---,0.15,VWS V14.00,2013-05-21 16:59:00,
2013-05-21 12:00:00,73.0,67.2,29.91,SSW,202,6.0,9.0,82,0.00,,---,0.15,VWS V14.00,2013-05-21 17:00:00,
2013-05-21 12:01:00,73.0,67.2,29.91,SSW,202,8.0,10.0,82,0.00,,---,0.15,VWS V14.00,2013-05-21 17:01:00,
2013-05-21 12:02:00,72.0,65.9,29.91,South,180,6.0,8.0,81,0.00,,---,0.15,VWS V14.00,2013-05-21 17:02:00,
2013-05-21 12:03:00,73.0,67.2,29.91,SSE,158,9.0,10.0,82,0.00,,---,0.15,VWS V14.00,2013-05-21 17:03:00,
2013-05-21 12:04:00,73.0,66.8,29.90,South,180,9.0,11.0,81,0.00,,---,0.15,VWS V14.00,2013-05-21 17:04:00,
2013-05-21 12:05:00,73.0,66.8,29.91,SSE,158,7.0,11.0,81,0.00,,---,0.15,VWS V14.00,2013-05-21 17:05:00,
2013-05-21 12:06:00,73.0,66.8,29.90,South,180,6.0,10.0,81,0.00,,---,0.15,VWS V14.00,2013-05-21 17:06:00,
2013-05-21 12:07:00,73.0,66.8,29.90,SSW,202,6.0,8.0,81,0.00,,---,0.15,VWS V14.00,2013-05-21 17:07:00,
2013-05-21 12:08:00,73.0,66.1,29.90,SSW,202,6.0,9.0,79,0.00,,---,0.15,VWS V14.00,2013-05-21 17:08:00,
2013-05-21 12:09:00,73.0,66.5,29.90,SSE,158,6.0,10.0,80,0.00,,---,0.15,VWS V14.00,2013-05-21 17:09:00,
2013-05-21 12:10:00,73.0,66.8,29.90,SSE,158,5.0,7.0,81,0.00,,---,0.15,VWS V14.00,2013-05-21 17:10:00,
2013-05-21 12:11:00,73.0,66.5,29.90,SSE,158,9.0,11.0,80,0.00,,---,0.15,VWS V14.00,2013-05-21 17:11:00,
2013-05-21 12:12:00,73.0,66.5,29.90,SSE,158,8.0,10.0,80,0.00,,---,0.15,VWS V14.00,2013-05-21 17:12:00,
2013-05-21 12:13:00,73.0,66.5,29.90,SSE,158,8.0,10.0,80,0.00,,---,0.15,VWS V14.00,2013-05-21 17:13:00,
2013-05-21 12:14:00,73.0,66.5,29.91,South,180,6.0,8.0,80,0.00,,---,0.15,VWS V14.00,2013-05-21 17:14:00,
2013-05-21 12:15:00,73.0,66.5,29.90,SSE,158,6.0,10.0,80,0.00,,---,0.15,VWS V14.00,2013-05-21 17:15:00,
2013-05-21 12:16:00,74.0,67.4,29.90,South,180,6.0,7.0,80,0.00,,---,0.15,VWS V14.00,2013-05-21 17:16:00,
2013-05-21 12:17:00,73.0,65.7,29.90,South,180,9.0,10.0,78,0.00,,---,0.15,VWS V14.00,2013-05-21 17:17:00,
2013-05-21 12:18:00,74.0,67.1,29.90,SSE,158,10.0,11.0,79,0.00,,---,0.15,VWS V14.00,2013-05-21 17:18:00,
2013-05-21 12:19:00,74.0,67.1,29.90,SSE,158,10.0,11.0,79,0.00,,---,0.15,VWS V14.00,2013-05-21 17:19:00,
2013-05-21 12:20:00,74.0,66.7,29.90,South,180,8.0,10.0,78,0.00,,---,0.15,VWS V14.00,2013-05-21 17:20:00,
2013-05-21 12:21:00,74.0,67.4,29.90,SSE,158,5.0,8.0,80,0.00,,---,0.15,VWS V14.00,2013-05-21 17:21:00,
2013-05-21 12:22:00,74.0,66.7,29.90,South,180,8.0,10.0,78,0.00,,---,0.15,VWS V14.00,2013-05-21 17:22:00,
2013-05-21 12:23:00,74.0,66.7,29.90,South,180,6.0,9.0,78,0.00,,---,0.15,VWS V14.00,2013-05-21 17:23:00,
2013-05-21 12:24:00,74.0,66.7,29.90,SSE,158,8.0,9.0,78,0.00,,---,0.15,VWS V14.00,2013-05-21 17:24:00,
2013-05-21 12:25:00,75.0,67.7,29.90,South,180,8.0,11.0,78,0.00,,---,0.15,VWS V14.00,2013-05-21 17:25:00,
2013-05-21 12:26:00,74.0,66.3,29.90,SE,135,6.0,10.0,77,0.00,,---,0.15,VWS V14.00,2013-05-21 17:26:00,
2013-05-21 12:27:00,75.0,67.7,29.90,SSW,202,9.0,9.0,78,0.00,,---,0.15,VWS V14.00,2013-05-21 17:27:00,
2013-05-21 12:28:00,75.0,66.9,29.90,SSE,158,9.0,11.0,76,0.00,,---,0.15,VWS V14.00,2013-05-21 17:28:00,
2013-05-21 12:29:00,75.0,66.9,29.90,South,180,10.0,11.0,76,0.00,,---,0.15,VWS V14.00,2013-05-21 17:29:00,
2013-05-21 12:30:00,75.0,67.3,29.90,SSE,158,8.0,8.0,77,0.00,,---,0.15,VWS V14.00,2013-05-21 17:30:00,
2013-05-21 12:31:00,75.0,66.9,29.91,SSW,202,8.0,11.0,76,0.00,,---,0.15,VWS V14.00,2013-05-21 17:31:00,
2013-05-21 12:32:00,75.0,66.6,29.91,SSW,202,12.0,13.0,75,0.00,,---,0.15,VWS V14.00,2013-05-21 17:32:00,
2013-05-21 12:33:00,75.0,66.2,29.91,South,180,8.0,12.0,74,0.00,,---,0.15,VWS V14.00,2013-05-21 17:33:00,
2013-05-21 12:34:00,76.0,67.5,29.91,South,180,5.0,10.0,75,0.00,,---,0.15,VWS V14.00,2013-05-21 17:34:00,
2013-05-21 12:35:00,76.0,67.1,29.91,South,180,7.0,10.0,74,0.00,,---,0.15,VWS V14.00,2013-05-21 17:35:00,
2013-05-21 12:36:00,76.0,67.5,29.90,SSW,202,8.0,9.0,75,0.00,,---,0.15,VWS V14.00,2013-05-21 17:36:00,
2013-05-21 12:37:00,76.0,67.1,29.90,SSW,202,10.0,11.0,74,0.00,,---,0.15,VWS V14.00,2013-05-21 17:37:00,
2013-05-21 12:38:00,76.0,66.7,29.91,South,180,8.0,15.0,73,0.00,,---,0.15,VWS V14.00,2013-05-21 17:38:00,
2013-05-21 12:39:00,76.0,67.1,29.91,SSW,202,10.0,11.0,74,0.00,,---,0.15,VWS V14.00,2013-05-21 17:39:00,
2013-05-21 12:40:00,77.0,67.7,29.90,SSW,202,7.0,7.0,73,0.00,,---,0.15,VWS V14.00,2013-05-21 17:40:00,
2013-05-21 12:41:00,77.0,67.7,29.90,SSW,202,9.0,10.0,73,0.00,,---,0.15,VWS V14.00,2013-05-21 17:41:00,
2013-05-21 12:42:00,77.0,68.1,29.90,South,180,5.0,10.0,74,0.00,,---,0.15,VWS V14.00,2013-05-21 17:42:00,
2013-05-21 12:43:00,78.0,69.1,29.90,South,180,13.0,13.0,74,0.00,,---,0.15,VWS V14.00,2013-05-21 17:43:00,
2013-05-21 12:44:00,77.0,66.9,29.90,SSW,202,10.0,13.0,71,0.00,,---,0.15,VWS V14.00,2013-05-21 17:44:00,
2013-05-21 12:45:00,77.0,65.6,29.90,SSW,202,12.0,16.0,68,0.00,,---,0.15,VWS V14.00,2013-05-21 17:45:00,
2013-05-21 12:46:00,77.0,66.5,29.89,South,180,8.0,9.0,70,0.00,,---,0.15,VWS V14.00,2013-05-21 17:46:00,
2013-05-21 12:47:00,77.0,66.9,29.89,SSW,202,10.0,13.0,71,0.00,,---,0.15,VWS V14.00,2013-05-21 17:47:00,
2013-05-21 12:48:00,77.0,67.3,29.89,SSW,202,8.0,11.0,72,0.00,,---,0.15,VWS V14.00,2013-05-21 17:48:00,
2013-05-21 12:49:00,78.0,68.2,29.89,SSE,158,5.0,13.0,72,0.00,,---,0.15,VWS V14.00,2013-05-21 17:49:00,
2013-05-21 12:50:00,78.0,67.4,29.89,South,180,8.0,8.0,70,0.00,,---,0.15,VWS V14.00,2013-05-21 17:50:00,
2013-05-21 12:51:00,77.0,65.2,29.89,SSW,202,8.0,9.0,67,0.00,,---,0.15,VWS V14.00,2013-05-21 17:51:00,
2013-05-21 12:52:00,77.0,66.1,29.89,SSW,202,11.0,15.0,69,0.00,,---,0.15,VWS V14.00,2013-05-21 17:52:00,
2013-05-21 12:53:00,78.0,67.0,29.89,SSW,202,8.0,14.0,69,0.00,,---,0.15,VWS V14.00,2013-05-21 17:53:00,
2013-05-21 12:54:00,78.0,67.0,29.89,WSW,248,15.0,18.0,69,0.00,,---,0.15,VWS V14.00,2013-05-21 17:54:00,
2013-05-21 12:55:00,78.0,66.6,29.89,SW,225,13.0,18.0,68,0.00,,---,0.15,VWS V14.00,2013-05-21 17:55:00,
2013-05-21 12:56:00,78.0,66.6,29.89,SW,225,15.0,16.0,68,0.00,,---,0.15,VWS V14.00,2013-05-21 17:56:00,
2013-05-21 12:57:00,78.0,65.7,29.89,SW,225,15.0,20.0,66,0.00,,---,0.15,VWS V14.00,2013-05-21 17:57:00,
2013-05-21 12:58:00,78.0,66.2,29.89,SSW,202,13.0,18.0,67,0.00,,---,0.15,VWS V14.00,2013-05-21 17:58:00,
2013-05-21 12:59:00,78.0,66.2,29.89,SSW,202,16.0,19.0,67,0.00,,---,0.15,VWS V14.00,2013-05-21 17:59:00,
2013-05-21 13:00:00,78.0,66.2,29.89,SSW,202,13.0,21.0,67,0.00,,---,0.15,VWS V14.00,2013-05-21 18:00:00,
2013-05-21 13:01:00,79.0,66.7,29.89,SW,225,17.0,20.0,66,0.00,,---,0.15,VWS V14.00,2013-05-21 18:01:00,
2013-05-21 13:02:00,78.0,65.3,29.89,SW,225,14.0,21.0,65,0.00,,---,0.15,VWS V14.00,2013-05-21 18:02:00,
2013-05-21 13:03:00,78.0,64.8,29.89,SW,225,18.0,20.0,64,0.00,,---,0.15,VWS V14.00,2013-05-21 18:03:00,
2013-05-21 13:04:00,79.0,66.2,29.89,SSW,202,14.0,20.0,65,0.00,,---,0.15,VWS V14.00,2013-05-21 18:04:00,
2013-05-21 13:05:00,79.0,67.1,29.89,SSW,202,17.0,18.0,67,0.00,,---,0.15,VWS V14.00,2013-05-21 18:05:00,
2013-05-21 13:06:00,79.0,66.2,29.89,SSW,202,14.0,18.0,65,0.00,,---,0.15,VWS V14.00,2013-05-21 18:06:00,
2013-05-21 13:07:00,79.0,67.1,29.89,SSW,202,13.0,16.0,67,0.00,,---,0.15,VWS V14.00,2013-05-21 18:07:00,
2013-05-21 13:08:00,79.0,66.2,29.89,SSW,202,13.0,13.0,65,0.00,,---,0.15,VWS V14.00,2013-05-21 18:08:00,
2013-05-21 13:09:00,79.0,66.2,29.89,SSW,202,10.0,19.0,65,0.00,,---,0.15,VWS V14.00,2013-05-21 18:09:00,
2013-05-21 13:10:00,79.0,66.2,29.89,SW,225,16.0,17.0,65,0.00,,---,0.15,VWS V14.00,2013-05-21 18:10:00,
2013-05-21 13:11:00,79.0,66.7,29.89,SSW,202,12.0,17.0,66,0.00,,---,0.15,VWS V14.00,2013-05-21 18:11:00,
2013-05-21 13:12:00,78.0,65.3,29.89,SSW,202,11.0,18.0,65,0.00,,---,0.15,VWS V14.00,2013-05-21 18:12:00,
2013-05-21 13:13:00,78.0,65.3,29.89,South,180,13.0,13.0,65,0.00,,---,0.15,VWS V14.00,2013-05-21 18:13:00,
2013-05-21 13:14:00,79.0,66.7,29.89,SSW,202,14.0,18.0,66,0.00,,---,0.15,VWS V14.00,2013-05-21 18:14:00,
2013-05-21 13:15:00,78.0,65.3,29.89,SSW,202,10.0,21.0,65,0.00,,---,0.15,VWS V14.00,2013-05-21 18:15:00,
2013-05-21 13:16:00,78.0,65.3,29.89,SSW,202,11.0,17.0,65,0.00,,---,0.15,VWS V14.00,2013-05-21 18:16:00,
2013-05-21 13:17:00,78.0,65.7,29.89,SSW,202,14.0,18.0,66,0.00,,---,0.15,VWS V14.00,2013-05-21 18:17:00,
2013-05-21 13:18:00,78.0,65.7,29.89,SW,225,17.0,21.0,66,0.00,,---,0.15,VWS V14.00,2013-05-21 18:18:00,
2013-05-21 13:19:00,78.0,65.7,29.89,SW,225,15.0,15.0,66,0.00,,---,0.15,VWS V14.00,2013-05-21 18:19:00,
2013-05-21 13:20:00,78.0,66.6,29.89,SW,225,10.0,15.0,68,0.00,,---,0.15,VWS V14.00,2013-05-21 18:20:00,
2013-05-21 13:21:00,78.0,66.2,29.89,SSW,202,23.0,23.0,67,0.00,,---,0.15,VWS V14.00,2013-05-21 18:21:00,
2013-05-21 13:22:00,78.0,65.7,29.88,WSW,248,16.0,23.0,66,0.00,,---,0.15,VWS V14.00,2013-05-21 18:22:00,
2013-05-21 13:23:00,78.0,66.2,29.88,SSW,202,14.0,19.0,67,0.00,,---,0.15,VWS V14.00,2013-05-21 18:23:00,
2013-05-21 13:24:00,78.0,66.2,29.88,South,180,14.0,22.0,67,0.00,,---,0.15,VWS V14.00,2013-05-21 18:24:00,
2013-05-21 13:25:00,78.0,65.7,29.88,SSW,202,12.0,18.0,66,0.00,,---,0.15,VWS V14.00,2013-05-21 18:25:00,
2013-05-21 13:26:00,78.0,66.2,29.88,SSW,202,16.0,21.0,67,0.00,,---,0.15,VWS V14.00,2013-05-21 18:26:00,
2013-05-21 13:27:00,78.0,65.7,29.88,SSW,202,15.0,21.0,66,0.00,,---,0.15,VWS V14.00,2013-05-21 18:27:00,
2013-05-21 13:28:00,78.0,66.2,29.88,SSW,202,13.0,15.0,67,0.00,,---,0.15,VWS V14.00,2013-05-21 18:28:00,
2013-05-21 13:29:00,78.0,66.6,29.88,SW,225,8.0,13.0,68,0.00,,---,0.15,VWS V14.00,2013-05-21 18:29:00,
2013-05-21 13:30:00,79.0,67.1,29.88,South,180,16.0,16.0,67,0.00,,---,0.15,VWS V14.00,2013-05-21 18:30:00,
2013-05-21 13:31:00,79.0,67.1,29.89,SW,225,15.0,16.0,67,0.00,,---,0.15,VWS V14.00,2013-05-21 18:31:00,
2013-05-21 13:32:00,79.0,66.7,29.89,SSW,202,18.0,21.0,66,0.00,,---,0.15,VWS V14.00,2013-05-21 18:32:00,
2013-05-21 13:33:00,78.0,66.2,29.89,SW,225,14.0,21.0,67,0.00,,---,0.15,VWS V14.00,2013-05-21 18:33:00,
2013-05-21 13:34:00,79.0,67.1,29.89,SW,225,14.0,16.0,67,0.00,,---,0.15,VWS V14.00,2013-05-21 18:34:00,
2013-05-21 13:35:00,78.0,65.7,29.89,WSW,248,14.0,20.0,66,0.00,,---,0.15,VWS V14.00,2013-05-21 18:35:00,
2013-05-21 13:36:00,78.0,66.2,29.89,SW,225,13.0,19.0,67,0.00,,---,0.15,VWS V14.00,2013-05-21 18:36:00,
2013-05-21 13:37:00,78.0,66.2,29.89,SW,225,17.0,19.0,67,0.00,,---,0.15,VWS V14.00,2013-05-21 18:37:00,
2013-05-21 13:38:00,78.0,66.2,29.89,SW,225,18.0,23.0,67,0.00,,---,0.15,VWS V14.00,2013-05-21 18:38:00,
2013-05-21 13:39:00,79.0,67.6,29.89,SW,225,12.0,18.0,68,0.00,,---,0.15,VWS V14.00,2013-05-21 18:39:00,
2013-05-21 13:40:00,79.0,67.1,29.88,WSW,248,15.0,20.0,67,0.00,,---,0.15,VWS V14.00,2013-05-21 18:40:00,
2013-05-21 13:41:00,78.0,66.2,29.88,SW,225,14.0,19.0,67,0.00,,---,0.15,VWS V14.00,2013-05-21 18:41:00,
2013-05-21 13:42:00,78.0,66.6,29.88,SSW,202,13.0,20.0,68,0.00,,---,0.15,VWS V14.00,2013-05-21 18:42:00,
2013-05-21 13:43:00,79.0,68.0,29.88,SW,225,13.0,16.0,69,0.00,,---,0.15,VWS V14.00,2013-05-21 18:43:00,
2013-05-21 13:44:00,79.0,68.0,29.88,SSW,202,7.0,14.0,69,0.00,,---,0.15,VWS V14.00,2013-05-21 18:44:00,
2013-05-21 13:45:00,79.0,68.0,29.88,SSW,202,8.0,19.0,69,0.00,,---,0.15,VWS V14.00,2013-05-21 18:45:00,
2013-05-21 13:46:00,79.0,68.0,29.88,WSW,248,13.0,14.0,69,0.00,,---,0.15,VWS V14.00,2013-05-21 18:46:00,
2013-05-21 13:47:00,79.0,67.6,29.88,SSW,202,13.0,18.0,68,0.00,,---,0.15,VWS V14.00,2013-05-21 18:47:00,
2013-05-21 13:48:00,79.0,68.0,29.87,SSW,202,11.0,11.0,69,0.00,,---,0.15,VWS V14.00,2013-05-21 18:48:00,
2013-05-21 13:49:00,79.0,68.0,29.87,SW,225,8.0,14.0,69,0.00,,---,0.15,VWS V14.00,2013-05-21 18:49:00,
2013-05-21 13:50:00,79.0,68.0,29.87,WSW,248,13.0,16.0,69,0.00,,---,0.15,VWS V14.00,2013-05-21 18:50:00,
2013-05-21 13:51:00,79.0,68.0,29.87,SSW,202,10.0,14.0,69,0.00,,---,0.15,VWS V14.00,2013-05-21 18:51:00,
2013-05-21 13:52:00,79.0,68.0,29.87,SSW,202,10.0,14.0,69,0.00,,---,0.15,VWS V14.00,2013-05-21 18:52:00,
2013-05-21 13:53:00,79.0,68.0,29.87,SW,225,11.0,15.0,69,0.00,,---,0.15,VWS V14.00,2013-05-21 18:53:00,
2013-05-21 13:54:00,79.0,68.4,29.87,SW,225,12.0,16.0,70,0.00,,---,0.15,VWS V14.00,2013-05-21 18:54:00,
2013-05-21 13:55:00,79.0,68.0,29.87,SSW,202,9.0,13.0,69,0.00,,---,0.15,VWS V14.00,2013-05-21 18:55:00,
2013-05-21 13:56:00,80.0,69.3,29.87,SSW,202,8.0,10.0,70,0.00,,---,0.15,VWS V14.00,2013-05-21 18:56:00,
2013-05-21 13:57:00,80.0,68.9,29.87,SW,225,10.0,13.0,69,0.00,,---,0.15,VWS V14.00,2013-05-21 18:57:00,
2013-05-21 13:58:00,80.0,68.5,29.87,SW,225,9.0,12.0,68,0.00,,---,0.15,VWS V14.00,2013-05-21 18:58:00,
2013-05-21 13:59:00,79.0,67.6,29.87,SSW,202,11.0,15.0,68,0.00,,---,0.15,VWS V14.00,2013-05-21 18:59:00,
2013-05-21 14:00:00,79.0,68.0,29.87,SW,225,12.0,14.0,69,0.00,,---,0.15,VWS V14.00,2013-05-21 19:00:00,
2013-05-21 14:01:00,79.0,68.0,29.86,SSW,202,11.0,14.0,69,0.00,,---,0.15,VWS V14.00,2013-05-21 19:01:00,
2013-05-21 14:02:00,79.0,68.4,29.86,SSW,202,8.0,13.0,70,0.00,,---,0.15,VWS V14.00,2013-05-21 19:02:00,
2013-05-21 14:03:00,79.0,68.4,29.86,SSW,202,10.0,14.0,70,0.00,,---,0.15,VWS V14.00,2013-05-21 19:03:00,
2013-05-21 14:04:00,79.0,68.4,29.86,SW,225,13.0,16.0,70,0.00,,---,0.15,VWS V14.00,2013-05-21 19:04:00,
2013-05-21 14:05:00,79.0,68.4,29.86,SW,225,13.0,16.0,70,0.00,,---,0.15,VWS V14.00,2013-05-21 19:05:00,
2013-05-21 14:06:00,79.0,68.4,29.86,SW,225,10.0,16.0,70,0.00,,---,0.15,VWS V14.00,2013-05-21 19:06:00,
2013-05-21 14:07:00,79.0,68.4,29.86,SW,225,12.0,16.0,70,0.00,,---,0.15,VWS V14.00,2013-05-21 19:07:00,
2013-05-21 14:08:00,79.0,68.4,29.86,SW,225,11.0,12.0,70,0.00,,---,0.15,VWS V14.00,2013-05-21 19:08:00,
2013-05-21 14:09:00,79.0,68.8,29.86,WSW,248,10.0,16.0,71,0.00,,---,0.15,VWS V14.00,2013-05-21 19:09:00,
2013-05-21 14:10:00,79.0,68.8,29.86,SW,225,12.0,14.0,71,0.00,,---,0.15,VWS V14.00,2013-05-21 19:10:00,
2013-05-21 14:11:00,79.0,68.4,29.86,SW,225,15.0,18.0,70,0.00,,---,0.15,VWS V14.00,2013-05-21 19:11:00,
2013-05-21 14:12:00,79.0,68.0,29.86,SW,225,16.0,17.0,69,0.00,,---,0.15,VWS V14.00,2013-05-21 19:12:00,
2013-05-21 14:13:00,79.0,68.0,29.86,WSW,248,19.0,20.0,69,0.00,,---,0.15,VWS V14.00,2013-05-21 19:13:00,
2013-05-21 14:14:00,79.0,68.0,29.86,SSW,202,12.0,12.0,69,0.00,,---,0.15,VWS V14.00,2013-05-21 19:14:00,
2013-05-21 14:15:00,79.0,68.4,29.86,SSW,202,10.0,17.0,70,0.00,,---,0.15,VWS V14.00,2013-05-21 19:15:00,
2013-05-21 14:16:00,79.0,68.0,29.85,SSW,202,21.0,22.0,69,0.00,,---,0.15,VWS V14.00,2013-05-21 19:16:00,
2013-05-21 14:17:00,79.0,68.0,29.85,SW,225,16.0,21.0,69,0.00,,---,0.15,VWS V14.00,2013-05-21 19:17:00,
2013-05-21 14:18:00,79.0,68.4,29.86,SW,225,14.0,18.0,70,0.00,,---,0.15,VWS V14.00,2013-05-21 19:18:00,
2013-05-21 14:19:00,79.0,68.0,29.85,SSW,202,17.0,20.0,69,0.00,,---,0.15,VWS V14.00,2013-05-21 19:19:00,
2013-05-21 14:20:00,79.0,67.6,29.85,SW,225,19.0,21.0,68,0.00,,---,0.15,VWS V14.00,2013-05-21 19:20:00,
2013-05-21 14:21:00,79.0,68.0,29.85,SW,225,15.0,21.0,69,0.00,,---,0.15,VWS V14.00,2013-05-21 19:21:00,
2013-05-21 14:22:00,79.0,68.4,29.85,SW,225,10.0,22.0,70,0.00,,---,0.15,VWS V14.00,2013-05-21 19:22:00,
2013-05-21 14:23:00,78.0,67.0,29.85,SW,225,14.0,18.0,69,0.00,,---,0.15,VWS V14.00,2013-05-21 19:23:00,
2013-05-21 14:24:00,78.0,67.4,29.85,SW,225,13.0,18.0,70,0.00,,---,0.15,VWS V14.00,2013-05-21 19:24:00,
2013-05-21 14:25:00,79.0,68.4,29.86,SW,225,12.0,16.0,70,0.00,,---,0.15,VWS V14.00,2013-05-21 19:25:00,
2013-05-21 14:26:00,79.0,68.4,29.85,SSW,202,11.0,17.0,70,0.00,,---,0.15,VWS V14.00,2013-05-21 19:26:00,
2013-05-21 14:27:00,79.0,68.8,29.85,WSW,248,15.0,16.0,71,0.00,,---,0.15,VWS V14.00,2013-05-21 19:27:00,
2013-05-21 14:28:00,79.0,68.4,29.85,SW,225,11.0,19.0,70,0.00,,---,0.15,VWS V14.00,2013-05-21 19:28:00,
2013-05-21 14:29:00,79.0,68.4,29.85,SSW,202,12.0,17.0,70,0.00,,---,0.15,VWS V14.00,2013-05-21 19:29:00,
2013-05-21 14:30:00,79.0,68.4,29.85,SSW,202,10.0,17.0,70,0.00,,---,0.15,VWS V14.00,2013-05-21 19:30:00,
2013-05-21 14:31:00,79.0,68.4,29.85,SSW,202,12.0,15.0,70,0.00,,---,0.15,VWS V14.00,2013-05-21 19:31:00,
2013-05-21 14:32:00,79.0,68.4,29.85,SSW,202,12.0,13.0,70,0.00,,---,0.15,VWS V14.00,2013-05-21 19:32:00,
2013-05-21 14:33:00,79.0,68.8,29.85,SSW,202,13.0,14.0,71,0.00,,---,0.15,VWS V14.00,2013-05-21 19:33:00,
2013-05-21 14:34:00,79.0,68.8,29.85,SW,225,12.0,14.0,71,0.00,,---,0.15,VWS V14.00,2013-05-21 19:34:00,
2013-05-21 14:35:00,80.0,69.8,29.85,SW,225,10.0,10.0,71,0.00,,---,0.15,VWS V14.00,2013-05-21 19:35:00,
2013-05-21 14:36:00,79.0,68.8,29.85,SSW,202,11.0,14.0,71,0.00,,---,0.15,VWS V14.00,2013-05-21 19:36:00,
2013-05-21 14:37:00,80.0,69.8,29.85,SSW,202,14.0,18.0,71,0.00,,---,0.15,VWS V14.00,2013-05-21 19:37:00,
2013-05-21 14:38:00,79.0,68.8,29.85,SSW,202,14.0,21.0,71,0.00,,---,0.15,VWS V14.00,2013-05-21 19:38:00,
2013-05-21 14:39:00,79.0,69.2,29.85,SSW,202,14.0,18.0,72,0.00,,---,0.15,VWS V14.00,2013-05-21 19:39:00,
2013-05-21 14:40:00,79.0,70.0,29.85,SSW,202,13.0,16.0,74,0.00,,---,0.15,VWS V14.00,2013-05-21 19:40:00,
2013-05-21 14:41:00,80.0,70.6,29.85,SSW,202,13.0,16.0,73,0.00,,---,0.15,VWS V14.00,2013-05-21 19:41:00,
2013-05-21 14:42:00,80.0,70.6,29.85,SSW,202,18.0,18.0,73,0.00,,---,0.15,VWS V14.00,2013-05-21 19:42:00,
2013-05-21 14:43:00,79.0,69.2,29.85,South,180,12.0,19.0,72,0.00,,---,0.15,VWS V14.00,2013-05-21 19:43:00,
2013-05-21 14:44:00,80.0,71.0,29.85,WSW,248,16.0,17.0,74,0.00,,---,0.15,VWS V14.00,2013-05-21 19:44:00,
2013-05-21 14:45:00,80.0,70.6,29.85,SW,225,21.0,22.0,73,0.00,,---,0.15,VWS V14.00,2013-05-21 19:45:00,
2013-05-21 14:46:00,79.0,69.2,29.85,SW,225,18.0,27.0,72,0.00,,---,0.15,VWS V14.00,2013-05-21 19:46:00,
2013-05-21 14:47:00,79.0,69.6,29.85,SW,225,16.0,23.0,73,0.00,,---,0.15,VWS V14.00,2013-05-21 19:47:00,
2013-05-21 14:48:00,79.0,70.0,29.85,SSW,202,11.0,16.0,74,0.00,,---,0.15,VWS V14.00,2013-05-21 19:48:00,
2013-05-21 14:49:00,79.0,69.6,29.85,SSW,202,9.0,19.0,73,0.00,,---,0.15,VWS V14.00,2013-05-21 19:49:00,
2013-05-21 14:50:00,79.0,70.0,29.85,SSW,202,13.0,16.0,74,0.00,,---,0.15,VWS V14.00,2013-05-21 19:50:00,
2013-05-21 14:51:00,79.0,70.0,29.84,SW,225,14.0,15.0,74,0.00,,---,0.15,VWS V14.00,2013-05-21 19:51:00,
2013-05-21 14:52:00,79.0,70.4,29.84,SSW,202,10.0,14.0,75,0.00,,---,0.15,VWS V14.00,2013-05-21 19:52:00,
2013-05-21 14:53:00,79.0,70.0,29.84,SSW,202,14.0,14.0,74,0.00,,---,0.15,VWS V14.00,2013-05-21 19:53:00,
2013-05-21 14:54:00,79.0,70.0,29.84,SSW,202,13.0,16.0,74,0.00,,---,0.15,VWS V14.00,2013-05-21 19:54:00,
2013-05-21 14:55:00,79.0,70.4,29.84,South,180,9.0,14.0,75,0.00,,---,0.15,VWS V14.00,2013-05-21 19:55:00,
2013-05-21 14:56:00,79.0,70.4,29.84,SSW,202,18.0,18.0,75,0.00,,---,0.15,VWS V14.00,2013-05-21 19:56:00,
2013-05-21 14:57:00,78.0,69.1,29.84,SSW,202,16.0,18.0,74,0.00,,---,0.15,VWS V14.00,2013-05-21 19:57:00,
2013-05-21 14:58:00,78.0,69.4,29.84,SSW,202,10.0,16.0,75,0.00,,---,0.15,VWS V14.00,2013-05-21 19:58:00,
2013-05-21 14:59:00,79.0,70.4,29.84,SSW,202,7.0,10.0,75,0.00,,---,0.15,VWS V14.00,2013-05-21 19:59:00,
2013-05-21 15:00:00,79.0,70.4,29.84,SW,225,11.0,13.0,75,0.00,,---,0.15,VWS V14.00,2013-05-21 20:00:00,
2013-05-21 15:01:00,79.0,70.4,29.84,SSW,202,14.0,15.0,75,0.00,,---,0.15,VWS V14.00,2013-05-21 20:01:00,
2013-05-21 15:02:00,79.0,70.8,29.84,SSW,202,10.0,13.0,76,0.00,,---,0.15,VWS V14.00,2013-05-21 20:02:00,
2013-05-21 15:03:00,79.0,70.8,29.84,South,180,8.0,11.0,76,0.00,,---,0.15,VWS V14.00,2013-05-21 20:03:00,
2013-05-21 15:04:00,79.0,70.4,29.84,SSW,202,12.0,16.0,75,0.00,,---,0.15,VWS V14.00,2013-05-21 20:04:00,
2013-05-21 15:05:00,79.0,70.4,29.84,SSW,202,9.0,13.0,75,0.00,,---,0.15,VWS V14.00,2013-05-21 20:05:00,
2013-05-21 15:06:00,79.0,70.8,29.84,SSW,202,7.0,10.0,76,0.00,,---,0.15,VWS V14.00,2013-05-21 20:06:00,
2013-05-21 15:07:00,79.0,70.8,29.84,South,180,8.0,11.0,76,0.00,,---,0.15,VWS V14.00,2013-05-21 20:07:00,
2013-05-21 15:08:00,79.0,70.4,29.84,SSW,202,9.0,13.0,75,0.00,,---,0.15,VWS V14.00,2013-05-21 20:08:00,
2013-05-21 15:09:00,79.0,70.4,29.84,SSW,202,15.0,16.0,75,0.00,,---,0.15,VWS V14.00,2013-05-21 20:09:00,
2013-05-21 15:10:00,79.0,70.4,29.84,SW,225,11.0,15.0,75,0.00,,---,0.15,VWS V14.00,2013-05-21 20:10:00,
2013-05-21 15:11:00,79.0,70.4,29.84,SSW,202,13.0,13.0,75,0.00,,---,0.15,VWS V14.00,2013-05-21 20:11:00,
2013-05-21 15:12:00,79.0,70.8,29.84,South,180,8.0,14.0,76,0.00,,---,0.15,VWS V14.00,2013-05-21 20:12:00,
2013-05-21 15:13:00,79.0,70.4,29.84,SW,225,10.0,14.0,75,0.00,,---,0.15,VWS V14.00,2013-05-21 20:13:00,
2013-05-21 15:14:00,79.0,70.8,29.84,South,180,8.0,11.0,76,0.00,,---,0.15,VWS V14.00,2013-05-21 20:14:00,
2013-05-21 15:15:00,79.0,71.2,29.84,SSW,202,11.0,13.0,77,0.00,,---,0.15,VWS V14.00,2013-05-21 20:15:00,
2013-05-21 15:16:00,79.0,70.4,29.84,SSW,202,13.0,14.0,75,0.00,,---,0.15,VWS V14.00,2013-05-21 20:16:00,
2013-05-21 15:17:00,79.0,70.8,29.84,SW,225,11.0,18.0,76,0.00,,---,0.15,VWS V14.00,2013-05-21 20:17:00,
2013-05-21 15:18:00,79.0,70.8,29.84,SSW,202,13.0,13.0,76,0.00,,---,0.15,VWS V14.00,2013-05-21 20:18:00,
2013-05-21 15:19:00,79.0,70.8,29.84,SSW,202,14.0,17.0,76,0.00,,---,0.15,VWS V14.00,2013-05-21 20:19:00,
2013-05-21 15:20:00,79.0,70.8,29.84,SSW,202,9.0,15.0,76,0.00,,---,0.15,VWS V14.00,2013-05-21 20:20:00,
2013-05-21 15:21:00,79.0,71.2,29.84,South,180,10.0,12.0,77,0.00,,---,0.15,VWS V14.00,2013-05-21 20:21:00,
2013-05-21 15:22:00,79.0,70.8,29.84,WSW,248,11.0,12.0,76,0.00,,---,0.15,VWS V14.00,2013-05-21 20:22:00,
2013-05-21 15:23:00,79.0,70.8,29.84,SSW,202,8.0,14.0,76,0.00,,---,0.15,VWS V14.00,2013-05-21 20:23:00,
2013-05-21 15:24:00,79.0,71.2,29.84,SSW,202,10.0,12.0,77,0.00,,---,0.15,VWS V14.00,2013-05-21 20:24:00,
2013-05-21 15:25:00,79.0,71.2,29.84,SW,225,11.0,13.0,77,0.00,,---,0.15,VWS V14.00,2013-05-21 20:25:00,
2013-05-21 15:26:00,79.0,71.2,29.84,SSW,202,10.0,14.0,77,0.00,,---,0.15,VWS V14.00,2013-05-21 20:26:00,
2013-05-21 15:27:00,79.0,70.8,29.84,SW,225,10.0,14.0,76,0.00,,---,0.15,VWS V14.00,2013-05-21 20:27:00,
2013-05-21 15:28:00,79.0,71.2,29.84,SSW,202,8.0,11.0,77,0.00,,---,0.15,VWS V14.00,2013-05-21 20:28:00,
2013-05-21 15:29:00,79.0,71.2,29.84,SSW,202,10.0,11.0,77,0.00,,---,0.15,VWS V14.00,2013-05-21 20:29:00,
2013-05-21 15:30:00,79.0,71.2,29.84,SSW,202,12.0,13.0,77,0.00,,---,0.15,VWS V14.00,2013-05-21 20:30:00,
2013-05-21 15:31:00,79.0,71.2,29.84,SSW,202,8.0,14.0,77,0.00,,---,0.15,VWS V14.00,2013-05-21 20:31:00,
2013-05-21 15:32:00,79.0,71.2,29.83,SSW,202,6.0,11.0,77,0.00,,---,0.15,VWS V14.00,2013-05-21 20:32:00,
2013-05-21 15:33:00,79.0,71.6,29.83,SSW,202,8.0,10.0,78,0.00,,---,0.15,VWS V14.00,2013-05-21 20:33:00,
2013-05-21 15:34:00,78.0,71.0,29.83,SW,225,7.0,9.0,79,0.00,,---,0.15,VWS V14.00,2013-05-21 20:34:00,
2013-05-21 15:35:00,78.0,71.0,29.83,SSW,202,5.0,9.0,79,0.00,,---,0.15,VWS V14.00,2013-05-21 20:35:00,
2013-05-21 15:36:00,78.0,70.6,29.83,SSW,202,7.0,8.0,78,0.00,,---,0.15,VWS V14.00,2013-05-21 20:36:00,
2013-05-21 15:37:00,78.0,71.0,29.83,SSW,202,5.0,8.0,79,0.00,,---,0.15,VWS V14.00,2013-05-21 20:37:00,
2013-05-21 15:38:00,78.0,71.3,29.83,SSW,202,6.0,6.0,80,0.00,,---,0.15,VWS V14.00,2013-05-21 20:38:00,
2013-05-21 15:39:00,78.0,71.7,29.82,South,180,5.0,6.0,81,0.00,,---,0.15,VWS V14.00,2013-05-21 20:39:00,
2013-05-21 15:40:00,77.0,70.7,29.82,South,180,5.0,9.0,81,0.00,,---,0.15,VWS V14.00,2013-05-21 20:40:00,
2013-05-21 15:41:00,77.0,70.7,29.82,SW,225,5.0,6.0,81,0.00,,---,0.15,VWS V14.00,2013-05-21 20:41:00,
2013-05-21 15:42:00,77.0,70.7,29.82,SSW,202,6.0,6.0,81,0.00,,---,0.15,VWS V14.00,2013-05-21 20:42:00,
2013-05-21 15:43:00,77.0,70.7,29.83,SSW,202,6.0,6.0,81,0.00,,---,0.15,VWS V14.00,2013-05-21 20:43:00,
2013-05-21 15:44:00,77.0,71.1,29.83,SSW,202,5.0,7.0,82,0.00,,---,0.15,VWS V14.00,2013-05-21 20:44:00,
2013-05-21 15:45:00,77.0,71.4,29.83,SSW,202,10.0,11.0,83,0.00,,---,0.15,VWS V14.00,2013-05-21 20:45:00,
2013-05-21 15:46:00,77.0,71.1,29.83,SW,225,10.0,11.0,82,0.00,,---,0.15,VWS V14.00,2013-05-21 20:46:00,
2013-05-21 15:47:00,77.0,71.4,29.83,SSW,202,7.0,11.0,83,0.00,,---,0.15,VWS V14.00,2013-05-21 20:47:00,
2013-05-21 15:48:00,77.0,71.4,29.83,SSW,202,6.0,10.0,83,0.00,,---,0.15,VWS V14.00,2013-05-21 20:48:00,
2013-05-21 15:49:00,77.0,71.4,29.83,SSW,202,6.0,7.0,83,0.00,,---,0.15,VWS V14.00,2013-05-21 20:49:00,
2013-05-21 15:50:00,77.0,71.8,29.84,SSW,202,6.0,7.0,84,0.00,,---,0.15,VWS V14.00,2013-05-21 20:50:00,
2013-05-21 15:51:00,77.0,71.8,29.84,SW,225,6.0,7.0,84,0.00,,---,0.15,VWS V14.00,2013-05-21 20:51:00,
2013-05-21 15:52:00,77.0,71.8,29.84,SSW,202,9.0,10.0,84,0.00,,---,0.15,VWS V14.00,2013-05-21 20:52:00,
2013-05-21 15:53:00,77.0,71.8,29.84,SSW,202,5.0,10.0,84,0.00,,---,0.15,VWS V14.00,2013-05-21 20:53:00,
2013-05-21 15:54:00,77.0,72.2,29.84,SW,225,7.0,10.0,85,0.00,,---,0.15,VWS V14.00,2013-05-21 20:54:00,
2013-05-21 15:55:00,77.0,71.8,29.84,SW,225,8.0,10.0,84,0.00,,---,0.15,VWS V14.00,2013-05-21 20:55:00,
2013-05-21 15:56:00,77.0,71.8,29.84,SW,225,7.0,11.0,84,0.00,,---,0.15,VWS V14.00,2013-05-21 20:56:00,
2013-05-21 15:57:00,77.0,71.8,29.84,SW,225,6.0,9.0,84,0.00,,---,0.15,VWS V14.00,2013-05-21 20:57:00,
2013-05-21 15:58:00,77.0,72.2,29.84,WSW,248,6.0,9.0,85,0.00,,---,0.15,VWS V14.00,2013-05-21 20:58:00,
2013-05-21 15:59:00,77.0,72.2,29.83,SSW,202,7.0,8.0,85,0.00,,---,0.15,VWS V14.00,2013-05-21 20:59:00,
2013-05-21 16:00:00,77.0,71.8,29.83,SSW,202,8.0,9.0,84,0.00,,---,0.15,VWS V14.00,2013-05-21 21:00:00,
2013-05-21 16:01:00,77.0,71.8,29.83,SW,225,12.0,13.0,84,0.00,,---,0.15,VWS V14.00,2013-05-21 21:01:00,
2013-05-21 16:02:00,77.0,71.4,29.83,SSW,202,11.0,14.0,83,0.00,,---,0.15,VWS V14.00,2013-05-21 21:02:00,
2013-05-21 16:03:00,77.0,71.4,29.83,SSW,202,6.0,10.0,83,0.00,,---,0.15,VWS V14.00,2013-05-21 21:03:00,
2013-05-21 16:04:00,77.0,71.4,29.83,SSW,202,10.0,10.0,83,0.00,,---,0.15,VWS V14.00,2013-05-21 21:04:00,
2013-05-21 16:05:00,77.0,71.4,29.83,SSW,202,10.0,10.0,83,0.00,,---,0.15,VWS V14.00,2013-05-21 21:05:00,
2013-05-21 16:06:00,77.0,71.1,29.83,SSW,202,13.0,14.0,82,0.00,,---,0.15,VWS V14.00,2013-05-21 21:06:00,
2013-05-21 16:07:00,77.0,71.1,29.83,South,180,9.0,13.0,82,0.00,,---,0.15,VWS V14.00,2013-05-21 21:07:00,
2013-05-21 16:08:00,77.0,70.7,29.83,SSE,158,13.0,13.0,81,0.00,,---,0.15,VWS V14.00,2013-05-21 21:08:00,
2013-05-21 16:09:00,77.0,71.1,29.83,South,180,7.0,13.0,82,0.00,,---,0.15,VWS V14.00,2013-05-21 21:09:00,
2013-05-21 16:10:00,77.0,71.1,29.83,SSW,202,12.0,13.0,82,0.00,,---,0.15,VWS V14.00,2013-05-21 21:10:00,
2013-05-21 16:11:00,77.0,71.1,29.84,SW,225,9.0,12.0,82,0.00,,---,0.15,VWS V14.00,2013-05-21 21:11:00,
2013-05-21 16:12:00,77.0,71.1,29.84,SSW,202,11.0,12.0,82,0.00,,---,0.15,VWS V14.00,2013-05-21 21:12:00,
2013-05-21 16:13:00,77.0,71.1,29.84,South,180,9.0,12.0,82,0.00,,---,0.15,VWS V14.00,2013-05-21 21:13:00,
2013-05-21 16:14:00,77.0,71.1,29.84,SSW,202,9.0,13.0,82,0.00,,---,0.15,VWS V14.00,2013-05-21 21:14:00,
2013-05-21 16:15:00,77.0,71.1,29.84,SSW,202,8.0,10.0,82,0.00,,---,0.15,VWS V14.00,2013-05-21 21:15:00,
2013-05-21 16:16:00,77.0,71.1,29.84,South,180,11.0,12.0,82,0.00,,---,0.15,VWS V14.00,2013-05-21 21:16:00,
2013-05-21 16:17:00,77.0,71.1,29.84,SSW,202,11.0,11.0,82,0.00,,---,0.15,VWS V14.00,2013-05-21 21:17:00,
2013-05-21 16:18:00,77.0,71.4,29.84,SSE,158,9.0,13.0,83,0.00,,---,0.15,VWS V14.00,2013-05-21 21:18:00,
2013-05-21 16:19:00,77.0,71.4,29.84,South,180,9.0,13.0,83,0.00,,---,0.15,VWS V14.00,2013-05-21 21:19:00,
2013-05-21 16:20:00,77.0,71.4,29.84,South,180,6.0,10.0,83,0.00,,---,0.15,VWS V14.00,2013-05-21 21:20:00,
2013-05-21 16:21:00,77.0,71.4,29.83,South,180,11.0,13.0,83,0.00,,---,0.15,VWS V14.00,2013-05-21 21:21:00,
2013-05-21 16:22:00,76.0,70.5,29.83,South,180,11.0,14.0,83,0.00,,---,0.15,VWS V14.00,2013-05-21 21:22:00,
2013-05-21 16:23:00,76.0,70.5,29.83,South,180,7.0,11.0,83,0.00,,---,0.15,VWS V14.00,2013-05-21 21:23:00,
2013-05-21 16:24:00,76.0,70.5,29.83,South,180,10.0,13.0,83,0.00,,---,0.15,VWS V14.00,2013-05-21 21:24:00,
2013-05-21 16:25:00,76.0,70.8,29.83,SSW,202,8.0,11.0,84,0.00,,---,0.15,VWS V14.00,2013-05-21 21:25:00,
2013-05-21 16:26:00,76.0,70.8,29.83,SSW,202,8.0,10.0,84,0.00,,---,0.15,VWS V14.00,2013-05-21 21:26:00,
2013-05-21 16:27:00,76.0,70.8,29.82,SSW,202,8.0,11.0,84,0.00,,---,0.15,VWS V14.00,2013-05-21 21:27:00,
2013-05-21 16:28:00,76.0,70.8,29.83,SSW,202,5.0,8.0,84,0.00,,---,0.15,VWS V14.00,2013-05-21 21:28:00,
2013-05-21 16:29:00,76.0,70.8,29.83,South,180,5.0,8.0,84,0.00,,---,0.15,VWS V14.00,2013-05-21 21:29:00,
2013-05-21 16:30:00,76.0,71.2,29.83,SSW,202,8.0,9.0,85,0.00,,---,0.15,VWS V14.00,2013-05-21 21:30:00,
2013-05-21 16:31:00,76.0,71.2,29.83,South,180,5.0,9.0,85,0.00,,---,0.15,VWS V14.00,2013-05-21 21:31:00,
2013-05-21 16:32:00,76.0,71.2,29.82,SSW,202,8.0,10.0,85,0.00,,---,0.15,VWS V14.00,2013-05-21 21:32:00,
2013-05-21 16:33:00,76.0,71.5,29.82,South,180,7.0,8.0,86,0.01,,---,0.16,VWS V14.00,2013-05-21 21:33:00,
2013-05-21 16:34:00,76.0,71.5,29.83,South,180,5.0,9.0,86,0.01,,---,0.16,VWS V14.00,2013-05-21 21:34:00,
2013-05-21 16:35:00,76.0,71.9,29.83,South,180,6.0,7.0,87,0.01,,---,0.16,VWS V14.00,2013-05-21 21:35:00,
2013-05-21 16:36:00,75.0,70.9,29.83,SSE,158,7.0,8.0,87,0.01,,---,0.16,VWS V14.00,2013-05-21 21:36:00,
2013-05-21 16:37:00,75.0,71.2,29.83,SSE,158,6.0,8.0,88,0.01,,---,0.16,VWS V14.00,2013-05-21 21:37:00,
2013-05-21 16:38:00,75.0,71.5,29.83,South,180,8.0,10.0,89,0.01,,---,0.16,VWS V14.00,2013-05-21 21:38:00,
2013-05-21 16:39:00,75.0,71.5,29.83,SSE,158,6.0,8.0,89,0.02,,---,0.17,VWS V14.00,2013-05-21 21:39:00,
2013-05-21 16:40:00,74.0,70.9,29.83,SSE,158,7.0,8.0,90,0.02,,---,0.17,VWS V14.00,2013-05-21 21:40:00,
2013-05-21 16:41:00,74.0,70.9,29.83,SSE,158,5.0,8.0,90,0.02,,---,0.17,VWS V14.00,2013-05-21 21:41:00,
2013-05-21 16:42:00,74.0,70.9,29.83,South,180,6.0,6.0,90,0.02,,---,0.17,VWS V14.00,2013-05-21 21:42:00,
2013-05-21 16:43:00,74.0,71.2,29.83,South,180,6.0,7.0,91,0.02,,---,0.17,VWS V14.00,2013-05-21 21:43:00,
2013-05-21 16:44:00,74.0,71.2,29.83,South,180,6.0,7.0,91,0.02,,---,0.17,VWS V14.00,2013-05-21 21:44:00,
2013-05-21 16:45:00,74.0,71.2,29.83,South,180,5.0,8.0,91,0.02,,---,0.17,VWS V14.00,2013-05-21 21:45:00,
2013-05-21 16:46:00,74.0,71.5,29.83,South,180,5.0,6.0,92,0.02,,---,0.17,VWS V14.00,2013-05-21 21:46:00,
2013-05-21 16:47:00,74.0,71.5,29.83,SSW,202,6.0,8.0,92,0.02,,---,0.17,VWS V14.00,2013-05-21 21:47:00,
2013-05-21 16:48:00,74.0,71.5,29.83,SSE,158,6.0,8.0,92,0.02,,---,0.17,VWS V14.00,2013-05-21 21:48:00,
2013-05-21 16:49:00,74.0,71.8,29.83,South,180,8.0,8.0,93,0.02,,---,0.17,VWS V14.00,2013-05-21 21:49:00,
2013-05-21 16:50:00,73.0,70.9,29.83,South,180,6.0,9.0,93,0.02,,---,0.17,VWS V14.00,2013-05-21 21:50:00,
2013-05-21 16:51:00,73.0,70.9,29.83,South,180,8.0,10.0,93,0.02,,---,0.17,VWS V14.00,2013-05-21 21:51:00,
2013-05-21 16:52:00,73.0,70.9,29.84,South,180,9.0,9.0,93,0.02,,---,0.17,VWS V14.00,2013-05-21 21:52:00,
2013-05-21 16:53:00,73.0,71.2,29.84,SSW,202,10.0,12.0,94,0.02,,---,0.17,VWS V14.00,2013-05-21 21:53:00,
2013-05-21 16:54:00,73.0,71.2,29.84,SSW,202,10.0,11.0,94,0.02,,---,0.17,VWS V14.00,2013-05-21 21:54:00,
2013-05-21 16:55:00,73.0,71.2,29.84,SSW,202,6.0,10.0,94,0.02,,---,0.17,VWS V14.00,2013-05-21 21:55:00,
2013-05-21 16:56:00,73.0,71.2,29.84,SW,225,8.0,10.0,94,0.02,,---,0.17,VWS V14.00,2013-05-21 21:56:00,
2013-05-21 16:57:00,73.0,71.2,29.84,SW,225,8.0,9.0,94,0.04,,---,0.19,VWS V14.00,2013-05-21 21:57:00,
2013-05-21 16:58:00,73.0,71.2,29.84,SW,225,11.0,12.0,94,0.05,,---,0.20,VWS V14.00,2013-05-21 21:58:00,
2013-05-21 16:59:00,73.0,71.2,29.85,SW,225,7.0,12.0,94,0.06,,---,0.21,VWS V14.00,2013-05-21 21:59:00,
2013-05-21 17:00:00,73.0,71.5,29.86,SW,225,16.0,16.0,95,0.06,,---,0.21,VWS V14.00,2013-05-21 22:00:00,
2013-05-21 17:01:00,73.0,71.5,29.86,South,180,14.0,20.0,95,0.07,,---,0.22,VWS V14.00,2013-05-21 22:01:00,
2013-05-21 17:02:00,73.0,71.5,29.86,SSW,202,18.0,22.0,95,0.09,,---,0.24,VWS V14.00,2013-05-21 22:02:00,
2013-05-21 17:03:00,72.0,70.2,29.86,SSW,202,16.0,21.0,94,0.11,,---,0.26,VWS V14.00,2013-05-21 22:03:00,
2013-05-21 17:04:00,71.0,69.2,29.86,SSW,202,18.0,26.0,94,0.11,,---,0.26,VWS V14.00,2013-05-21 22:04:00,
2013-05-21 17:05:00,71.0,68.9,29.86,SSW,202,15.0,21.0,93,0.12,,---,0.27,VWS V14.00,2013-05-21 22:05:00,
2013-05-21 17:06:00,70.0,67.9,29.86,SW,225,13.0,20.0,93,0.12,,---,0.27,VWS V14.00,2013-05-21 22:06:00,
2013-05-21 17:07:00,70.0,67.9,29.86,SW,225,12.0,16.0,93,0.13,,---,0.28,VWS V14.00,2013-05-21 22:07:00,
2013-05-21 17:08:00,70.0,67.9,29.86,SSW,202,13.0,16.0,93,0.13,,---,0.28,VWS V14.00,2013-05-21 22:08:00,
2013-05-21 17:09:00,70.0,67.9,29.86,South,180,12.0,15.0,93,0.13,,---,0.28,VWS V14.00,2013-05-21 22:09:00,
2013-05-21 17:10:00,70.0,68.2,29.87,SSW,202,13.0,19.0,94,0.14,,---,0.29,VWS V14.00,2013-05-21 22:10:00,
2013-05-21 17:11:00,70.0,68.2,29.87,SSW,202,13.0,14.0,94,0.14,,---,0.29,VWS V14.00,2013-05-21 22:11:00,
2013-05-21 17:12:00,70.0,68.2,29.88,SSW,202,14.0,17.0,94,0.14,,---,0.29,VWS V14.00,2013-05-21 22:12:00,
2013-05-21 17:13:00,69.0,66.9,29.87,SSW,202,14.0,19.0,93,0.14,,---,0.29,VWS V14.00,2013-05-21 22:13:00,
2013-05-21 17:14:00,70.0,68.2,29.87,SSW,202,13.0,15.0,94,0.15,,---,0.30,VWS V14.00,2013-05-21 22:14:00,
2013-05-21 17:15:00,69.0,66.9,29.87,SW,225,16.0,17.0,93,0.15,,---,0.30,VWS V14.00,2013-05-21 22:15:00,
2013-05-21 17:16:00,69.0,66.9,29.86,SSW,202,13.0,13.0,93,0.15,,---,0.30,VWS V14.00,2013-05-21 22:16:00,
2013-05-21 17:17:00,70.0,68.2,29.86,SSW,202,12.0,12.0,94,0.16,,---,0.31,VWS V14.00,2013-05-21 22:17:00,
2013-05-21 17:18:00,70.0,68.2,29.86,SSW,202,8.0,14.0,94,0.18,,---,0.33,VWS V14.00,2013-05-21 22:18:00,
2013-05-21 17:19:00,69.0,67.2,29.85,SSW,202,6.0,6.0,94,0.20,,---,0.35,VWS V14.00,2013-05-21 22:19:00,
2013-05-21 17:20:00,69.0,67.2,29.85,SW,225,10.0,11.0,94,0.22,,---,0.37,VWS V14.00,2013-05-21 22:20:00,
2013-05-21 17:21:00,69.0,67.2,29.85,SW,225,9.0,12.0,94,0.23,,---,0.38,VWS V14.00,2013-05-21 22:21:00,
2013-05-21 17:22:00,69.0,67.5,29.84,SW,225,10.0,10.0,95,0.24,,---,0.39,VWS V14.00,2013-05-21 22:22:00,
2013-05-21 17:23:00,69.0,67.5,29.84,SW,225,8.0,8.0,95,0.27,,---,0.42,VWS V14.00,2013-05-21 22:23:00,
2013-05-21 17:24:00,68.0,66.5,29.83,WSW,248,5.0,8.0,95,0.28,,---,0.43,VWS V14.00,2013-05-21 22:24:00,
2013-05-21 17:25:00,68.0,66.5,29.83,SW,225,3.0,3.0,95,0.29,,---,0.44,VWS V14.00,2013-05-21 22:25:00,
2013-05-21 17:26:00,68.0,66.5,29.83,SSW,202,4.0,6.0,95,0.30,,---,0.45,VWS V14.00,2013-05-21 22:26:00,
2013-05-21 17:27:00,68.0,66.8,29.83,SW,225,4.0,6.0,96,0.31,,---,0.46,VWS V14.00,2013-05-21 22:27:00,
2013-05-21 17:28:00,68.0,66.8,29.83,SSW,202,5.0,6.0,96,0.31,,---,0.46,VWS V14.00,2013-05-21 22:28:00,
2013-05-21 17:29:00,68.0,66.8,29.84,South,180,6.0,6.0,96,0.32,,---,0.47,VWS V14.00,2013-05-21 22:29:00,
2013-05-21 17:30:00,68.0,67.1,29.84,South,180,8.0,8.0,97,0.32,,---,0.47,VWS V14.00,2013-05-21 22:30:00,
2013-05-21 17:31:00,68.0,67.1,29.85,South,180,7.0,10.0,97,0.32,,---,0.47,VWS V14.00,2013-05-21 22:31:00,
2013-05-21 17:32:00,68.0,67.1,29.86,South,180,8.0,9.0,97,0.32,,---,0.47,VWS V14.00,2013-05-21 22:32:00,
2013-05-21 17:33:00,68.0,67.1,29.86,South,180,6.0,9.0,97,0.32,,---,0.47,VWS V14.00,2013-05-21 22:33:00,
2013-05-21 17:34:00,68.0,67.4,29.86,SSE,158,6.0,9.0,98,0.31,,---,0.47,VWS V14.00,2013-05-21 22:34:00,
2013-05-21 17:35:00,68.0,67.4,29.85,South,180,7.0,10.0,98,0.32,,---,0.48,VWS V14.00,2013-05-21 22:35:00,
2013-05-21 17:36:00,68.0,67.4,29.85,South,180,6.0,6.0,98,0.32,,---,0.48,VWS V14.00,2013-05-21 22:36:00,
2013-05-21 17:37:00,68.0,67.4,29.85,South,180,6.0,9.0,98,0.32,,---,0.48,VWS V14.00,2013-05-21 22:37:00,
2013-05-21 17:38:00,68.0,67.4,29.85,South,180,5.0,8.0,98,0.33,,---,0.49,VWS V14.00,2013-05-21 22:38:00,
2013-05-21 17:39:00,68.0,67.4,29.85,South,180,5.0,6.0,98,0.33,,---,0.49,VWS V14.00,2013-05-21 22:39:00,
2013-05-21 17:40:00,68.0,67.4,29.85,SSE,158,6.0,6.0,98,0.32,,---,0.49,VWS V14.00,2013-05-21 22:40:00,
2013-05-21 17:41:00,68.0,67.4,29.85,SE,135,6.0,6.0,98,0.33,,---,0.50,VWS V14.00,2013-05-21 22:41:00,
2013-05-21 17:42:00,68.0,67.4,29.86,SSE,158,6.0,7.0,98,0.33,,---,0.50,VWS V14.00,2013-05-21 22:42:00,
2013-05-21 17:43:00,68.0,67.4,29.85,SE,135,6.0,7.0,98,0.33,,---,0.50,VWS V14.00,2013-05-21 22:43:00,
2013-05-21 17:44:00,67.0,66.4,29.86,SSE,158,6.0,9.0,98,0.34,,---,0.51,VWS V14.00,2013-05-21 22:44:00,
2013-05-21 17:45:00,67.0,66.4,29.86,SE,135,6.0,10.0,98,0.34,,---,0.51,VWS V14.00,2013-05-21 22:45:00,
2013-05-21 17:46:00,67.0,66.4,29.86,SE,135,8.0,10.0,98,0.34,,---,0.51,VWS V14.00,2013-05-21 22:46:00,
2013-05-21 17:47:00,67.0,66.4,29.86,SSE,158,8.0,9.0,98,0.34,,---,0.51,VWS V14.00,2013-05-21 22:47:00,
2013-05-21 17:48:00,67.0,66.4,29.85,SE,135,6.0,10.0,98,0.34,,---,0.51,VWS V14.00,2013-05-21 22:48:00,
2013-05-21 17:49:00,67.0,66.4,29.85,SE,135,7.0,7.0,98,0.35,,---,0.52,VWS V14.00,2013-05-21 22:49:00,
2013-05-21 17:50:00,67.0,66.4,29.85,SE,135,5.0,8.0,98,0.35,,---,0.52,VWS V14.00,2013-05-21 22:50:00,
2013-05-21 17:51:00,67.0,66.7,29.84,SSE,158,6.0,8.0,99,0.35,,---,0.52,VWS V14.00,2013-05-21 22:51:00,
2013-05-21 17:52:00,67.0,66.7,29.84,SSE,158,5.0,6.0,99,0.35,,---,0.52,VWS V14.00,2013-05-21 22:52:00,
2013-05-21 17:53:00,67.0,66.7,29.84,SE,135,7.0,8.0,99,0.36,,---,0.53,VWS V14.00,2013-05-21 22:53:00,
2013-05-21 17:54:00,67.0,66.7,29.84,SE,135,6.0,6.0,99,0.36,,---,0.53,VWS V14.00,2013-05-21 22:54:00,
2013-05-21 17:55:00,67.0,66.7,29.84,SSE,158,6.0,9.0,99,0.36,,---,0.53,VWS V14.00,2013-05-21 22:55:00,
2013-05-21 17:56:00,67.0,66.7,29.84,SE,135,8.0,8.0,99,0.37,,---,0.54,VWS V14.00,2013-05-21 22:56:00,
2013-05-21 17:57:00,67.0,66.7,29.84,SSE,158,5.0,8.0,99,0.37,,---,0.54,VWS V14.00,2013-05-21 22:57:00,
2013-05-21 17:58:00,67.0,66.7,29.83,SE,135,5.0,8.0,99,0.35,,---,0.54,VWS V14.00,2013-05-21 22:58:00,
2013-05-21 17:59:00,67.0,66.7,29.83,SE,135,4.0,6.0,99,0.34,,---,0.54,VWS V14.00,2013-05-21 22:59:00,
2013-05-21 18:00:00,67.0,66.7,29.83,East,90,5.0,6.0,99,0.33,,---,0.54,VWS V14.00,2013-05-21 23:00:00,
2013-05-21 18:01:00,67.0,66.7,29.83,SE,135,5.0,5.0,99,0.33,,---,0.54,VWS V14.00,2013-05-21 23:01:00,
2013-05-21 18:02:00,67.0,66.7,29.83,SE,135,6.0,8.0,99,0.32,,---,0.54,VWS V14.00,2013-05-21 23:02:00,
2013-05-21 18:03:00,67.0,66.7,29.83,ESE,112,3.0,6.0,99,0.30,,---,0.54,VWS V14.00,2013-05-21 23:03:00,
2013-05-21 18:04:00,67.0,66.7,29.83,SE,135,5.0,6.0,99,0.29,,---,0.55,VWS V14.00,2013-05-21 23:04:00,
2013-05-21 18:05:00,67.0,66.7,29.83,SE,135,5.0,5.0,99,0.29,,---,0.55,VWS V14.00,2013-05-21 23:05:00,
2013-05-21 18:06:00,67.0,66.7,29.83,SSE,158,5.0,6.0,99,0.28,,---,0.55,VWS V14.00,2013-05-21 23:06:00,
2013-05-21 18:07:00,67.0,66.7,29.83,SE,135,5.0,6.0,99,0.28,,---,0.55,VWS V14.00,2013-05-21 23:07:00,
2013-05-21 18:08:00,67.0,66.7,29.83,ESE,112,5.0,7.0,99,0.27,,---,0.55,VWS V14.00,2013-05-21 23:08:00,
2013-05-21 18:09:00,67.0,66.7,29.83,ESE,112,5.0,6.0,99,0.28,,---,0.56,VWS V14.00,2013-05-21 23:09:00,
2013-05-21 18:10:00,67.0,66.7,29.83,SSE,158,2.0,5.0,99,0.28,,---,0.56,VWS V14.00,2013-05-21 23:10:00,
2013-05-21 18:11:00,67.0,66.7,29.83,ESE,112,5.0,6.0,99,0.27,,---,0.56,VWS V14.00,2013-05-21 23:11:00,
2013-05-21 18:12:00,67.0,66.7,29.83,East,90,5.0,5.0,99,0.27,,---,0.56,VWS V14.00,2013-05-21 23:12:00,
2013-05-21 18:13:00,67.0,66.7,29.83,ESE,112,3.0,5.0,99,0.28,,---,0.57,VWS V14.00,2013-05-21 23:13:00,
2013-05-21 18:14:00,67.0,66.7,29.83,ESE,112,6.0,6.0,99,0.28,,---,0.57,VWS V14.00,2013-05-21 23:14:00,
2013-05-21 18:15:00,67.0,66.7,29.84,SE,135,5.0,8.0,99,0.28,,---,0.58,VWS V14.00,2013-05-21 23:15:00,
2013-05-21 18:16:00,67.0,67.0,29.84,SSE,158,8.0,8.0,100,0.28,,---,0.58,VWS V14.00,2013-05-21 23:16:00,
2013-05-21 18:17:00,67.0,67.0,29.84,SE,135,6.0,8.0,100,0.29,,---,0.59,VWS V14.00,2013-05-21 23:17:00,
2013-05-21 18:18:00,67.0,67.0,29.84,SE,135,7.0,8.0,100,0.28,,---,0.59,VWS V14.00,2013-05-21 23:18:00,
2013-05-21 18:19:00,67.0,67.0,29.84,SSE,158,7.0,9.0,100,0.26,,---,0.59,VWS V14.00,2013-05-21 23:19:00,
2013-05-21 18:20:00,67.0,67.0,29.84,SE,135,8.0,10.0,100,0.25,,---,0.60,VWS V14.00,2013-05-21 23:20:00,
2013-05-21 18:21:00,67.0,67.0,29.84,SE,135,10.0,11.0,100,0.23,,---,0.60,VWS V14.00,2013-05-21 23:21:00,
2013-05-21 18:22:00,67.0,67.0,29.85,SSE,158,12.0,13.0,100,0.22,,---,0.60,VWS V14.00,2013-05-21 23:22:00,
2013-05-21 18:23:00,67.0,67.0,29.85,SSE,158,10.0,12.0,100,0.22,,---,0.61,VWS V14.00,2013-05-21 23:23:00,
2013-05-21 18:24:00,67.0,67.0,29.85,SSE,158,10.0,11.0,100,0.19,,---,0.61,VWS V14.00,2013-05-21 23:24:00,
2013-05-21 18:25:00,67.0,67.0,29.85,SE,135,10.0,11.0,100,0.18,,---,0.61,VWS V14.00,2013-05-21 23:25:00,
2013-05-21 18:26:00,67.0,67.0,29.85,SE,135,10.0,13.0,100,0.18,,---,0.62,VWS V14.00,2013-05-21 23:26:00,
2013-05-21 18:27:00,67.0,67.0,29.85,SE,135,12.0,14.0,100,0.17,,---,0.62,VWS V14.00,2013-05-21 23:27:00,
2013-05-21 18:28:00,67.0,67.0,29.85,SSE,158,11.0,13.0,100,0.16,,---,0.62,VWS V14.00,2013-05-21 23:28:00,
2013-05-21 18:29:00,67.0,67.0,29.85,SSE,158,11.0,16.0,100,0.17,,---,0.63,VWS V14.00,2013-05-21 23:29:00,
2013-05-21 18:30:00,67.0,67.0,29.85,SE,135,12.0,14.0,100,0.16,,---,0.63,VWS V14.00,2013-05-21 23:30:00,
2013-05-21 18:31:00,67.0,67.0,29.85,SE,135,14.0,14.0,100,0.16,,---,0.63,VWS V14.00,2013-05-21 23:31:00,
2013-05-21 18:32:00,67.0,67.0,29.85,SSE,158,12.0,12.0,100,0.16,,---,0.63,VWS V14.00,2013-05-21 23:32:00,
2013-05-21 18:33:00,67.0,67.0,29.86,SSE,158,10.0,18.0,100,0.17,,---,0.64,VWS V14.00,2013-05-21 23:33:00,
2013-05-21 18:34:00,67.0,67.0,29.86,SSE,158,10.0,17.0,100,0.17,,---,0.64,VWS V14.00,2013-05-21 23:34:00,
2013-05-21 18:35:00,67.0,67.0,29.86,SE,135,10.0,21.0,100,0.17,,---,0.64,VWS V14.00,2013-05-21 23:35:00,
2013-05-21 18:36:00,67.0,67.0,29.86,SSE,158,16.0,19.0,100,0.16,,---,0.64,VWS V14.00,2013-05-21 23:36:00,
2013-05-21 18:37:00,67.0,67.0,29.86,SSE,158,15.0,17.0,100,0.16,,---,0.64,VWS V14.00,2013-05-21 23:37:00,
2013-05-21 18:38:00,67.0,67.0,29.86,SE,135,12.0,19.0,100,0.17,,---,0.65,VWS V14.00,2013-05-21 23:38:00,
2013-05-21 18:39:00,67.0,67.0,29.86,SSE,158,16.0,19.0,100,0.16,,---,0.65,VWS V14.00,2013-05-21 23:39:00,
2013-05-21 18:40:00,67.0,67.0,29.86,SSE,158,11.0,17.0,100,0.16,,---,0.65,VWS V14.00,2013-05-21 23:40:00,
2013-05-21 18:41:00,67.0,67.0,29.86,SSE,158,11.0,17.0,100,0.16,,---,0.65,VWS V14.00,2013-05-21 23:41:00,
2013-05-21 18:42:00,67.0,67.0,29.86,SE,135,9.0,13.0,100,0.16,,---,0.66,VWS V14.00,2013-05-21 23:42:00,
2013-05-21 18:43:00,67.0,67.0,29.85,SE,135,16.0,18.0,100,0.16,,---,0.66,VWS V14.00,2013-05-21 23:43:00,
2013-05-21 18:44:00,67.0,67.0,29.85,SSE,158,12.0,18.0,100,0.16,,---,0.66,VWS V14.00,2013-05-21 23:44:00,
2013-05-21 18:45:00,67.0,67.0,29.85,SSE,158,14.0,14.0,100,0.15,,---,0.66,VWS V14.00,2013-05-21 23:45:00,
2013-05-21 18:46:00,67.0,67.0,29.85,SSE,158,13.0,16.0,100,0.16,,---,0.67,VWS V14.00,2013-05-21 23:46:00,
2013-05-21 18:47:00,67.0,67.0,29.85,SE,135,14.0,16.0,100,0.16,,---,0.67,VWS V14.00,2013-05-21 23:47:00,
2013-05-21 18:48:00,67.0,67.0,29.85,SE,135,10.0,16.0,100,0.16,,---,0.67,VWS V14.00,2013-05-21 23:48:00,
2013-05-21 18:49:00,67.0,67.0,29.85,SSE,158,9.0,16.0,100,0.17,,---,0.68,VWS V14.00,2013-05-21 23:49:00,
2013-05-21 18:50:00,67.0,67.0,29.85,South,180,11.0,15.0,100,0.16,,---,0.68,VWS V14.00,2013-05-21 23:50:00,
2013-05-21 18:51:00,67.0,67.0,29.85,SE,135,15.0,16.0,100,0.16,,---,0.68,VWS V14.00,2013-05-21 23:51:00,
2013-05-21 18:52:00,67.0,67.0,29.84,SE,135,15.0,17.0,100,0.16,,---,0.68,VWS V14.00,2013-05-21 23:52:00,
2013-05-21 18:53:00,67.0,67.0,29.84,SE,135,13.0,16.0,100,0.17,,---,0.69,VWS V14.00,2013-05-21 23:53:00,
2013-05-21 18:54:00,67.0,67.0,29.84,SSE,158,11.0,16.0,100,0.16,,---,0.69,VWS V14.00,2013-05-21 23:54:00,
2013-05-21 18:55:00,67.0,67.0,29.84,SE,135,15.0,17.0,100,0.16,,---,0.69,VWS V14.00,2013-05-21 23:55:00,
2013-05-21 18:56:00,67.0,67.0,29.84,SE,135,11.0,17.0,100,0.16,,---,0.69,VWS V14.00,2013-05-21 23:56:00,
2013-05-21 18:57:00,67.0,67.0,29.84,SSE,158,9.0,16.0,100,0.16,,---,0.70,VWS V14.00,2013-05-21 23:57:00,
2013-05-21 18:58:00,67.0,67.0,29.84,SSE,158,13.0,17.0,100,0.16,,---,0.70,VWS V14.00,2013-05-21 23:58:00,
2013-05-21 18:59:00,67.0,67.0,29.84,SE,135,11.0,16.0,100,0.16,,---,0.70,VWS V14.00,2013-05-21 23:59:00,
2013-05-21 19:00:00,67.0,67.0,29.84,SSE,158,11.0,15.0,100,0.16,,---,0.70,VWS V14.00,2013-05-22 00:00:00,
2013-05-21 19:01:00,67.0,67.0,29.84,SE,135,15.0,16.0,100,0.17,,---,0.71,VWS V14.00,2013-05-22 00:01:00,
2013-05-21 19:02:00,67.0,67.0,29.84,SSE,158,14.0,16.0,100,0.17,,---,0.71,VWS V14.00,2013-05-22 00:02:00,
2013-05-21 19:03:00,67.0,67.0,29.84,SE,135,10.0,16.0,100,0.17,,---,0.71,VWS V14.00,2013-05-22 00:03:00,
2013-05-21 19:04:00,67.0,67.0,29.84,SE,135,11.0,16.0,100,0.17,,---,0.71,VWS V14.00,2013-05-22 00:04:00,
2013-05-21 19:05:00,67.0,67.0,29.83,SE,135,10.0,15.0,100,0.17,,---,0.72,VWS V14.00,2013-05-22 00:05:00,
2013-05-21 19:06:00,67.0,67.0,29.83,ESE,112,13.0,14.0,100,0.17,,---,0.72,VWS V14.00,2013-05-22 00:06:00,
2013-05-21 19:07:00,67.0,67.0,29.83,SE,135,12.0,14.0,100,0.17,,---,0.72,VWS V14.00,2013-05-22 00:07:00,
2013-05-21 19:08:00,67.0,67.0,29.83,SSE,158,11.0,12.0,100,0.17,,---,0.72,VWS V14.00,2013-05-22 00:08:00,
2013-05-21 19:09:00,67.0,67.0,29.83,ESE,112,11.0,14.0,100,0.17,,---,0.72,VWS V14.00,2013-05-22 00:09:00,
2013-05-21 19:10:00,67.0,67.0,29.83,South,180,7.0,12.0,100,0.17,,---,0.73,VWS V14.00,2013-05-22 00:10:00,
2013-05-21 19:11:00,67.0,67.0,29.82,SSE,158,8.0,18.0,100,0.17,,---,0.73,VWS V14.00,2013-05-22 00:11:00,
2013-05-21 19:12:00,67.0,67.0,29.82,SSE,158,8.0,8.0,100,0.17,,---,0.73,VWS V14.00,2013-05-22 00:12:00,
2013-05-21 19:13:00,67.0,67.0,29.82,SSE,158,11.0,17.0,100,0.17,,---,0.73,VWS V14.00,2013-05-22 00:13:00,
2013-05-21 19:14:00,67.0,67.0,29.82,SSE,158,16.0,18.0,100,0.16,,---,0.73,VWS V14.00,2013-05-22 00:14:00,
2013-05-21 19:15:00,67.0,67.0,29.82,SE,135,9.0,16.0,100,0.16,,---,0.73,VWS V14.00,2013-05-22 00:15:00,
2013-05-21 19:16:00,67.0,67.0,29.82,ESE,112,11.0,13.0,100,0.15,,---,0.73,VWS V14.00,2013-05-22 00:16:00,
2013-05-21 19:17:00,67.0,67.0,29.82,SSE,158,11.0,19.0,100,0.15,,---,0.73,VWS V14.00,2013-05-22 00:17:00,
2013-05-21 19:18:00,67.0,67.0,29.82,SE,135,6.0,7.0,100,0.14,,---,0.73,VWS V14.00,2013-05-22 00:18:00,
2013-05-21 19:19:00,67.0,67.0,29.82,SSE,158,9.0,15.0,100,0.14,,---,0.73,VWS V14.00,2013-05-22 00:19:00,
2013-05-21 19:20:00,67.0,67.0,29.82,SSE,158,11.0,18.0,100,0.14,,---,0.73,VWS V14.00,2013-05-22 00:20:00,
2013-05-21 19:21:00,67.0,67.0,29.82,ESE,112,11.0,14.0,100,0.14,,---,0.74,VWS V14.00,2013-05-22 00:21:00,
2013-05-21 19:22:00,67.0,67.0,29.82,SE,135,11.0,14.0,100,0.14,,---,0.74,VWS V14.00,2013-05-22 00:22:00,
2013-05-21 19:23:00,67.0,67.0,29.82,SE,135,12.0,15.0,100,0.14,,---,0.74,VWS V14.00,2013-05-22 00:23:00,
2013-05-21 19:24:00,67.0,67.0,29.82,ESE,112,11.0,14.0,100,0.13,,---,0.74,VWS V14.00,2013-05-22 00:24:00,
2013-05-21 19:25:00,67.0,67.0,29.82,ESE,112,9.0,17.0,100,0.13,,---,0.74,VWS V14.00,2013-05-22 00:25:00,
2013-05-21 19:26:00,67.0,67.0,29.82,SSE,158,13.0,16.0,100,0.13,,---,0.74,VWS V14.00,2013-05-22 00:26:00,
2013-05-21 19:27:00,67.0,67.0,29.82,SSE,158,13.0,16.0,100,0.12,,---,0.74,VWS V14.00,2013-05-22 00:27:00,
2013-05-21 19:28:00,67.0,67.0,29.82,ESE,112,8.0,8.0,100,0.12,,---,0.74,VWS V14.00,2013-05-22 00:28:00,
2013-05-21 19:29:00,67.0,67.0,29.82,SE,135,13.0,16.0,100,0.12,,---,0.74,VWS V14.00,2013-05-22 00:29:00,
2013-05-21 19:30:00,67.0,67.0,29.82,SSE,158,11.0,17.0,100,0.11,,---,0.74,VWS V14.00,2013-05-22 00:30:00,
2013-05-21 19:31:00,67.0,67.0,29.82,SE,135,15.0,19.0,100,0.11,,---,0.74,VWS V14.00,2013-05-22 00:31:00,
2013-05-21 19:32:00,67.0,67.0,29.82,SSE,158,12.0,18.0,100,0.11,,---,0.74,VWS V14.00,2013-05-22 00:32:00,
2013-05-21 19:33:00,67.0,67.0,29.82,SE,135,15.0,16.0,100,0.11,,---,0.74,VWS V14.00,2013-05-22 00:33:00,
2013-05-21 19:34:00,67.0,67.0,29.82,SSE,158,16.0,16.0,100,0.10,,---,0.74,VWS V14.00,2013-05-22 00:34:00,
2013-05-21 19:35:00,67.0,67.0,29.82,SSE,158,14.0,14.0,100,0.10,,---,0.74,VWS V14.00,2013-05-22 00:35:00,
2013-05-21 19:36:00,67.0,67.0,29.81,SE,135,14.0,17.0,100,0.10,,---,0.74,VWS V14.00,2013-05-22 00:36:00,
2013-05-21 19:37:00,67.0,67.0,29.81,SSE,158,16.0,18.0,100,0.10,,---,0.74,VWS V14.00,2013-05-22 00:37:00,
2013-05-21 19:38:00,67.0,67.0,29.81,SE,135,11.0,11.0,100,0.09,,---,0.74,VWS V14.00,2013-05-22 00:38:00,
2013-05-21 19:39:00,67.0,67.0,29.81,SE,135,12.0,17.0,100,0.09,,---,0.74,VWS V14.00,2013-05-22 00:39:00,
2013-05-21 19:40:00,67.0,67.0,29.81,SE,135,10.0,15.0,100,0.09,,---,0.74,VWS V14.00,2013-05-22 00:40:00,
2013-05-21 19:41:00,67.0,67.0,29.81,ESE,112,14.0,19.0,100,0.09,,---,0.74,VWS V14.00,2013-05-22 00:41:00,
2013-05-21 19:42:00,67.0,67.0,29.81,SE,135,14.0,19.0,100,0.09,,---,0.74,VWS V14.00,2013-05-22 00:42:00,
2013-05-21 19:43:00,67.0,67.0,29.80,SSE,158,17.0,17.0,100,0.08,,---,0.74,VWS V14.00,2013-05-22 00:43:00,
2013-05-21 19:44:00,67.0,67.0,29.80,SSE,158,18.0,18.0,100,0.08,,---,0.74,VWS V14.00,2013-05-22 00:44:00,
2013-05-21 19:45:00,67.0,67.0,29.80,SE,135,14.0,19.0,100,0.08,,---,0.74,VWS V14.00,2013-05-22 00:45:00,
2013-05-21 19:46:00,67.0,67.0,29.80,ESE,112,13.0,17.0,100,0.08,,---,0.74,VWS V14.00,2013-05-22 00:46:00,
2013-05-21 19:47:00,67.0,67.0,29.80,SSE,158,13.0,18.0,100,0.07,,---,0.74,VWS V14.00,2013-05-22 00:47:00,
2013-05-21 19:48:00,67.0,67.0,29.80,SE,135,18.0,21.0,100,0.07,,---,0.74,VWS V14.00,2013-05-22 00:48:00,
2013-05-21 19:49:00,67.0,67.0,29.80,SSE,158,11.0,19.0,100,0.07,,---,0.74,VWS V14.00,2013-05-22 00:49:00,
2013-05-21 19:50:00,67.0,67.0,29.80,SE,135,14.0,17.0,100,0.06,,---,0.74,VWS V14.00,2013-05-22 00:50:00,
2013-05-21 19:51:00,67.0,67.0,29.80,SSE,158,13.0,16.0,100,0.06,,---,0.74,VWS V14.00,2013-05-22 00:51:00,
2013-05-21 19:52:00,67.0,67.0,29.80,South,180,10.0,14.0,100,0.06,,---,0.74,VWS V14.00,2013-05-22 00:52:00,
2013-05-21 19:53:00,67.0,67.0,29.80,SE,135,11.0,15.0,100,0.06,,---,0.74,VWS V14.00,2013-05-22 00:53:00,
2013-05-21 19:54:00,67.0,67.0,29.80,SE,135,13.0,16.0,100,0.05,,---,0.74,VWS V14.00,2013-05-22 00:54:00,
2013-05-21 19:55:00,67.0,67.0,29.80,SE,135,17.0,20.0,100,0.05,,---,0.74,VWS V14.00,2013-05-22 00:55:00,
2013-05-21 19:56:00,68.0,68.0,29.80,SE,135,14.0,18.0,100,0.05,,---,0.74,VWS V14.00,2013-05-22 00:56:00,
2013-05-21 19:57:00,68.0,68.0,29.80,SSE,158,14.0,18.0,100,0.05,,---,0.74,VWS V14.00,2013-05-22 00:57:00,
2013-05-21 19:58:00,68.0,67.7,29.80,SSE,158,13.0,18.0,99,0.04,,---,0.74,VWS V14.00,2013-05-22 00:58:00,
2013-05-21 19:59:00,68.0,67.7,29.80,ESE,112,10.0,18.0,99,0.04,,---,0.74,VWS V14.00,2013-05-22 00:59:00,
2013-05-21 20:00:00,68.0,67.7,29.80,SE,135,12.0,14.0,99,0.04,,---,0.74,VWS V14.00,2013-05-22 01:00:00,
2013-05-21 20:01:00,68.0,67.7,29.80,SSE,158,10.0,16.0,99,0.04,,---,0.74,VWS V14.00,2013-05-22 01:01:00,
2013-05-21 20:02:00,68.0,67.4,29.80,SSE,158,9.0,18.0,98,0.03,,---,0.74,VWS V14.00,2013-05-22 01:02:00,
2013-05-21 20:03:00,68.0,67.4,29.80,SSE,158,16.0,17.0,98,0.03,,---,0.74,VWS V14.00,2013-05-22 01:03:00,
2013-05-21 20:04:00,68.0,67.4,29.80,SSE,158,11.0,17.0,98,0.03,,---,0.74,VWS V14.00,2013-05-22 01:04:00,
2013-05-21 20:05:00,68.0,67.4,29.80,South,180,9.0,9.0,98,0.02,,---,0.74,VWS V14.00,2013-05-22 01:05:00,
2013-05-21 20:06:00,68.0,67.4,29.80,SE,135,10.0,14.0,98,0.02,,---,0.74,VWS V14.00,2013-05-22 01:06:00,
2013-05-21 20:07:00,68.0,67.4,29.79,South,180,9.0,10.0,98,0.02,,---,0.74,VWS V14.00,2013-05-22 01:07:00,
2013-05-21 20:08:00,68.0,67.4,29.80,South,180,11.0,12.0,98,0.02,,---,0.74,VWS V14.00,2013-05-22 01:08:00,
2013-05-21 20:09:00,68.0,67.1,29.79,SE,135,11.0,14.0,97,0.02,,---,0.74,VWS V14.00,2013-05-22 01:09:00,
2013-05-21 20:10:00,68.0,67.1,29.79,South,180,14.0,14.0,97,0.01,,---,0.74,VWS V14.00,2013-05-22 01:10:00,
2013-05-21 20:11:00,68.0,67.1,29.79,SSE,158,10.0,14.0,97,0.01,,---,0.74,VWS V14.00,2013-05-22 01:11:00,
2013-05-21 20:12:00,68.0,67.1,29.79,SSE,158,15.0,15.0,97,0.01,,---,0.74,VWS V14.00,2013-05-22 01:12:00,
2013-05-21 20:13:00,68.0,67.1,29.79,SSE,158,11.0,16.0,97,0.01,,---,0.74,VWS V14.00,2013-05-22 01:13:00,
2013-05-21 20:14:00,68.0,66.8,29.79,South,180,12.0,14.0,96,0.01,,---,0.74,VWS V14.00,2013-05-22 01:14:00,
2013-05-21 20:15:00,68.0,66.8,29.80,South,180,10.0,13.0,96,0.01,,---,0.74,VWS V14.00,2013-05-22 01:15:00,
2013-05-21 20:16:00,68.0,66.8,29.79,SE,135,11.0,14.0,96,0.01,,---,0.74,VWS V14.00,2013-05-22 01:16:00,
2013-05-21 20:17:00,68.0,66.8,29.80,SSE,158,10.0,10.0,96,0.01,,---,0.74,VWS V14.00,2013-05-22 01:17:00,
2013-05-21 20:18:00,68.0,66.8,29.80,SSE,158,16.0,17.0,96,0.01,,---,0.74,VWS V14.00,2013-05-22 01:18:00,
2013-05-21 20:19:00,69.0,67.5,29.79,SSE,158,13.0,18.0,95,0.01,,---,0.74,VWS V14.00,2013-05-22 01:19:00,
2013-05-21 20:20:00,69.0,67.5,29.79,SSE,158,11.0,13.0,95,0.01,,---,0.74,VWS V14.00,2013-05-22 01:20:00,
2013-05-21 20:21:00,69.0,67.5,29.80,South,180,14.0,15.0,95,0.01,,---,0.74,VWS V14.00,2013-05-22 01:21:00,
2013-05-21 20:22:00,69.0,67.5,29.80,SSE,158,11.0,16.0,95,0.00,,---,0.74,VWS V14.00,2013-05-22 01:22:00,
2013-05-21 20:23:00,68.0,66.5,29.80,SSE,158,12.0,14.0,95,0.00,,---,0.74,VWS V14.00,2013-05-22 01:23:00,
2013-05-21 20:24:00,68.0,66.5,29.80,SSE,158,10.0,13.0,95,0.00,,---,0.74,VWS V14.00,2013-05-22 01:24:00,
2013-05-21 20:25:00,68.0,66.5,29.80,South,180,8.0,9.0,95,0.00,,---,0.74,VWS V14.00,2013-05-22 01:25:00,
2013-05-21 20:26:00,68.0,66.5,29.80,SSE,158,14.0,15.0,95,0.00,,---,0.74,VWS V14.00,2013-05-22 01:26:00,
2013-05-21 20:27:00,68.0,66.5,29.80,SSE,158,10.0,16.0,95,0.00,,---,0.74,VWS V14.00,2013-05-22 01:27:00,
2013-05-21 20:28:00,68.0,66.5,29.80,South,180,11.0,12.0,95,0.00,,---,0.74,VWS V14.00,2013-05-22 01:28:00,
2013-05-21 20:29:00,68.0,66.5,29.80,South,180,11.0,14.0,95,0.00,,---,0.74,VWS V14.00,2013-05-22 01:29:00,
2013-05-21 20:30:00,68.0,66.5,29.80,South,180,13.0,16.0,95,0.00,,---,0.74,VWS V14.00,2013-05-22 01:30:00,
2013-05-21 20:31:00,68.0,66.5,29.80,SSE,158,14.0,14.0,95,0.00,,---,0.74,VWS V14.00,2013-05-22 01:31:00,
2013-05-21 20:32:00,68.0,66.5,29.80,SE,135,10.0,17.0,95,0.00,,---,0.74,VWS V14.00,2013-05-22 01:32:00,
2013-05-21 20:33:00,68.0,66.5,29.80,SSE,158,13.0,16.0,95,0.00,,---,0.74,VWS V14.00,2013-05-22 01:33:00,
2013-05-21 20:34:00,68.0,66.5,29.80,SSE,158,11.0,16.0,95,0.00,,---,0.74,VWS V14.00,2013-05-22 01:34:00,
2013-05-21 20:35:00,68.0,66.5,29.81,South,180,10.0,10.0,95,0.00,,---,0.74,VWS V14.00,2013-05-22 01:35:00,
2013-05-21 20:36:00,68.0,66.5,29.80,SE,135,7.0,14.0,95,0.00,,---,0.74,VWS V14.00,2013-05-22 01:36:00,
2013-05-21 20:37:00,68.0,66.5,29.81,SSE,158,10.0,14.0,95,0.00,,---,0.74,VWS V14.00,2013-05-22 01:37:00,
2013-05-21 20:38:00,68.0,66.5,29.81,South,180,11.0,13.0,95,0.00,,---,0.74,VWS V14.00,2013-05-22 01:38:00,
2013-05-21 20:39:00,68.0,66.5,29.81,SSE,158,15.0,16.0,95,0.00,,---,0.74,VWS V14.00,2013-05-22 01:39:00,
2013-05-21 20:40:00,68.0,66.5,29.81,SSE,158,13.0,16.0,95,0.00,,---,0.74,VWS V14.00,2013-05-22 01:40:00,
2013-05-21 20:41:00,68.0,66.5,29.81,SSE,158,8.0,17.0,95,0.00,,---,0.74,VWS V14.00,2013-05-22 01:41:00,
2013-05-21 20:42:00,68.0,66.5,29.81,SSE,158,10.0,16.0,95,0.00,,---,0.74,VWS V14.00,2013-05-22 01:42:00,
2013-05-21 20:43:00,68.0,66.5,29.81,SSE,158,8.0,15.0,95,0.00,,---,0.74,VWS V14.00,2013-05-22 01:43:00,
2013-05-21 20:44:00,68.0,66.5,29.81,SSE,158,8.0,13.0,95,0.00,,---,0.74,VWS V14.00,2013-05-22 01:44:00,
2013-05-21 20:45:00,68.0,66.5,29.81,South,180,11.0,13.0,95,0.00,,---,0.74,VWS V14.00,2013-05-22 01:45:00,
2013-05-21 20:46:00,68.0,66.5,29.81,SSE,158,10.0,14.0,95,0.00,,---,0.74,VWS V14.00,2013-05-22 01:46:00,
2013-05-21 20:47:00,68.0,66.5,29.81,SSE,158,9.0,13.0,95,0.00,,---,0.74,VWS V14.00,2013-05-22 01:47:00,
2013-05-21 20:48:00,68.0,66.5,29.81,SSE,158,9.0,13.0,95,0.00,,---,0.74,VWS V14.00,2013-05-22 01:48:00,
2013-05-21 20:49:00,68.0,66.5,29.81,SSE,158,9.0,13.0,95,0.00,,---,0.74,VWS V14.00,2013-05-22 01:49:00,
2013-05-21 20:50:00,68.0,66.5,29.81,SSE,158,10.0,10.0,95,0.00,,---,0.74,VWS V14.00,2013-05-22 01:50:00,
2013-05-21 20:51:00,68.0,66.5,29.82,SSW,202,12.0,13.0,95,0.00,,---,0.74,VWS V14.00,2013-05-22 01:51:00,
2013-05-21 20:52:00,68.0,66.5,29.82,South,180,10.0,13.0,95,0.00,,---,0.74,VWS V14.00,2013-05-22 01:52:00,
2013-05-21 20:53:00,68.0,66.5,29.82,South,180,11.0,14.0,95,0.00,,---,0.74,VWS V14.00,2013-05-22 01:53:00,
2013-05-21 20:54:00,68.0,66.5,29.82,SSE,158,11.0,12.0,95,0.00,,---,0.74,VWS V14.00,2013-05-22 01:54:00,
2013-05-21 20:55:00,68.0,66.5,29.82,South,180,13.0,19.0,95,0.00,,---,0.74,VWS V14.00,2013-05-22 01:55:00,
2013-05-21 20:56:00,68.0,66.5,29.82,South,180,16.0,19.0,95,0.00,,---,0.74,VWS V14.00,2013-05-22 01:56:00,
2013-05-21 20:57:00,68.0,66.2,29.82,South,180,17.0,20.0,94,0.00,,---,0.74,VWS V14.00,2013-05-22 01:57:00,
2013-05-21 20:58:00,69.0,67.2,29.83,South,180,13.0,21.0,94,0.00,,---,0.74,VWS V14.00,2013-05-22 01:58:00,
2013-05-21 20:59:00,68.0,66.5,29.83,South,180,12.0,13.0,95,0.00,,---,0.74,VWS V14.00,2013-05-22 01:59:00,
2013-05-21 21:00:00,68.0,66.5,29.82,SSE,158,11.0,13.0,95,0.00,,---,0.74,VWS V14.00,2013-05-22 02:00:00,
2013-05-21 21:01:00,68.0,66.5,29.83,SSE,158,8.0,14.0,95,0.00,,---,0.74,VWS V14.00,2013-05-22 02:01:00,
2013-05-21 21:02:00,68.0,66.5,29.83,South,180,10.0,15.0,95,0.00,,---,0.74,VWS V14.00,2013-05-22 02:02:00,
2013-05-21 21:03:00,68.0,66.5,29.83,South,180,8.0,14.0,95,0.00,,---,0.74,VWS V14.00,2013-05-22 02:03:00,
2013-05-21 21:04:00,68.0,66.5,29.83,SSE,158,7.0,10.0,95,0.00,,---,0.74,VWS V14.00,2013-05-22 02:04:00,
2013-05-21 21:05:00,68.0,66.5,29.83,South,180,10.0,11.0,95,0.00,,---,0.74,VWS V14.00,2013-05-22 02:05:00,
2013-05-21 21:06:00,68.0,66.5,29.84,SW,225,7.0,11.0,95,0.00,,---,0.74,VWS V14.00,2013-05-22 02:06:00,
2013-05-21 21:07:00,68.0,66.5,29.84,SSW,202,8.0,10.0,95,0.00,,---,0.74,VWS V14.00,2013-05-22 02:07:00,
2013-05-21 21:08:00,68.0,66.5,29.84,SW,225,12.0,12.0,95,0.00,,---,0.74,VWS V14.00,2013-05-22 02:08:00,
2013-05-21 21:09:00,68.0,66.5,29.84,WSW,248,10.0,12.0,95,0.00,,---,0.74,VWS V14.00,2013-05-22 02:09:00,
2013-05-21 21:10:00,68.0,66.5,29.84,WSW,248,8.0,10.0,95,0.00,,---,0.74,VWS V14.00,2013-05-22 02:10:00,
2013-05-21 21:11:00,68.0,66.5,29.85,West,270,11.0,11.0,95,0.00,,---,0.74,VWS V14.00,2013-05-22 02:11:00,
2013-05-21 21:12:00,68.0,66.5,29.85,West,270,10.0,13.0,95,0.00,,---,0.74,VWS V14.00,2013-05-22 02:12:00,
2013-05-21 21:13:00,68.0,66.5,29.85,WSW,248,8.0,10.0,95,0.01,,---,0.75,VWS V14.00,2013-05-22 02:13:00,
2013-05-21 21:14:00,68.0,66.5,29.85,West,270,8.0,8.0,95,0.01,,---,0.75,VWS V14.00,2013-05-22 02:14:00,
2013-05-21 21:15:00,68.0,66.5,29.85,WSW,248,8.0,10.0,95,0.01,,---,0.75,VWS V14.00,2013-05-22 02:15:00,
2013-05-21 21:16:00,68.0,66.5,29.85,West,270,7.0,10.0,95,0.01,,---,0.75,VWS V14.00,2013-05-22 02:16:00,
2013-05-21 21:17:00,68.0,66.5,29.85,West,270,9.0,10.0,95,0.01,,---,0.75,VWS V14.00,2013-05-22 02:17:00,
2013-05-21 21:18:00,68.0,66.8,29.85,WSW,248,8.0,11.0,96,0.01,,---,0.75,VWS V14.00,2013-05-22 02:18:00,
2013-05-21 21:19:00,68.0,66.8,29.85,WSW,248,5.0,12.0,96,0.01,,---,0.75,VWS V14.00,2013-05-22 02:19:00,
2013-05-21 21:20:00,68.0,66.8,29.85,WSW,248,9.0,10.0,96,0.01,,---,0.75,VWS V14.00,2013-05-22 02:20:00,
2013-05-21 21:21:00,68.0,66.8,29.85,WSW,248,5.0,10.0,96,0.01,,---,0.75,VWS V14.00,2013-05-22 02:21:00,
2013-05-21 21:22:00,68.0,66.8,29.85,WSW,248,7.0,9.0,96,0.01,,---,0.75,VWS V14.00,2013-05-22 02:22:00,
2013-05-21 21:23:00,68.0,66.8,29.85,WSW,248,8.0,10.0,96,0.01,,---,0.75,VWS V14.00,2013-05-22 02:23:00,
2013-05-21 21:24:00,68.0,66.8,29.85,SW,225,8.0,10.0,96,0.01,,---,0.75,VWS V14.00,2013-05-22 02:24:00,
2013-05-21 21:25:00,68.0,66.8,29.85,WSW,248,10.0,10.0,96,0.01,,---,0.75,VWS V14.00,2013-05-22 02:25:00,
2013-05-21 21:26:00,68.0,66.8,29.85,SW,225,8.0,10.0,96,0.01,,---,0.75,VWS V14.00,2013-05-22 02:26:00,
2013-05-21 21:27:00,68.0,66.8,29.85,SSW,202,9.0,9.0,96,0.01,,---,0.75,VWS V14.00,2013-05-22 02:27:00,
2013-05-21 21:28:00,68.0,66.8,29.85,SSW,202,7.0,11.0,96,0.01,,---,0.75,VWS V14.00,2013-05-22 02:28:00,
2013-05-21 21:29:00,68.0,66.8,29.85,SSW,202,10.0,11.0,96,0.01,,---,0.75,VWS V14.00,2013-05-22 02:29:00,
2013-05-21 21:30:00,68.0,66.8,29.85,SSW,202,6.0,10.0,96,0.01,,---,0.75,VWS V14.00,2013-05-22 02:30:00,
2013-05-21 21:31:00,68.0,66.8,29.85,SSW,202,8.0,8.0,96,0.01,,---,0.75,VWS V14.00,2013-05-22 02:31:00,
2013-05-21 21:32:00,68.0,66.5,29.85,SSW,202,8.0,11.0,95,0.01,,---,0.75,VWS V14.00,2013-05-22 02:32:00,
2013-05-21 21:33:00,68.0,66.5,29.85,SW,225,9.0,11.0,95,0.01,,---,0.75,VWS V14.00,2013-05-22 02:33:00,
2013-05-21 21:34:00,68.0,66.5,29.85,SSW,202,7.0,7.0,95,0.01,,---,0.75,VWS V14.00,2013-05-22 02:34:00,
2013-05-21 21:35:00,68.0,66.5,29.84,SSW,202,8.0,10.0,95,0.01,,---,0.75,VWS V14.00,2013-05-22 02:35:00,
2013-05-21 21:36:00,68.0,66.5,29.85,South,180,11.0,11.0,95,0.01,,---,0.75,VWS V14.00,2013-05-22 02:36:00,
2013-05-21 21:37:00,68.0,66.5,29.84,SSW,202,13.0,15.0,95,0.01,,---,0.75,VWS V14.00,2013-05-22 02:37:00,
2013-05-21 21:38:00,68.0,66.5,29.85,SSW,202,10.0,15.0,95,0.01,,---,0.75,VWS V14.00,2013-05-22 02:38:00,
2013-05-21 21:39:00,68.0,66.5,29.85,South,180,8.0,12.0,95,0.01,,---,0.75,VWS V14.00,2013-05-22 02:39:00,
2013-05-21 21:40:00,68.0,66.5,29.85,SSW,202,8.0,9.0,95,0.01,,---,0.75,VWS V14.00,2013-05-22 02:40:00,
2013-05-21 21:41:00,68.0,66.5,29.85,SSW,202,6.0,8.0,95,0.01,,---,0.75,VWS V14.00,2013-05-22 02:41:00,
2013-05-21 21:42:00,68.0,66.5,29.85,SSW,202,7.0,8.0,95,0.01,,---,0.75,VWS V14.00,2013-05-22 02:42:00,
2013-05-21 21:43:00,68.0,66.5,29.85,SW,225,11.0,16.0,95,0.01,,---,0.75,VWS V14.00,2013-05-22 02:43:00,
2013-05-21 21:44:00,68.0,66.5,29.86,SSW,202,11.0,14.0,95,0.01,,---,0.75,VWS V14.00,2013-05-22 02:44:00,
2013-05-21 21:45:00,68.0,66.5,29.86,SSW,202,8.0,13.0,95,0.01,,---,0.75,VWS V14.00,2013-05-22 02:45:00,
2013-05-21 21:46:00,68.0,66.5,29.86,SSW,202,7.0,12.0,95,0.01,,---,0.75,VWS V14.00,2013-05-22 02:46:00,
2013-05-21 21:47:00,68.0,66.5,29.85,SW,225,8.0,11.0,95,0.01,,---,0.75,VWS V14.00,2013-05-22 02:47:00,
2013-05-21 21:48:00,68.0,66.5,29.86,SSW,202,10.0,13.0,95,0.01,,---,0.75,VWS V14.00,2013-05-22 02:48:00,
2013-05-21 21:49:00,68.0,66.5,29.86,SSW,202,8.0,13.0,95,0.01,,---,0.75,VWS V14.00,2013-05-22 02:49:00,
2013-05-21 21:50:00,68.0,66.5,29.86,SSW,202,11.0,13.0,95,0.01,,---,0.75,VWS V14.00,2013-05-22 02:50:00,
2013-05-21 21:51:00,68.0,66.5,29.86,SSE,158,11.0,11.0,95,0.01,,---,0.75,VWS V14.00,2013-05-22 02:51:00,
2013-05-21 21:52:00,68.0,66.8,29.86,SSE,158,8.0,8.0,96,0.01,,---,0.75,VWS V14.00,2013-05-22 02:52:00,
2013-05-21 21:53:00,68.0,66.8,29.86,SSW,202,6.0,10.0,96,0.01,,---,0.75,VWS V14.00,2013-05-22 02:53:00,
2013-05-21 21:54:00,68.0,66.8,29.86,SSW,202,8.0,11.0,96,0.01,,---,0.75,VWS V14.00,2013-05-22 02:54:00,
2013-05-21 21:55:00,68.0,66.8,29.86,SSW,202,6.0,10.0,96,0.01,,---,0.75,VWS V14.00,2013-05-22 02:55:00,
2013-05-21 21:56:00,68.0,66.8,29.86,SSW,202,6.0,9.0,96,0.01,,---,0.75,VWS V14.00,2013-05-22 02:56:00,
2013-05-21 21:57:00,68.0,66.8,29.86,SSW,202,6.0,9.0,96,0.01,,---,0.75,VWS V14.00,2013-05-22 02:57:00,
2013-05-21 21:58:00,68.0,66.8,29.86,South,180,5.0,10.0,96,0.01,,---,0.75,VWS V14.00,2013-05-22 02:58:00,
2013-05-21 21:59:00,68.0,66.8,29.86,SSW,202,11.0,12.0,96,0.01,,---,0.75,VWS V14.00,2013-05-22 02:59:00,
2013-05-21 22:00:00,68.0,66.8,29.85,SSW,202,10.0,13.0,96,0.01,,---,0.75,VWS V14.00,2013-05-22 03:00:00,
2013-05-21 22:01:00,68.0,66.8,29.86,SSW,202,9.0,11.0,96,0.01,,---,0.75,VWS V14.00,2013-05-22 03:01:00,
2013-05-21 22:02:00,68.0,66.8,29.85,South,180,11.0,13.0,96,0.01,,---,0.75,VWS V14.00,2013-05-22 03:02:00,
2013-05-21 22:03:00,68.0,67.1,29.86,South,180,7.0,7.0,97,0.01,,---,0.75,VWS V14.00,2013-05-22 03:03:00,
2013-05-21 22:04:00,68.0,67.1,29.86,South,180,9.0,11.0,97,0.01,,---,0.75,VWS V14.00,2013-05-22 03:04:00,
2013-05-21 22:05:00,68.0,67.1,29.86,South,180,8.0,11.0,97,0.01,,---,0.75,VWS V14.00,2013-05-22 03:05:00,
2013-05-21 22:06:00,68.0,67.1,29.86,South,180,15.0,15.0,97,0.01,,---,0.75,VWS V14.00,2013-05-22 03:06:00,
2013-05-21 22:07:00,68.0,67.1,29.85,SSE,158,8.0,8.0,97,0.01,,---,0.75,VWS V14.00,2013-05-22 03:07:00,
2013-05-21 22:08:00,68.0,67.1,29.85,South,180,8.0,12.0,97,0.01,,---,0.75,VWS V14.00,2013-05-22 03:08:00,
2013-05-21 22:09:00,68.0,67.1,29.85,South,180,8.0,10.0,97,0.01,,---,0.75,VWS V14.00,2013-05-22 03:09:00,
2013-05-21 22:10:00,68.0,67.1,29.85,South,180,7.0,10.0,97,0.01,,---,0.75,VWS V14.00,2013-05-22 03:10:00,
2013-05-21 22:11:00,68.0,67.1,29.85,South,180,11.0,13.0,97,0.01,,---,0.75,VWS V14.00,2013-05-22 03:11:00,
2013-05-21 22:12:00,68.0,67.1,29.85,South,180,8.0,14.0,97,0.01,,---,0.75,VWS V14.00,2013-05-22 03:12:00,
2013-05-21 22:13:00,68.0,67.1,29.85,South,180,8.0,10.0,97,0.01,,---,0.75,VWS V14.00,2013-05-22 03:13:00,
2013-05-21 22:14:00,68.0,67.1,29.85,SSE,158,8.0,9.0,97,0.00,,---,0.75,VWS V14.00,2013-05-22 03:14:00,
2013-05-21 22:15:00,67.0,66.1,29.85,SSE,158,8.0,11.0,97,0.00,,---,0.75,VWS V14.00,2013-05-22 03:15:00,
2013-05-21 22:16:00,67.0,66.1,29.85,South,180,10.0,10.0,97,0.00,,---,0.75,VWS V14.00,2013-05-22 03:16:00,
2013-05-21 22:17:00,67.0,66.1,29.85,South,180,9.0,10.0,97,0.00,,---,0.75,VWS V14.00,2013-05-22 03:17:00,
2013-05-21 22:18:00,67.0,66.4,29.85,SSW,202,14.0,14.0,98,0.00,,---,0.75,VWS V14.00,2013-05-22 03:18:00,
2013-05-21 22:19:00,67.0,66.4,29.85,South,180,8.0,14.0,98,0.00,,---,0.75,VWS V14.00,2013-05-22 03:19:00,
2013-05-21 22:20:00,67.0,66.4,29.85,South,180,10.0,11.0,98,0.00,,---,0.75,VWS V14.00,2013-05-22 03:20:00,
2013-05-21 22:21:00,67.0,66.4,29.84,South,180,6.0,10.0,98,0.00,,---,0.75,VWS V14.00,2013-05-22 03:21:00,
2013-05-21 22:22:00,67.0,66.4,29.84,SSE,158,11.0,12.0,98,0.00,,---,0.75,VWS V14.00,2013-05-22 03:22:00,
2013-05-21 22:23:00,67.0,66.4,29.84,South,180,7.0,7.0,98,0.00,,---,0.75,VWS V14.00,2013-05-22 03:23:00,
2013-05-21 22:24:00,67.0,66.4,29.84,SSE,158,9.0,10.0,98,0.00,,---,0.75,VWS V14.00,2013-05-22 03:24:00,
2013-05-21 22:25:00,67.0,66.4,29.84,SSE,158,10.0,10.0,98,0.00,,---,0.75,VWS V14.00,2013-05-22 03:25:00,
2013-05-21 22:26:00,67.0,66.4,29.84,South,180,10.0,14.0,98,0.00,,---,0.75,VWS V14.00,2013-05-22 03:26:00,
2013-05-21 22:27:00,67.0,66.4,29.84,SE,135,11.0,12.0,98,0.00,,---,0.75,VWS V14.00,2013-05-22 03:27:00,
2013-05-21 22:28:00,67.0,66.4,29.84,SSE,158,10.0,10.0,98,0.00,,---,0.75,VWS V14.00,2013-05-22 03:28:00,
2013-05-21 22:29:00,67.0,66.4,29.84,South,180,9.0,11.0,98,0.00,,---,0.75,VWS V14.00,2013-05-22 03:29:00,
2013-05-21 22:30:00,67.0,66.4,29.84,SSE,158,15.0,15.0,98,0.00,,---,0.75,VWS V14.00,2013-05-22 03:30:00,
2013-05-21 22:31:00,67.0,66.4,29.84,South,180,8.0,15.0,98,0.00,,---,0.75,VWS V14.00,2013-05-22 03:31:00,
2013-05-21 22:32:00,67.0,66.4,29.84,South,180,8.0,10.0,98,0.00,,---,0.75,VWS V14.00,2013-05-22 03:32:00,
2013-05-21 22:33:00,67.0,66.4,29.84,South,180,11.0,11.0,98,0.00,,---,0.75,VWS V14.00,2013-05-22 03:33:00,
2013-05-21 22:34:00,67.0,66.4,29.84,SSE,158,8.0,13.0,98,0.00,,---,0.75,VWS V14.00,2013-05-22 03:34:00,
2013-05-21 22:35:00,67.0,66.4,29.85,South,180,8.0,8.0,98,0.00,,---,0.75,VWS V14.00,2013-05-22 03:35:00,
2013-05-21 22:36:00,67.0,66.4,29.85,South,180,8.0,10.0,98,0.00,,---,0.75,VWS V14.00,2013-05-22 03:36:00,
2013-05-21 22:37:00,67.0,66.7,29.84,SSE,158,9.0,11.0,99,0.00,,---,0.75,VWS V14.00,2013-05-22 03:37:00,
2013-05-21 22:38:00,67.0,66.7,29.85,SSE,158,8.0,8.0,99,0.00,,---,0.75,VWS V14.00,2013-05-22 03:38:00,
2013-05-21 22:39:00,67.0,66.7,29.85,South,180,8.0,11.0,99,0.00,,---,0.75,VWS V14.00,2013-05-22 03:39:00,
2013-05-21 22:40:00,67.0,66.7,29.84,SSE,158,10.0,10.0,99,0.00,,---,0.75,VWS V14.00,2013-05-22 03:40:00,
2013-05-21 22:41:00,67.0,66.7,29.84,South,180,9.0,10.0,99,0.00,,---,0.75,VWS V14.00,2013-05-22 03:41:00,
2013-05-21 22:42:00,67.0,66.7,29.84,SSE,158,7.0,8.0,99,0.00,,---,0.75,VWS V14.00,2013-05-22 03:42:00,
2013-05-21 22:43:00,67.0,66.7,29.84,South,180,7.0,10.0,99,0.00,,---,0.75,VWS V14.00,2013-05-22 03:43:00,
2013-05-21 22:44:00,67.0,66.7,29.84,South,180,7.0,8.0,99,0.00,,---,0.75,VWS V14.00,2013-05-22 03:44:00,
2013-05-21 22:45:00,67.0,66.7,29.84,South,180,8.0,11.0,99,0.00,,---,0.75,VWS V14.00,2013-05-22 03:45:00,
2013-05-21 22:46:00,67.0,66.7,29.84,South,180,10.0,10.0,99,0.00,,---,0.75,VWS V14.00,2013-05-22 03:46:00,
2013-05-21 22:47:00,67.0,66.7,29.84,South,180,8.0,10.0,99,0.00,,---,0.75,VWS V14.00,2013-05-22 03:47:00,
2013-05-21 22:48:00,67.0,66.7,29.84,SSE,158,6.0,9.0,99,0.00,,---,0.75,VWS V14.00,2013-05-22 03:48:00,
2013-05-21 22:49:00,67.0,66.7,29.84,South,180,7.0,8.0,99,0.00,,---,0.75,VWS V14.00,2013-05-22 03:49:00,
2013-05-21 22:50:00,67.0,66.7,29.84,South,180,8.0,8.0,99,0.00,,---,0.75,VWS V14.00,2013-05-22 03:50:00,
2013-05-21 22:51:00,67.0,66.7,29.85,South,180,8.0,9.0,99,0.00,,---,0.75,VWS V14.00,2013-05-22 03:51:00,
2013-05-21 22:52:00,67.0,66.7,29.84,South,180,7.0,9.0,99,0.00,,---,0.75,VWS V14.00,2013-05-22 03:52:00,
2013-05-21 22:53:00,67.0,66.7,29.84,South,180,9.0,11.0,99,0.00,,---,0.75,VWS V14.00,2013-05-22 03:53:00,
2013-05-21 22:54:00,67.0,66.7,29.84,SSE,158,5.0,5.0,99,0.00,,---,0.75,VWS V14.00,2013-05-22 03:54:00,
2013-05-21 22:55:00,67.0,66.7,29.85,South,180,5.0,7.0,99,0.00,,---,0.75,VWS V14.00,2013-05-22 03:55:00,
2013-05-21 22:56:00,67.0,66.7,29.85,South,180,5.0,9.0,99,0.00,,---,0.75,VWS V14.00,2013-05-22 03:56:00,
2013-05-21 22:57:00,67.0,66.7,29.85,SSE,158,4.0,5.0,99,0.00,,---,0.75,VWS V14.00,2013-05-22 03:57:00,
2013-05-21 22:58:00,67.0,66.7,29.85,South,180,6.0,8.0,99,0.00,,---,0.75,VWS V14.00,2013-05-22 03:58:00,
2013-05-21 22:59:00,67.0,66.7,29.85,SSE,158,8.0,10.0,99,0.00,,---,0.75,VWS V14.00,2013-05-22 03:59:00,
2013-05-21 23:00:00,67.0,66.7,29.85,South,180,6.0,9.0,99,0.00,,---,0.75,VWS V14.00,2013-05-22 04:00:00,
2013-05-21 23:01:00,67.0,66.7,29.85,South,180,8.0,8.0,99,0.00,,---,0.75,VWS V14.00,2013-05-22 04:01:00,
2013-05-21 23:02:00,67.0,66.7,29.85,South,180,6.0,10.0,99,0.00,,---,0.75,VWS V14.00,2013-05-22 04:02:00,
2013-05-21 23:03:00,67.0,66.7,29.85,South,180,8.0,8.0,99,0.00,,---,0.75,VWS V14.00,2013-05-22 04:03:00,
2013-05-21 23:04:00,67.0,67.0,29.85,South,180,6.0,6.0,100,0.00,,---,0.75,VWS V14.00,2013-05-22 04:04:00,
2013-05-21 23:05:00,67.0,67.0,29.85,South,180,6.0,9.0,100,0.00,,---,0.75,VWS V14.00,2013-05-22 04:05:00,
2013-05-21 23:06:00,67.0,67.0,29.85,South,180,6.0,9.0,100,0.00,,---,0.75,VWS V14.00,2013-05-22 04:06:00,
2013-05-21 23:07:00,67.0,67.0,29.85,SSW,202,8.0,11.0,100,0.00,,---,0.75,VWS V14.00,2013-05-22 04:07:00,
2013-05-21 23:08:00,67.0,67.0,29.85,SSE,158,10.0,10.0,100,0.00,,---,0.75,VWS V14.00,2013-05-22 04:08:00,
2013-05-21 23:09:00,67.0,67.0,29.85,SSE,158,9.0,9.0,100,0.00,,---,0.75,VWS V14.00,2013-05-22 04:09:00,
2013-05-21 23:10:00,67.0,67.0,29.85,South,180,6.0,10.0,100,0.00,,---,0.75,VWS V14.00,2013-05-22 04:10:00,
2013-05-21 23:11:00,67.0,67.0,29.85,SSE,158,8.0,11.0,100,0.00,,---,0.75,VWS V14.00,2013-05-22 04:11:00,
2013-05-21 23:12:00,67.0,67.0,29.85,SSW,202,9.0,13.0,100,0.00,,---,0.75,VWS V14.00,2013-05-22 04:12:00,
2013-05-21 23:13:00,67.0,67.0,29.85,South,180,9.0,10.0,100,0.00,,---,0.75,VWS V14.00,2013-05-22 04:13:00,
2013-05-21 23:14:00,67.0,67.0,29.85,SSW,202,9.0,11.0,100,0.00,,---,0.75,VWS V14.00,2013-05-22 04:14:00,
2013-05-21 23:15:00,67.0,67.0,29.85,SSE,158,8.0,9.0,100,0.00,,---,0.75,VWS V14.00,2013-05-22 04:15:00,
2013-05-21 23:16:00,67.0,67.0,29.85,South,180,10.0,13.0,100,0.01,,---,0.76,VWS V14.00,2013-05-22 04:16:00,
2013-05-21 23:17:00,67.0,67.0,29.85,South,180,8.0,11.0,100,0.01,,---,0.76,VWS V14.00,2013-05-22 04:17:00,
2013-05-21 23:18:00,67.0,67.0,29.85,South,180,7.0,9.0,100,0.01,,---,0.76,VWS V14.00,2013-05-22 04:18:00,
2013-05-21 23:19:00,67.0,67.0,29.85,SSE,158,6.0,6.0,100,0.01,,---,0.76,VWS V14.00,2013-05-22 04:19:00,
2013-05-21 23:20:00,67.0,67.0,29.85,South,180,7.0,8.0,100,0.01,,---,0.76,VWS V14.00,2013-05-22 04:20:00,
2013-05-21 23:21:00,67.0,67.0,29.85,SSE,158,6.0,7.0,100,0.01,,---,0.76,VWS V14.00,2013-05-22 04:21:00,
2013-05-21 23:22:00,67.0,67.0,29.85,South,180,8.0,12.0,100,0.01,,---,0.76,VWS V14.00,2013-05-22 04:22:00,
2013-05-21 23:23:00,67.0,67.0,29.85,South,180,9.0,9.0,100,0.01,,---,0.76,VWS V14.00,2013-05-22 04:23:00,
2013-05-21 23:24:00,67.0,67.0,29.85,South,180,8.0,10.0,100,0.02,,---,0.77,VWS V14.00,2013-05-22 04:24:00,
2013-05-21 23:25:00,67.0,67.0,29.85,SSE,158,11.0,11.0,100,0.02,,---,0.77,VWS V14.00,2013-05-22 04:25:00,
2013-05-21 23:26:00,67.0,67.0,29.85,South,180,6.0,7.0,100,0.02,,---,0.77,VWS V14.00,2013-05-22 04:26:00,
2013-05-21 23:27:00,67.0,67.0,29.85,South,180,6.0,9.0,100,0.02,,---,0.77,VWS V14.00,2013-05-22 04:27:00,
2013-05-21 23:28:00,67.0,67.0,29.85,South,180,8.0,9.0,100,0.02,,---,0.77,VWS V14.00,2013-05-22 04:28:00,
2013-05-21 23:29:00,67.0,67.0,29.85,SSE,158,12.0,14.0,100,0.02,,---,0.77,VWS V14.00,2013-05-22 04:29:00,
2013-05-21 23:30:00,67.0,67.0,29.85,SSE,158,8.0,13.0,100,0.03,,---,0.78,VWS V14.00,2013-05-22 04:30:00,
2013-05-21 23:31:00,67.0,67.0,29.85,South,180,8.0,13.0,100,0.03,,---,0.78,VWS V14.00,2013-05-22 04:31:00,
2013-05-21 23:32:00,67.0,67.0,29.85,SSE,158,6.0,9.0,100,0.03,,---,0.78,VWS V14.00,2013-05-22 04:32:00,
2013-05-21 23:33:00,67.0,67.0,29.85,South,180,8.0,10.0,100,0.03,,---,0.78,VWS V14.00,2013-05-22 04:33:00,
2013-05-21 23:34:00,67.0,67.0,29.85,SSE,158,6.0,8.0,100,0.03,,---,0.78,VWS V14.00,2013-05-22 04:34:00,
2013-05-21 23:35:00,67.0,67.0,29.84,SSE,158,7.0,10.0,100,0.03,,---,0.78,VWS V14.00,2013-05-22 04:35:00,
2013-05-21 23:36:00,67.0,67.0,29.84,SSE,158,8.0,12.0,100,0.03,,---,0.78,VWS V14.00,2013-05-22 04:36:00,
2013-05-21 23:37:00,67.0,67.0,29.85,South,180,6.0,10.0,100,0.03,,---,0.78,VWS V14.00,2013-05-22 04:37:00,
2013-05-21 23:38:00,67.0,67.0,29.84,SSE,158,11.0,11.0,100,0.03,,---,0.78,VWS V14.00,2013-05-22 04:38:00,
2013-05-21 23:39:00,67.0,67.0,29.84,SSE,158,8.0,8.0,100,0.03,,---,0.78,VWS V14.00,2013-05-22 04:39:00,
2013-05-21 23:40:00,67.0,67.0,29.84,SSW,202,8.0,11.0,100,0.03,,---,0.78,VWS V14.00,2013-05-22 04:40:00,
2013-05-21 23:41:00,67.0,67.0,29.84,SSE,158,9.0,10.0,100,0.03,,---,0.78,VWS V14.00,2013-05-22 04:41:00,
2013-05-21 23:42:00,67.0,67.0,29.84,SSE,158,8.0,10.0,100,0.03,,---,0.78,VWS V14.00,2013-05-22 04:42:00,
2013-05-21 23:43:00,67.0,67.0,29.84,South,180,10.0,10.0,100,0.04,,---,0.79,VWS V14.00,2013-05-22 04:43:00,
2013-05-21 23:44:00,67.0,67.0,29.84,South,180,11.0,13.0,100,0.04,,---,0.79,VWS V14.00,2013-05-22 04:44:00,
2013-05-21 23:45:00,67.0,67.0,29.84,South,180,10.0,11.0,100,0.04,,---,0.79,VWS V14.00,2013-05-22 04:45:00,
2013-05-21 23:46:00,67.0,67.0,29.84,SSW,202,6.0,10.0,100,0.04,,---,0.79,VWS V14.00,2013-05-22 04:46:00,
2013-05-21 23:47:00,67.0,67.0,29.83,SSW,202,8.0,12.0,100,0.04,,---,0.79,VWS V14.00,2013-05-22 04:47:00,
2013-05-21 23:48:00,67.0,67.0,29.83,SSW,202,8.0,8.0,100,0.04,,---,0.79,VWS V14.00,2013-05-22 04:48:00,
2013-05-21 23:49:00,67.0,67.0,29.83,South,180,11.0,12.0,100,0.04,,---,0.79,VWS V14.00,2013-05-22 04:49:00,
2013-05-21 23:50:00,67.0,67.0,29.83,SSE,158,13.0,13.0,100,0.04,,---,0.79,VWS V14.00,2013-05-22 04:50:00,
2013-05-21 23:51:00,67.0,67.0,29.83,South,180,11.0,17.0,100,0.04,,---,0.79,VWS V14.00,2013-05-22 04:51:00,
2013-05-21 23:52:00,67.0,67.0,29.83,South,180,11.0,12.0,100,0.04,,---,0.79,VWS V14.00,2013-05-22 04:52:00,
2013-05-21 23:53:00,67.0,67.0,29.83,SSW,202,11.0,12.0,100,0.04,,---,0.79,VWS V14.00,2013-05-22 04:53:00,
2013-05-21 23:54:00,67.0,67.0,29.83,South,180,8.0,11.0,100,0.04,,---,0.79,VWS V14.00,2013-05-22 04:54:00,
2013-05-21 23:55:00,67.0,67.0,29.83,South,180,11.0,14.0,100,0.04,,---,0.79,VWS V14.00,2013-05-22 04:55:00,
2013-05-21 23:56:00,67.0,67.0,29.83,South,180,10.0,14.0,100,0.04,,---,0.79,VWS V14.00,2013-05-22 04:56:00,
2013-05-21 23:57:00,67.0,67.0,29.83,South,180,11.0,12.0,100,0.04,,---,0.79,VWS V14.00,2013-05-22 04:57:00,
2013-05-21 23:58:00,67.0,67.0,29.83,South,180,10.0,10.0,100,0.04,,---,0.79,VWS V14.00,2013-05-22 04:58:00,
2013-05-21 23:59:00,67.0,67.0,29.83,SSW,202,10.0,10.0,100,0.04,,---,0.79,VWS V14.00,2013-05-22 04:59:00,